GFSGL_700_spd_000.txt.gz
Wind_Speed
15 14 15 18 21 25 28 31 34 37 39 41 41 43 45 46 45 44 43 44 46 47 49 51 51 53 54 53 52 53 54 55 59 56 55 54 56 58 59 60 60 60 59
16 17 18 21 25 28 31 34 36 39 41 42 43 45 46 46 44 44 45 46 49 50 51 53 53 54 52 51 52 54 55 55 56 58 54 55 56 57 60 61 59 58 58
19 20 22 24 28 31 34 36 39 41 42 42 44 46 45 44 44 44 47 49 51 52 53 53 53 53 54 55 55 56 56 54 53 53 57 55 56 57 58 57 58 57 52
23 23 25 28 31 34 36 38 41 42 41 43 45 44 43 43 45 47 50 51 52 52 52 52 53 56 57 58 57 56 54 52 51 50 52 54 49 54 55 60 56 48 45
26 26 28 31 33 35 37 40 42 41 42 44 43 42 42 44 47 50 52 54 53 52 52 54 56 59 58 56 54 53 50 48 47 48 48 49 51 54 57 53 50 47 43
28 29 31 33 34 37 40 40 40 41 42 41 41 42 43 45 48 50 52 53 52 53 56 58 58 57 56 54 51 47 42 39 40 42 44 53 57 57 47 45 45 46 49
29 30 32 34 36 38 38 39 40 41 40 39 40 42 44 47 49 51 51 52 53 55 58 59 57 55 52 50 47 44 39 36 37 44 54 56 52 46 43 43 43 46 48
29 31 33 35 36 36 37 38 39 39 38 39 40 43 46 48 50 50 52 53 55 57 57 55 52 50 48 47 43 37 39 42 46 51 51 48 42 39 39 42 45 45 44
29 31 33 34 35 36 36 37 38 37 37 39 42 45 48 48 49 51 53 54 57 57 54 50 48 47 44 39 34 40 44 46 47 44 37 33 33 35 35 36 36 40 42
29 31 32 33 33 34 35 35 36 37 38 41 43 45 46 47 50 51 54 56 57 54 50 48 45 41 37 31 37 44 45 42 39 35 32 31 31 27 27 29 33 37 39
28 29 30 31 32 33 33 34 35 36 39 41 43 43 45 47 49 51 54 54 52 50 48 46 41 36 35 39 39 39 38 37 34 35 35 28 25 26 28 29 30 32 34
26 28 29 31 31 31 32 32 35 39 41 42 43 44 45 46 49 52 51 49 46 47 47 42 37 37 38 38 36 34 32 34 35 31 27 26 28 28 28 28 28 28 28
26 27 28 29 29 30 32 34 36 39 41 42 44 46 46 48 50 50 48 45 45 44 41 37 36 37 37 34 31 30 31 30 27 25 27 28 27 27 27 27 27 28 27
26 26 26 27 29 31 34 36 38 40 41 43 45 46 48 50 50 49 46 45 44 41 38 36 36 35 32 29 27 27 23 24 26 27 27 26 26 27 28 30 30 28 27
24 25 26 28 29 31 33 36 37 38 42 45 47 48 51 51 48 45 43 43 40 38 37 36 34 30 26 25 22 20 21 23 24 25 26 28 28 26 25 27 28 26 25
24 26 27 28 30 32 33 32 35 39 40 42 45 48 48 46 43 40 40 37 36 35 35 34 30 27 26 24 22 20 22 23 24 26 28 30 28 26 24 23 25 25 24
24 25 27 29 31 32 34 37 38 36 39 42 45 46 45 41 38 37 36 34 33 33 32 29 26 25 24 22 22 22 23 24 27 29 29 27 25 24 23 21 22 25 22
24 26 28 30 31 33 36 37 40 42 44 45 45 44 41 36 34 34 34 32 30 29 27 26 25 23 21 21 21 22 23 25 26 26 23 23 24 25 21 19 21 22 22
25 27 28 30 33 35 37 39 41 43 45 47 45 40 36 32 32 30 31 31 30 28 24 23 23 21 21 21 21 22 24 26 26 21 20 21 23 24 18 18 20 20 20
26 28 30 32 33 35 37 40 43 45 46 45 40 36 35 33 31 30 29 28 27 25 23 22 20 20 21 21 21 23 23 23 18 16 19 20 21 20 18 16 18 19 17
27 30 31 33 35 37 40 42 45 46 44 39 34 32 32 33 31 30 27 26 25 24 22 20 19 20 21 22 23 24 22 19 16 17 19 19 20 19 17 16 16 16 15
29 31 32 34 36 39 42 44 45 42 37 34 31 29 30 29 29 26 24 24 23 22 21 19 19 21 22 24 24 22 20 17 17 19 19 18 18 17 17 17 15 14 13
30 32 34 36 39 42 44 43 39 35 33 31 30 29 28 27 27 24 23 22 20 19 18 18 20 21 22 22 22 21 18 18 20 22 20 17 17 18 17 16 14 13 13
32 34 36 39 42 44 42 36 33 32 32 30 29 28 27 27 24 22 21 19 18 17 17 18 21 22 21 20 19 19 20 22 22 21 20 19 17 16 15 14 13 12 12
34 37 40 42 43 39 34 34 33 32 30 29 27 26 26 26 21 19 18 17 15 14 16 18 20 19 19 18 18 20 20 19 18 17 17 15 14 14 14 14 14 13 11
37 40 42 41 36 35 35 33 31 30 29 27 26 25 26 23 17 16 15 14 12 14 16 18 18 18 17 16 17 18 17 17 17 17 17 15 15 16 16 18 18 17 13

GFSGL_700_spd_003.txt.gz
Wind_Speed
18 15 14 14 16 19 22 26 29 33 36 38 41 43 42 43 45 45 45 45 45 47 49 53 55 57 57 56 57 57 59 61 66 65 64 63 63 64 64 62 60 58 56
18 17 16 17 19 22 25 28 32 36 39 41 43 43 44 45 45 46 46 45 48 51 54 56 56 57 58 58 58 60 63 63 63 65 65 63 62 60 60 60 58 56 57
19 18 19 21 23 26 28 32 36 39 41 43 43 43 45 44 45 45 46 48 50 53 55 56 58 59 59 60 63 64 64 63 60 58 59 57 56 54 56 57 55 55 57
22 22 23 25 27 29 32 35 39 41 42 43 43 44 45 45 45 46 48 50 53 54 55 57 58 59 61 63 64 63 60 57 54 52 52 52 49 51 53 58 58 57 53
26 26 27 28 30 32 35 38 41 41 42 42 43 44 44 44 45 48 51 53 54 55 57 57 57 60 61 60 58 56 54 52 49 46 48 49 52 53 57 60 58 52 45
30 30 30 31 32 35 38 40 41 41 42 43 44 44 42 44 46 49 52 53 55 56 56 57 59 59 58 55 53 51 47 41 41 41 46 51 56 59 56 48 45 45 48
32 31 31 32 34 37 39 40 39 41 41 42 42 42 43 46 48 51 52 54 54 54 56 58 59 56 54 54 50 46 43 43 42 46 53 55 51 44 43 44 44 44 42
27 28 29 32 35 38 38 38 39 40 41 40 40 42 44 47 49 50 52 53 52 54 56 57 55 52 51 48 43 43 42 43 44 44 43 40 39 39 40 40 41 43 43
25 27 30 33 35 36 37 38 39 39 39 38 41 43 45 46 49 51 52 51 53 55 56 53 50 50 45 41 42 45 44 40 37 34 32 33 33 32 34 39 40 42 41
24 28 31 33 34 34 36 37 38 37 38 39 40 43 45 48 49 50 50 53 56 57 54 50 47 42 39 39 42 42 40 37 35 34 31 26 28 30 31 32 35 39 40
27 29 30 30 32 34 35 35 35 36 37 39 41 43 45 48 48 48 51 54 55 54 50 47 43 40 40 40 38 36 35 36 35 31 29 29 28 28 28 29 31 35 39
25 26 28 30 32 32 32 33 35 37 38 41 43 43 44 46 47 49 52 53 51 48 46 43 40 40 40 38 34 33 33 32 29 30 29 28 28 28 28 29 30 31 32
24 27 29 30 31 31 31 32 33 37 40 42 45 46 47 46 48 50 51 50 47 44 42 40 39 39 37 32 30 31 30 28 28 28 28 29 30 31 30 28 27 31 30
26 27 28 28 29 30 31 34 36 39 41 43 46 48 48 48 50 51 52 48 43 42 41 39 38 37 32 30 29 26 25 26 28 29 30 31 31 28 25 26 27 30 29
25 25 25 26 27 30 32 35 37 40 43 47 48 49 51 52 52 51 47 43 41 39 39 37 36 31 28 26 22 22 23 23 24 27 30 30 26 25 24 24 26 28 28
22 23 25 27 29 31 33 34 38 41 42 44 46 49 50 51 48 44 40 38 37 37 36 36 32 29 28 24 23 20 21 23 27 28 26 25 25 27 25 22 25 25 26
22 24 26 28 30 33 35 37 37 35 39 43 46 48 49 46 40 37 37 35 35 34 34 31 29 28 24 23 22 22 23 25 27 25 21 24 26 27 24 21 22 22 22
22 24 27 29 31 33 36 38 41 44 46 46 46 47 43 37 34 34 35 33 31 29 29 28 26 23 22 22 21 23 23 25 24 18 21 24 25 26 23 19 21 22 21
24 26 28 31 33 35 37 40 42 45 47 49 46 40 37 32 30 32 32 32 30 28 25 23 22 22 21 21 22 23 24 24 20 19 21 23 25 25 21 19 18 19 19
25 28 30 31 33 36 38 41 44 47 47 43 39 37 35 33 32 30 31 29 27 25 23 21 21 21 22 23 22 22 21 18 15 18 22 24 23 23 20 17 17 17 16
27 29 31 32 35 38 40 44 46 46 41 37 36 35 34 34 33 32 29 26 25 23 21 20 21 22 23 23 21 20 18 16 18 22 23 22 21 19 17 16 16 16 15
28 30 32 34 36 39 43 46 44 39 37 36 35 32 31 31 30 30 26 24 23 22 21 20 21 22 22 22 20 18 18 19 21 22 21 20 18 17 16 15 16 15 13
29 31 33 36 39 42 44 42 38 37 37 35 33 31 30 29 28 28 23 22 20 19 19 21 21 20 20 20 19 21 22 23 23 23 21 18 15 14 15 15 15 15 13
30 33 35 38 42 44 40 37 37 37 35 33 32 30 29 27 27 24 20 19 18 18 19 19 20 20 19 17 18 20 22 23 23 21 21 18 15 13 13 14 14 15 13
33 35 39 42 43 40 37 37 37 35 33 32 30 28 27 26 24 19 18 17 16 16 17 18 19 18 17 17 18 18 19 20 20 21 19 16 14 13 14 15 15 15 13
36 39 42 42 39 38 37 37 36 33 31 29 28 26 24 22 19 15 14 14 14 15 16 18 18 17 16 16 15 16 17 17 18 18 16 12 12 13 15 18 18 17 14

GFSGL_700_spd_006.txt.gz
Wind_Speed
24 23 20 18 17 18 19 21 23 26 30 34 38 41 43 45 45 45 46 45 44 44 45 47 50 52 53 55 56 57 60 63 69 69 67 65 64 62 60 57 55 53 49
25 23 21 20 19 20 22 24 26 30 34 38 40 43 45 45 45 46 45 44 44 45 48 50 51 53 55 56 59 61 63 64 64 67 65 62 59 55 53 50 48 48 51
25 23 21 21 22 23 25 26 29 34 37 40 42 45 45 45 46 46 45 44 45 48 50 52 54 55 56 58 61 62 62 61 60 59 60 55 52 49 48 49 51 52 51
25 23 23 23 24 26 27 29 34 37 40 42 45 45 45 45 46 45 44 45 47 49 50 52 53 55 58 60 61 60 58 57 54 52 50 52 52 51 52 53 53 47 44
25 25 24 26 27 28 30 34 37 39 42 44 44 45 45 45 44 44 46 48 49 50 51 52 54 57 59 59 57 55 54 51 48 48 49 52 52 48 47 46 46 44 39
26 26 27 28 29 31 35 36 38 40 43 43 44 44 44 43 43 44 47 49 49 51 53 53 55 57 57 56 53 50 46 43 45 47 49 47 45 43 42 43 42 42 42
27 28 28 29 32 34 35 36 38 41 42 42 43 43 42 43 43 45 47 49 51 52 53 54 56 56 55 52 48 44 42 41 40 44 44 40 42 41 40 38 39 41 41
27 27 28 30 31 32 33 36 39 40 40 41 41 41 41 43 44 46 48 50 52 52 53 55 56 54 49 48 45 43 43 41 38 37 35 36 35 34 37 39 41 42 40
24 26 27 27 28 31 34 36 37 38 40 39 40 40 42 42 45 47 49 51 51 52 54 53 53 49 45 44 42 45 43 37 33 32 28 26 29 32 36 39 38 41 43
22 22 23 26 30 32 34 35 36 38 38 37 37 40 42 44 46 48 51 53 54 56 56 52 47 43 42 41 43 43 39 35 32 25 24 25 28 29 30 34 38 40 42
19 22 25 28 30 31 33 35 36 35 36 37 39 40 42 45 47 49 51 52 54 56 53 46 41 41 40 40 39 36 35 34 29 28 27 28 29 30 31 32 32 33 37
21 24 25 27 29 31 32 33 34 35 36 37 39 39 42 45 48 50 52 53 54 51 45 41 39 40 38 37 33 33 31 28 29 28 28 30 33 31 27 26 27 27 30
21 22 25 27 29 29 30 31 33 35 37 39 41 43 45 47 48 51 52 52 48 43 40 38 38 37 35 31 30 30 29 30 28 28 30 32 30 26 27 27 24 26 27
21 23 25 26 27 28 29 30 33 35 37 40 44 47 49 50 52 53 51 47 43 40 39 38 36 34 31 30 27 25 27 27 28 31 31 29 25 25 27 27 25 28 28
22 23 24 25 25 27 29 31 33 37 41 45 47 49 52 53 53 51 47 43 40 39 38 35 33 30 28 25 22 23 24 25 28 29 28 24 23 25 25 26 26 27 29
21 22 22 23 25 27 29 31 35 38 40 43 46 49 52 50 46 44 41 38 37 36 34 32 30 29 26 25 24 22 23 26 27 26 21 25 26 27 28 25 25 27 27
18 20 21 23 25 28 31 34 34 34 39 43 47 49 46 42 40 39 37 36 34 34 30 30 28 26 24 23 24 25 26 27 26 21 22 26 29 28 28 26 24 25 23
18 20 22 25 28 31 33 36 38 41 43 44 44 41 39 38 37 36 36 33 31 27 28 27 24 23 23 24 25 25 24 23 20 20 23 27 29 28 28 25 23 24 23
19 22 25 28 31 32 35 37 40 42 45 46 41 38 38 36 34 32 32 32 30 27 25 23 22 22 23 24 23 23 23 21 20 22 24 27 27 27 25 24 23 23 23
22 24 27 29 31 34 36 39 41 44 44 40 39 40 38 36 33 30 29 29 27 25 22 20 21 22 23 23 22 21 19 19 21 24 24 26 26 25 24 23 22 22 20
24 27 29 31 33 36 38 41 44 43 40 39 39 38 37 35 32 31 29 27 24 22 20 19 21 22 22 22 21 19 20 21 23 25 25 25 24 22 21 21 21 20 20
26 28 30 32 34 37 41 43 42 40 39 39 38 35 33 31 29 28 27 23 22 20 19 20 21 22 22 22 20 20 22 24 26 27 25 23 21 19 19 19 19 20 19
27 29 32 35 37 40 42 41 39 39 38 38 37 34 31 28 26 25 23 19 18 18 19 21 20 19 20 19 19 21 23 25 27 26 24 21 20 19 19 19 19 18 17
29 31 34 37 40 42 41 39 39 39 38 36 34 31 29 26 24 22 18 16 16 17 19 19 20 20 19 18 17 19 22 24 24 23 22 22 21 20 20 19 18 17 16
32 34 37 39 41 40 40 40 39 38 36 34 32 29 26 23 20 18 14 14 15 16 17 18 19 18 18 16 16 18 20 21 22 21 20 19 19 19 19 20 18 17 16
34 36 39 40 40 40 40 40 38 36 34 31 28 25 21 17 15 11 10 12 14 15 16 18 17 16 16 16 17 18 19 20 19 17 16 17 19 20 21 20 19 19 19

GFSGL_700_spd_009.txt.gz
Wind_Speed
27 25 25 25 24 21 19 19 20 21 23 27 30 34 37 40 43 43 44 43 43 43 43 44 45 46 47 49 50 51 53 55 63 65 63 61 60 58 54 50 48 47 46
27 27 27 26 23 21 20 21 22 24 27 30 34 37 40 43 44 45 44 44 44 43 43 44 45 47 48 49 50 51 54 55 59 64 61 57 55 52 48 45 43 42 41
29 28 27 25 22 21 21 23 24 27 30 34 37 40 42 44 45 46 45 44 43 44 45 46 47 49 50 50 51 53 55 57 57 58 57 52 51 47 45 44 43 40 39
29 28 27 24 22 22 23 25 27 30 34 37 39 41 43 44 44 44 45 43 43 43 45 47 49 50 50 52 54 55 56 56 53 50 49 50 48 45 43 43 43 37 35
30 28 26 24 23 24 25 27 30 34 37 39 40 42 43 43 43 43 44 44 44 44 46 48 50 50 51 53 55 54 53 51 48 45 48 48 43 42 42 42 39 35 34
28 27 25 24 25 25 27 30 34 36 37 39 40 42 42 42 42 42 43 44 45 47 49 49 50 50 52 53 52 50 47 44 42 45 48 43 41 41 39 36 39 39 35
25 24 24 24 25 27 30 33 34 35 37 39 41 40 41 41 41 42 43 45 46 48 49 50 52 53 53 52 48 44 43 39 38 42 41 37 39 35 37 37 36 39 39
23 23 23 24 26 29 31 32 33 34 37 38 39 39 39 40 40 42 44 46 48 49 50 51 53 53 50 47 44 42 40 37 36 34 33 31 31 34 36 39 41 44 41
21 21 22 25 27 28 29 30 33 35 35 37 37 38 38 39 41 43 45 47 49 51 52 51 52 49 44 41 41 41 39 34 30 29 26 26 28 31 35 40 40 42 38
18 20 22 23 24 26 28 31 32 33 34 34 35 36 38 40 42 44 47 50 52 54 54 50 44 41 38 37 38 38 36 32 28 21 23 24 27 30 32 34 35 36 38
16 19 20 21 24 26 28 29 31 32 33 33 34 36 38 42 43 45 47 51 54 53 49 43 38 37 36 35 35 33 33 30 25 24 23 26 30 31 27 28 30 32 32
16 17 20 22 24 25 28 29 29 30 31 32 34 35 38 41 44 47 50 51 49 46 42 37 36 36 34 33 31 30 28 27 26 25 27 29 30 26 24 26 27 26 27
16 19 20 21 24 25 26 27 28 30 31 34 36 38 39 41 45 48 48 44 43 41 38 36 35 33 32 29 28 27 27 28 27 28 29 29 26 23 25 27 24 24 23
17 18 20 22 22 23 24 26 28 31 34 36 38 41 43 46 48 47 44 42 40 39 38 35 33 31 30 27 24 25 26 26 28 30 30 26 23 24 26 29 28 26 25
17 18 19 19 21 22 24 26 30 33 36 39 41 45 48 48 45 44 43 42 41 39 37 34 30 27 24 22 22 22 24 27 28 27 24 23 24 27 26 28 28 26 27
16 16 17 19 20 23 25 29 32 34 37 40 43 46 46 44 42 42 41 39 37 35 33 30 27 25 24 23 24 24 25 25 24 22 21 25 29 30 29 27 27 27 26
14 15 17 19 22 24 27 29 29 33 37 41 44 44 41 39 39 40 39 35 33 32 29 27 25 23 23 24 25 25 24 23 21 21 24 27 30 30 29 28 28 27 25
14 16 19 21 24 27 29 32 36 38 39 38 39 38 36 36 37 37 36 32 28 27 25 24 22 22 23 24 24 23 22 21 21 24 26 28 30 29 28 28 28 28 27
15 18 21 23 26 29 32 36 38 40 42 42 39 36 36 35 35 33 31 30 27 22 21 20 21 22 22 22 22 21 21 22 24 25 26 27 27 27 26 26 26 26 27
17 20 23 26 29 32 35 38 39 41 40 38 38 38 38 36 32 28 26 25 24 20 18 18 19 20 20 20 20 19 19 20 23 25 25 26 26 26 25 26 27 27 26
21 23 26 28 32 35 37 39 41 40 39 38 38 38 37 35 31 28 26 23 20 17 16 17 18 19 20 20 19 18 19 22 26 27 27 25 24 24 25 25 26 26 24
23 25 28 31 34 37 39 41 41 40 39 39 37 34 32 30 28 26 22 20 17 17 16 16 17 19 21 21 19 19 21 24 25 26 25 24 24 26 26 25 25 24 22
25 27 31 34 36 38 40 40 40 40 38 37 35 32 29 26 24 21 18 14 14 15 16 17 17 18 19 19 19 20 22 25 25 26 23 22 24 25 25 26 27 23 19
27 30 33 36 38 39 40 39 39 39 37 34 31 28 26 23 19 16 13 11 13 15 15 16 17 18 18 17 18 20 22 24 24 22 22 25 26 25 24 24 24 21 19
30 33 35 37 38 39 39 39 38 37 34 32 28 25 21 18 14 11 8 10 11 12 14 16 17 17 17 17 18 19 20 20 21 20 20 22 23 23 21 21 21 20 19
32 34 35 37 38 39 39 38 36 34 31 28 24 20 16 12 8 5 6 9 11 12 14 16 16 17 17 18 18 19 19 19 17 18 20 21 21 21 20 20 21 20 19

GFSGL_700_spd_012.txt.gz
Wind_Speed
27 28 29 33 28 28 27 25 24 22 22 22 24 27 31 35 38 41 43 45 45 44 46 45 45 45 45 47 49 52 54 56 61 62 60 59 59 58 56 52 52 51 45
26 28 31 28 28 27 26 25 24 23 23 25 27 31 35 38 41 42 45 46 45 45 45 45 45 45 47 49 51 53 54 55 58 63 59 57 55 52 51 51 50 45 40
26 29 30 29 28 28 27 25 24 24 25 27 30 35 38 41 43 44 46 45 45 45 45 44 45 47 49 51 52 53 54 56 56 58 59 53 51 50 50 48 45 42 40
26 29 28 28 28 28 26 25 25 26 27 29 35 38 40 42 43 46 46 46 45 44 43 45 47 49 50 52 52 54 55 56 54 52 51 50 50 48 47 45 45 37 34
28 29 28 28 28 26 24 25 27 27 28 34 37 39 40 42 44 45 46 45 44 43 45 46 49 50 51 52 53 53 53 50 47 45 46 49 48 45 43 42 39 37 32
30 27 26 27 27 25 25 26 27 29 33 35 37 39 40 43 44 44 44 43 43 45 46 48 49 51 52 52 51 48 45 43 41 42 45 48 42 41 39 35 38 37 38
28 23 26 26 24 24 24 27 28 32 34 35 36 39 41 42 42 42 41 42 44 46 48 49 51 52 52 49 46 43 40 39 39 41 42 39 39 34 36 35 35 40 43
24 24 23 23 22 23 25 27 31 32 33 35 37 39 40 40 39 40 41 43 45 47 48 49 50 48 46 44 43 41 40 39 37 36 36 34 30 33 34 37 40 42 39
21 20 20 20 21 23 26 29 29 30 33 35 37 38 38 38 38 40 43 45 46 48 48 45 44 45 44 41 40 40 40 36 33 32 30 28 28 29 33 38 37 40 38
17 17 17 19 22 25 25 26 28 31 33 35 36 36 36 37 39 41 43 45 48 47 46 45 44 42 39 37 38 38 37 33 31 25 26 26 27 29 32 32 33 36 38
15 16 18 19 20 22 24 27 28 30 32 33 34 34 37 38 40 42 44 45 45 45 45 43 40 39 37 36 35 34 34 32 28 28 25 26 29 31 28 27 30 33 34
14 15 16 17 20 23 24 26 29 30 31 31 32 35 37 39 41 42 43 42 42 43 42 39 37 36 35 33 32 30 29 29 29 28 28 29 30 26 24 27 29 30 31
12 14 17 18 20 22 25 27 27 28 30 32 33 35 36 39 40 41 39 39 40 40 38 35 34 33 31 29 28 27 28 29 30 30 30 28 25 24 26 30 29 30 29
14 14 16 19 22 23 24 25 27 29 31 33 35 37 38 39 41 40 39 40 40 38 35 33 30 29 28 26 25 26 28 29 30 30 28 26 25 26 28 31 31 30 27
13 15 18 20 21 22 23 25 28 30 32 35 37 39 41 42 41 41 40 39 39 36 33 31 29 26 24 23 24 26 27 27 26 25 25 27 29 31 30 30 30 29 29
15 17 18 19 20 22 24 27 29 31 34 37 39 41 42 41 41 40 38 36 35 33 30 29 26 24 23 24 24 23 24 24 24 24 26 30 32 32 30 28 29 29 29
15 16 17 19 21 23 25 27 30 33 35 38 40 40 40 40 39 38 37 34 32 31 28 25 23 22 22 23 23 24 23 22 23 25 28 30 30 30 30 28 28 29 27
14 16 17 19 22 24 27 30 32 34 35 36 39 40 38 38 38 37 35 31 28 27 24 22 21 21 22 22 23 22 21 21 23 26 28 29 28 29 29 29 29 30 29
15 16 18 21 23 26 30 32 35 37 39 40 38 36 36 34 32 32 30 28 25 22 20 20 20 21 21 21 21 21 21 22 24 26 26 26 27 28 28 29 30 29 29
16 18 20 23 26 29 33 35 37 39 40 40 39 39 37 34 29 26 25 24 21 18 17 18 19 20 21 21 21 19 19 21 24 25 25 25 26 27 28 29 29 29 26
17 19 22 25 29 32 35 37 39 40 40 39 38 37 36 34 30 26 22 19 17 15 15 16 18 19 21 20 19 18 19 22 24 24 24 25 26 26 26 28 28 28 26
19 22 25 28 31 34 36 39 40 40 40 39 37 34 32 29 26 22 18 15 13 14 14 15 17 18 19 19 18 18 19 22 23 24 23 24 25 26 26 27 28 27 26
22 25 28 30 33 35 38 39 40 39 39 38 36 33 28 23 20 16 13 11 11 13 14 15 15 16 17 18 19 21 22 23 23 23 23 24 25 26 26 27 26 25 23
24 27 30 32 34 36 38 38 38 38 37 36 31 28 23 17 14 10 8 8 10 12 12 14 15 16 16 17 19 20 22 22 22 21 23 27 27 26 25 23 22 22 21
27 29 31 33 35 37 37 37 37 35 34 29 27 23 17 13 9 6 5 7 9 10 12 13 14 16 16 17 19 21 20 20 20 21 21 21 22 21 20 19 19 20 19
29 30 32 35 37 37 36 36 33 33 29 25 23 18 12 7 4 3 5 7 9 10 11 13 14 15 17 18 18 19 18 18 19 21 22 21 21 20 19 19 19 19 19

GFSGL_700_spd_015.txt.gz
Wind_Speed
38 34 31 28 30 29 29 28 27 27 26 25 24 25 26 28 32 35 40 43 44 45 48 47 46 46 45 45 46 48 51 53 58 58 58 59 59 59 59 56 51 49 49
36 32 28 25 35 30 31 28 27 28 27 25 26 27 28 32 34 39 43 45 45 47 47 47 46 46 45 47 49 51 53 55 58 61 60 60 58 54 52 49 48 48 45
34 30 27 29 29 31 28 27 28 27 26 27 27 29 32 33 38 42 44 44 46 47 46 46 45 46 47 49 51 53 54 56 58 60 60 56 51 48 49 48 47 44 40
31 28 28 25 32 32 27 28 28 27 27 27 27 32 35 39 41 43 43 44 45 45 45 45 45 47 49 50 52 54 55 55 55 54 53 50 47 47 46 47 44 41 33
27 27 28 31 30 31 30 30 27 26 26 27 30 34 39 42 41 42 44 44 45 45 44 45 47 49 50 51 52 52 52 52 51 48 46 47 47 45 44 43 42 37 31
32 28 35 31 32 27 25 23 25 27 27 28 33 36 42 40 40 42 43 43 43 44 44 45 47 49 51 51 51 50 48 47 44 43 45 46 44 41 41 39 38 39 38
33 27 31 24 23 21 22 24 27 26 27 31 35 40 38 39 40 41 41 42 42 44 45 47 48 48 48 48 48 46 43 41 40 41 43 42 41 37 37 37 36 38 40
28 29 17 20 20 21 19 25 25 26 30 34 36 35 37 39 39 40 40 41 42 45 47 48 47 46 45 45 44 43 42 40 38 38 38 37 35 33 35 36 38 41 37
26 17 18 19 17 22 21 21 24 29 32 32 33 35 37 38 37 39 40 42 44 46 46 45 45 44 43 42 42 41 39 37 34 32 31 32 32 30 32 36 35 38 38
9 11 17 18 16 16 20 24 27 28 29 32 33 35 35 36 37 38 41 43 45 46 44 43 42 43 43 40 39 38 36 33 31 28 27 27 29 30 32 32 32 34 38
13 11 11 12 16 19 22 23 25 28 30 32 33 33 33 35 38 40 43 44 45 45 43 42 41 41 38 36 35 33 32 31 30 29 29 29 30 30 29 26 28 33 37
8 10 13 15 17 19 22 24 26 28 30 30 30 32 35 37 40 41 43 44 43 43 42 41 40 37 34 32 31 30 29 29 30 30 29 27 27 25 25 27 30 32 33
11 13 14 15 18 20 22 25 26 27 27 28 31 33 36 38 41 43 42 41 41 41 41 40 36 34 32 29 28 27 28 29 29 28 27 26 26 28 29 32 31 32 30
11 12 14 16 18 21 23 23 23 25 28 30 33 35 37 39 41 42 41 41 41 40 39 35 32 30 28 26 25 25 27 28 28 28 28 28 30 31 32 33 33 31 30
11 13 15 17 19 19 20 21 24 26 30 32 35 38 40 41 41 41 42 41 40 39 36 32 29 26 23 22 23 25 26 27 26 26 28 31 33 34 31 30 31 31 31
12 14 15 16 17 19 21 23 26 29 32 35 38 40 41 42 42 42 40 38 37 34 31 29 26 23 22 22 23 22 24 24 24 25 28 32 34 32 30 29 31 31 32
12 13 14 16 18 21 23 26 29 31 33 36 37 40 42 42 41 40 38 35 32 30 28 26 22 21 22 22 23 23 23 23 24 26 29 30 30 30 31 31 32 32 31
12 13 15 18 20 22 25 27 30 33 35 38 40 41 39 39 39 39 37 33 29 27 24 21 20 20 21 21 22 23 22 22 23 26 28 28 29 31 31 31 31 33 33
13 15 17 19 22 24 27 30 32 35 38 39 40 40 40 38 37 35 33 30 26 23 19 18 19 20 21 21 22 22 21 21 24 26 27 27 28 30 31 30 31 31 33
14 16 19 21 24 26 30 32 35 37 39 40 41 41 40 37 32 28 25 23 20 16 14 16 18 19 20 21 20 20 20 22 24 25 26 26 27 28 30 30 30 32 31
16 18 20 23 26 29 32 34 37 39 39 39 39 39 40 37 31 24 19 17 13 11 13 15 16 17 18 19 19 20 22 23 24 25 25 25 26 28 28 28 29 29 29
18 20 23 26 29 32 34 36 38 39 39 39 37 37 34 31 24 17 15 11 10 11 13 13 15 16 17 19 20 21 22 24 24 24 25 25 26 27 28 29 28 28 27
20 23 26 29 31 33 35 38 39 38 38 36 36 33 30 24 16 12 9 8 9 11 12 13 13 15 17 19 22 23 23 23 23 24 25 25 26 26 28 28 26 25 22
23 26 29 31 33 35 37 38 38 37 35 34 32 29 25 17 11 8 6 7 9 10 11 12 13 15 16 18 20 20 21 23 24 24 26 27 28 27 25 25 24 22 19
26 29 31 33 35 36 38 37 37 35 33 32 27 24 19 12 7 4 5 7 8 9 10 12 14 15 16 18 19 19 20 22 24 23 24 25 24 24 24 24 23 21 20
29 32 33 36 37 38 38 37 35 32 30 27 22 19 13 7 3 3 5 6 7 9 10 12 14 16 17 17 17 18 19 20 20 22 23 24 24 24 24 24 24 24 23

GFSGL_700_spd_018.txt.gz
Wind_Speed
47 45 37 35 34 34 32 33 30 29 30 27 27 28 28 27 27 28 31 34 38 43 46 46 46 47 46 45 43 44 45 48 54 54 55 57 58 58 58 58 55 51 48
41 39 37 36 35 33 32 29 29 28 26 28 29 29 27 27 29 30 33 37 43 46 47 47 47 47 46 44 44 46 48 50 54 57 56 57 57 55 54 52 48 47 46
36 37 36 35 35 28 28 33 26 27 28 29 29 28 27 28 30 32 37 42 47 46 47 47 47 46 44 44 46 48 50 51 52 55 57 55 52 50 48 46 46 43 40
32 34 33 33 29 28 34 34 31 28 28 28 27 27 27 29 33 37 40 45 45 46 46 46 45 44 45 47 49 49 50 50 51 53 52 50 47 44 43 44 41 39 35
30 32 33 33 33 33 31 25 26 26 24 25 26 25 28 34 36 39 43 43 44 45 45 43 43 45 47 49 50 50 51 52 51 50 47 45 42 40 39 40 38 36 29
30 33 33 30 41 30 34 30 21 21 23 24 25 33 32 35 38 41 41 42 43 43 41 42 44 46 47 47 47 48 49 49 48 45 43 42 39 37 37 36 36 39 38
28 30 31 37 26 41 20 26 18 22 21 29 30 31 34 37 39 38 39 41 40 41 42 44 45 46 46 46 48 48 46 42 40 40 40 37 37 34 36 37 34 35 37
25 26 33 28 27 15 14 12 15 25 26 24 29 33 36 36 35 37 38 38 39 41 43 45 46 46 46 47 48 46 41 37 35 34 33 33 33 34 35 38 38 40 36
24 28 28 26 12 10 15 16 17 19 23 28 31 31 32 33 33 35 36 39 41 42 43 44 45 46 47 46 45 42 37 33 31 29 28 30 31 32 34 38 36 37 36
22 15 4 4 5 8 10 13 19 23 25 26 27 29 31 32 33 35 38 40 42 44 43 43 43 44 43 41 40 39 35 31 28 26 25 26 29 30 30 31 32 37 38
9 10 5 5 5 8 15 17 18 21 23 25 27 28 29 31 34 37 39 41 44 44 44 43 40 40 39 37 35 33 31 29 28 28 28 27 26 26 26 28 31 36 39
9 8 3 3 9 11 12 16 19 21 24 25 26 28 31 34 36 39 41 42 44 45 44 41 40 38 35 32 30 28 27 28 28 28 27 25 25 25 27 29 30 31 32
3 2 4 6 8 12 15 18 20 21 23 25 27 29 32 35 38 40 41 42 43 43 41 39 37 34 31 27 25 26 26 28 28 27 25 24 26 29 30 31 29 30 30
3 5 7 10 12 14 17 18 19 21 24 26 28 31 34 37 39 41 42 42 42 40 38 34 32 29 26 25 23 24 25 26 27 27 26 26 29 31 30 31 32 33 33
8 10 11 12 15 16 17 18 20 23 25 27 31 34 36 38 41 43 43 42 41 39 36 32 28 24 20 20 21 23 23 25 25 24 26 29 31 31 29 30 32 34 35
9 10 13 14 14 16 17 20 22 24 28 31 34 37 39 42 43 43 41 39 38 35 31 29 24 21 19 19 19 20 22 24 25 24 26 30 32 32 32 31 33 33 35
11 12 12 13 15 17 19 21 24 27 30 33 35 38 41 42 43 43 42 38 34 30 26 23 19 17 17 18 20 21 22 24 24 25 28 30 32 32 33 33 33 33 34
10 11 13 15 17 20 22 25 28 30 32 34 38 40 40 41 42 42 41 35 28 23 21 18 15 16 17 19 20 21 22 23 24 26 28 29 30 31 32 33 33 33 35
11 13 15 18 20 22 25 27 30 32 34 37 39 39 40 40 41 39 35 28 21 16 14 13 14 15 17 18 20 21 23 24 26 27 27 28 28 30 31 32 32 32 33
14 16 17 19 22 24 27 29 31 34 36 38 39 40 40 38 35 31 23 17 14 11 10 12 14 16 17 18 19 21 22 24 24 25 26 27 28 29 31 31 31 32 30
16 17 19 22 24 27 30 32 34 36 38 38 38 38 38 35 30 20 13 11 9 9 10 12 14 15 17 18 19 20 22 23 24 25 26 27 28 29 28 29 30 29 29
17 19 22 25 28 31 32 34 37 38 38 37 36 34 32 28 21 13 9 7 7 9 10 12 14 15 17 19 20 20 21 22 23 25 26 27 27 26 27 28 28 29 28
20 22 25 29 32 33 35 38 39 38 37 36 34 31 27 23 14 8 6 6 7 9 11 12 13 15 17 18 20 21 21 22 24 27 27 26 26 27 28 29 29 28 27
23 26 29 32 34 36 39 40 39 38 37 34 31 27 23 17 9 5 3 6 8 9 10 11 13 15 16 18 18 19 20 22 22 24 27 29 30 28 28 28 29 28 27
26 29 32 34 37 39 41 41 40 38 35 31 27 23 19 11 4 2 3 5 7 8 10 11 14 15 16 17 17 18 19 19 21 22 23 26 27 27 28 30 30 28 28
29 32 35 38 41 43 43 42 39 35 31 27 23 18 14 6 1 1 3 5 6 7 9 11 13 15 17 17 17 17 17 18 19 20 22 24 26 27 28 29 30 30 29

GFSGL_700_spd_021.txt.gz
Wind_Speed
35 51 49 44 37 34 35 35 33 32 31 30 29 27 30 32 32 31 30 31 31 33 36 41 45 48 47 48 48 48 46 47 51 52 52 52 52 54 55 56 54 54 52
34 42 47 44 36 34 33 33 34 33 30 26 33 36 30 32 31 30 30 30 32 35 42 46 49 49 48 48 47 45 46 48 51 54 53 54 54 55 57 55 51 48 46
36 35 36 36 35 35 31 34 33 30 30 32 32 31 29 30 29 30 31 32 36 43 46 48 49 48 48 47 46 46 47 48 49 52 55 54 55 52 51 48 46 44 39
33 31 32 34 34 31 32 34 29 28 28 26 31 28 29 28 29 30 31 36 42 45 47 50 46 47 46 46 47 48 49 49 50 53 55 55 52 47 45 46 41 37 32
27 29 30 32 32 33 32 34 32 29 30 26 25 27 27 27 28 31 38 42 44 46 47 45 45 44 45 47 48 49 50 51 51 53 54 51 46 43 41 39 37 35 32
29 28 31 31 33 36 34 32 35 22 25 29 21 26 25 25 33 39 38 42 46 43 42 42 41 43 44 45 46 48 49 48 50 51 49 46 41 38 36 36 37 36 36
24 26 28 30 29 37 28 31 34 28 25 22 20 20 27 32 37 36 41 43 40 40 40 41 41 43 44 45 47 48 46 44 44 45 43 39 38 35 36 37 36 37 35
24 23 25 29 35 28 35 24 22 20 9 15 19 23 28 30 35 39 37 37 37 38 40 41 43 44 46 47 48 48 45 42 39 37 34 34 34 34 35 38 37 39 36
20 21 24 27 33 29 17 22 7 8 12 14 19 25 30 32 32 33 34 35 37 38 39 41 44 46 46 46 47 45 41 35 32 29 28 29 31 32 33 36 34 37 37
21 20 15 17 10 7 6 5 5 10 14 19 22 26 28 30 30 30 32 34 37 38 41 42 43 44 44 43 43 41 36 31 27 24 23 25 28 28 28 31 34 37 39
18 17 15 12 8 5 5 5 7 13 16 20 23 25 26 27 29 31 33 35 39 40 42 42 41 42 40 38 37 34 31 28 26 26 25 25 24 24 25 27 31 35 36
18 16 11 10 5 2 4 7 12 15 17 20 22 23 25 27 29 33 36 39 41 44 43 42 41 40 37 34 31 29 26 26 26 26 26 25 24 23 25 28 29 30 31
13 7 4 3 1 4 8 11 13 15 17 18 21 24 27 30 33 35 37 40 42 44 43 41 40 36 32 29 26 24 24 25 26 26 25 24 25 27 28 30 28 30 31
5 3 3 3 5 8 10 11 13 15 18 20 23 26 29 32 34 37 39 41 42 42 41 37 34 30 27 25 21 23 24 25 27 28 27 26 27 29 28 30 31 33 34
2 2 2 5 7 9 10 12 15 18 20 23 26 28 30 33 37 39 41 43 44 42 38 33 27 24 20 18 20 21 23 24 25 26 26 28 29 30 30 31 32 34 35
7 8 9 9 10 11 13 16 18 20 23 25 28 30 33 36 38 40 42 42 42 40 32 26 20 17 15 16 18 19 21 23 24 25 26 29 31 32 33 31 33 35 35
9 9 10 11 13 15 16 18 21 24 26 28 30 33 36 38 40 41 42 41 39 31 21 16 13 12 14 16 17 18 19 21 23 26 28 30 30 31 33 33 33 34 33
9 11 12 14 15 16 18 21 23 26 29 31 34 36 37 39 40 41 40 37 26 18 14 11 10 13 14 15 16 17 19 22 24 25 26 27 30 32 33 33 32 33 33
10 12 13 15 17 19 21 24 28 30 31 33 35 37 36 38 38 38 36 26 14 11 9 10 11 12 13 14 16 18 21 22 22 23 26 27 29 31 30 31 31 30 30
11 13 15 17 20 22 25 28 30 32 34 36 38 38 37 35 34 31 26 15 10 8 8 9 10 11 13 14 15 17 18 19 20 23 25 27 28 29 30 30 29 29 28
13 15 18 20 22 25 29 31 33 36 37 38 38 38 38 34 31 27 17 10 6 7 8 9 10 11 13 14 16 16 17 18 20 22 25 28 28 28 28 29 29 29 30
16 18 20 23 26 29 32 35 38 40 40 39 37 36 33 30 26 20 11 6 5 5 7 9 10 12 13 15 16 16 17 17 19 21 23 25 27 29 30 30 31 32 32
18 21 23 26 29 32 36 39 42 43 41 39 36 31 27 24 20 11 5 3 4 5 7 9 10 13 15 16 17 17 17 18 19 22 22 23 26 30 32 32 32 33 33
21 24 26 29 32 36 39 42 44 43 41 36 31 26 22 18 12 5 2 2 3 5 7 9 11 12 14 15 16 16 17 18 19 21 24 27 27 28 30 32 33 33 34
24 26 29 32 36 39 42 44 44 41 35 29 23 18 15 11 4 1 0 1 3 6 8 10 12 13 15 14 14 15 16 18 19 21 23 24 26 27 28 30 32 33 33
26 29 32 36 39 42 43 43 38 33 26 19 14 12 9 2 2 2 0 2 4 6 9 10 12 13 15 15 14 14 14 15 18 21 23 25 27 28 28 29 30 31 32

GFSGL_700_spd_024.txt.gz
Wind_Speed
29 33 38 39 44 43 43 41 38 37 36 34 35 36 34 33 32 35 40 31 35 32 37 36 37 39 43 50 52 53 51 52 54 53 53 52 53 52 52 53 56 58 58
27 31 33 36 38 43 42 41 38 37 35 35 37 35 34 34 31 33 31 28 36 34 37 37 40 44 49 52 54 51 50 50 51 54 55 54 53 53 56 57 56 54 53
31 33 33 33 38 41 38 39 36 35 35 34 37 31 32 38 37 33 29 31 34 35 38 39 45 49 51 54 52 50 49 50 51 54 56 55 56 55 56 54 54 49 45
31 32 36 32 32 36 39 39 36 32 32 36 36 40 39 36 27 27 31 33 34 36 39 46 48 49 53 50 50 49 50 51 52 53 56 58 57 53 52 52 48 42 40
30 32 35 28 30 33 38 36 33 35 38 35 34 33 33 31 32 26 26 29 34 39 46 48 48 49 47 48 49 50 52 52 53 55 56 56 54 50 47 43 42 39 36
27 30 26 27 27 30 29 36 33 35 40 35 42 35 30 29 30 26 25 32 40 44 43 47 44 45 46 47 48 50 51 53 53 53 53 52 47 43 40 40 40 40 38
28 30 26 28 29 29 32 34 38 41 41 37 36 30 25 25 23 24 31 34 38 41 41 41 42 44 46 47 49 50 51 48 47 48 48 44 42 40 39 39 38 37 35
24 22 22 23 20 29 30 35 37 27 30 30 22 15 14 18 22 25 30 36 36 38 39 40 42 44 46 48 50 50 49 46 45 44 41 38 37 36 37 38 37 38 34
21 21 12 16 22 25 32 26 17 14 13 10 9 11 16 20 25 29 31 33 34 36 38 41 43 45 47 47 49 50 47 42 40 36 33 32 34 34 35 37 34 37 37
8 12 14 16 14 12 12 16 15 8 7 8 11 15 18 22 25 27 29 31 34 36 39 40 43 45 46 47 47 46 42 38 33 28 26 27 30 30 31 33 35 38 40
18 16 17 14 15 13 10 7 4 5 7 9 13 16 20 23 25 28 30 32 35 35 38 40 43 45 46 44 42 39 36 32 26 26 25 25 25 27 28 29 33 37 38
23 20 17 14 11 8 5 3 1 7 9 12 15 18 20 23 26 29 31 33 35 38 40 43 45 45 42 38 34 31 28 25 25 25 24 25 27 26 26 29 32 33 35
17 14 11 8 5 3 0 2 6 9 11 13 16 19 22 25 27 28 30 35 39 41 44 45 44 42 37 31 27 24 22 23 23 23 24 25 27 27 28 30 31 33 33
8 7 6 4 2 1 3 4 7 9 12 15 17 20 23 26 28 31 35 37 40 42 45 43 41 36 29 22 19 20 21 22 23 24 24 25 27 29 30 32 33 33 34
5 5 6 5 5 5 5 7 10 12 14 17 21 24 27 30 32 35 37 39 42 44 43 40 32 23 18 17 17 18 19 21 22 24 26 28 29 30 30 31 32 33 34
5 6 6 6 7 8 10 11 13 16 19 22 25 28 30 32 34 36 38 41 42 42 40 32 19 14 12 13 14 15 18 19 21 23 25 28 30 30 30 29 31 33 33
8 8 8 9 9 11 12 15 18 20 23 26 28 30 33 36 37 38 39 40 40 38 29 17 12 10 11 12 13 14 15 18 19 21 24 27 29 28 29 30 30 32 31
6 8 9 11 13 14 16 18 21 25 28 31 33 35 37 39 40 40 39 37 34 28 16 10 9 10 10 10 12 13 15 17 18 20 22 25 28 28 28 30 31 33 33
9 10 11 13 15 17 19 23 26 29 32 34 36 39 39 40 40 38 36 31 25 15 10 9 9 9 9 11 13 14 15 16 17 18 21 23 25 27 28 30 32 32 33
10 12 14 16 18 21 24 27 30 33 36 39 40 40 39 38 36 32 29 25 15 9 8 8 8 8 10 11 13 14 15 15 16 18 20 22 24 26 27 29 31 33 32
12 14 16 19 21 24 27 30 33 37 40 42 42 41 38 33 29 25 21 14 7 6 6 7 8 9 10 12 13 14 14 14 16 17 19 22 24 25 27 30 32 34 36
13 16 18 21 23 26 30 34 37 41 43 42 40 35 30 26 22 19 14 6 4 5 6 6 7 9 11 12 12 13 13 13 15 17 19 21 24 26 29 31 34 36 37
16 18 20 23 26 29 33 37 41 43 42 39 33 26 21 17 15 12 4 3 4 4 5 6 8 11 13 14 14 13 12 13 14 17 20 23 25 28 32 34 34 35 36
18 20 23 25 28 32 36 39 42 41 37 32 23 16 12 11 8 2 0 2 3 4 6 8 10 11 13 15 15 14 13 13 14 18 22 27 30 32 34 34 34 34 35
20 22 25 28 31 34 38 40 38 35 30 21 13 9 8 4 1 2 1 2 4 6 8 9 11 13 14 15 15 14 12 13 15 18 23 28 32 33 33 34 35 34 33
22 24 27 30 33 36 38 36 33 28 22 13 9 6 2 2 3 2 1 3 5 8 10 11 12 13 15 16 15 14 12 12 13 18 23 28 33 35 35 35 35 35 34

GFSGL_700_spd_027.txt.gz
Wind_Speed
36 32 30 30 30 33 37 42 44 43 43 43 41 38 39 40 41 40 42 36 41 34 31 35 34 35 37 38 41 45 51 56 57 58 54 52 53 53 53 54 56 58 60
33 33 30 28 29 31 31 31 42 44 42 41 39 39 40 41 38 40 45 39 38 40 41 38 32 41 37 40 45 51 54 55 57 55 54 54 55 55 57 59 59 59 60
33 37 35 32 31 32 29 30 39 41 39 39 38 40 37 38 40 41 50 41 38 33 35 33 34 35 39 44 51 54 54 52 52 53 55 56 57 56 59 59 60 58 55
32 34 36 37 32 31 30 31 36 37 36 39 38 36 42 42 42 44 46 37 41 34 30 31 33 37 44 49 51 51 49 50 51 53 55 58 59 58 59 60 58 49 45
32 30 30 33 32 29 28 30 33 34 33 33 36 35 41 41 42 49 38 35 39 35 29 30 36 43 45 48 46 46 48 50 52 54 57 59 58 57 54 52 49 44 38
29 26 26 27 26 24 25 28 29 32 35 34 36 33 39 49 40 45 43 37 36 28 29 35 39 42 43 44 45 47 50 52 53 56 58 57 54 50 47 44 42 41 41
26 25 24 25 25 26 24 29 30 32 34 32 36 40 44 34 41 35 32 26 23 27 33 37 38 39 41 43 45 48 50 50 52 55 53 49 48 43 42 40 40 39 37
17 20 24 18 21 27 26 25 25 28 30 26 32 36 31 29 22 19 18 21 26 30 33 35 36 39 41 44 47 50 52 51 50 48 44 42 39 36 37 39 38 39 38
11 12 12 18 25 22 10 16 21 18 27 21 17 13 11 10 14 18 21 25 28 30 33 36 38 40 42 46 50 52 50 46 44 39 36 33 32 34 35 38 38 40 40
3 9 8 8 12 14 14 6 8 25 14 10 7 7 10 14 18 21 24 25 28 30 34 37 39 43 46 48 49 49 47 43 36 29 25 25 29 30 33 37 39 41 42
15 19 19 19 15 14 12 15 12 10 6 5 6 9 12 16 19 20 23 25 28 31 34 37 41 45 46 47 46 45 43 36 27 23 22 22 23 27 30 31 34 37 40
24 24 22 21 19 15 12 8 6 3 2 6 7 10 13 16 19 22 26 29 33 34 37 39 43 44 45 45 45 41 32 25 21 21 20 21 24 25 27 29 31 34 37
19 17 15 12 11 9 7 5 3 3 5 7 9 13 16 19 23 26 29 31 34 38 40 42 43 45 44 42 36 26 20 18 18 18 19 20 24 26 27 29 30 32 33
14 13 10 9 7 5 4 4 4 7 9 12 14 17 20 23 26 28 31 33 37 41 42 43 44 42 39 30 19 16 15 16 16 17 18 21 23 26 28 30 30 30 31
9 8 6 6 6 6 6 7 9 10 12 14 17 20 23 25 28 31 35 38 40 42 42 41 39 34 24 16 14 14 15 16 17 19 20 21 23 25 27 28 30 30 32
6 6 5 5 4 5 7 8 10 12 15 18 22 25 27 30 33 36 39 41 40 39 37 34 27 18 12 11 13 14 15 15 17 19 20 22 24 26 26 26 29 31 32
4 4 4 5 6 7 9 11 14 17 21 24 27 29 32 35 37 38 38 38 37 35 31 25 15 11 11 12 11 12 13 16 17 18 19 21 23 25 27 29 30 32 32
3 4 5 7 10 13 15 17 20 22 25 28 32 35 37 39 40 38 35 32 29 27 21 12 10 11 10 10 11 12 14 15 16 18 19 22 23 26 27 29 32 33 34
5 8 10 12 13 15 17 19 23 26 29 33 37 40 40 40 38 33 28 24 21 17 10 9 9 9 9 10 12 13 14 15 16 17 20 22 24 27 28 31 33 35 37
8 10 11 13 15 18 21 24 27 31 34 38 40 41 39 34 29 24 20 18 14 7 7 7 8 9 10 11 13 14 15 16 17 18 20 22 25 28 31 33 34 36 36
8 11 13 16 19 21 24 27 31 35 38 41 41 38 35 26 19 15 14 10 5 5 5 6 7 9 11 13 14 15 16 17 18 18 20 22 26 29 31 33 34 35 37
10 13 16 18 21 24 27 30 34 38 40 40 38 34 27 17 11 10 6 2 2 3 5 6 8 10 12 13 14 15 16 16 17 18 20 22 26 30 33 34 35 38 40
13 16 19 21 23 26 30 33 37 39 38 36 33 26 17 10 7 3 1 1 2 3 5 7 10 12 14 15 17 17 16 16 16 18 19 22 27 32 35 38 38 38 39
15 18 21 23 25 29 32 36 38 38 35 32 26 17 11 7 3 2 1 2 3 5 7 9 12 13 14 16 18 19 19 18 17 17 20 25 30 35 39 39 39 39 40
17 20 22 25 28 31 34 37 37 34 31 26 19 13 9 4 2 2 2 4 6 8 10 12 14 15 16 17 18 19 20 19 19 19 22 27 31 35 39 40 40 40 40
18 21 24 26 29 32 35 36 34 30 26 21 15 10 5 3 3 3 4 6 8 11 13 15 16 17 18 19 20 21 21 21 21 21 23 27 32 36 40 40 40 41 40

GFSGL_700_spd_030.txt.gz
Wind_Speed
42 42 40 37 35 31 29 31 34 36 35 39 40 40 39 43 40 38 39 39 42 46 47 47 44 43 35 40 39 36 38 42 44 47 52 51 50 48 48 50 52 54 56
40 43 42 39 35 30 27 28 31 33 35 38 40 39 39 41 41 41 39 40 44 46 44 50 51 39 44 40 41 38 37 42 47 50 49 49 48 48 51 53 55 56 58
40 38 32 31 32 31 29 28 30 31 34 37 42 42 41 39 41 41 41 45 39 46 46 53 43 38 41 40 39 37 39 45 47 48 47 48 49 50 53 55 58 57 55
37 45 36 27 27 30 29 31 30 31 33 35 39 40 38 37 41 39 39 45 53 41 53 46 46 41 38 39 35 38 43 45 44 45 47 49 51 53 55 57 59 54 49
33 39 27 23 28 29 30 28 28 28 30 32 33 33 37 37 37 40 45 39 40 48 44 41 38 38 33 32 38 40 41 41 43 45 48 50 53 53 54 55 52 47 38
26 25 27 26 25 27 27 24 24 24 27 27 28 30 27 34 32 38 37 38 48 45 40 34 31 28 31 35 37 38 40 42 44 48 50 51 52 53 52 48 44 40 38
24 19 22 23 23 23 22 20 21 20 21 23 27 25 34 32 33 38 35 34 31 33 29 26 28 32 33 35 37 39 41 43 47 49 51 51 52 48 45 40 37 37 35
10 19 13 14 15 16 16 18 19 20 16 23 20 26 26 29 30 26 22 25 22 23 22 28 31 31 33 36 39 41 43 44 46 48 48 47 44 39 37 36 34 34 36
3 6 5 4 10 14 14 12 20 21 32 20 13 17 18 18 14 12 13 16 19 22 25 29 32 33 35 38 42 45 46 45 46 45 43 39 34 31 32 32 32 36 37
4 3 0 8 10 7 10 19 9 10 6 6 8 7 8 6 8 12 16 18 21 24 29 32 34 35 38 42 45 47 47 47 44 38 32 27 26 27 28 31 34 37 39
19 16 11 12 15 13 14 15 18 16 12 8 5 2 3 6 11 13 15 19 22 26 30 32 35 39 42 45 46 47 47 45 37 28 20 20 21 22 24 27 32 35 37
24 24 24 23 21 19 16 14 12 10 6 4 2 4 6 9 12 15 19 23 26 29 32 36 40 43 45 45 45 45 43 36 25 17 17 17 17 19 22 26 29 31 33
18 17 17 17 15 13 12 10 9 7 5 4 7 9 12 15 18 22 26 29 32 35 37 40 42 44 44 43 42 39 30 19 15 15 15 15 17 18 22 24 26 28 27
15 14 13 13 12 11 10 8 6 5 6 7 9 12 15 18 21 24 27 31 35 39 41 42 40 39 38 35 28 20 15 14 13 13 13 15 17 18 22 25 25 26 25
10 10 10 10 9 8 7 7 7 7 9 10 13 16 19 22 26 30 34 37 39 39 39 37 35 31 27 19 13 11 12 11 12 14 15 16 18 20 21 24 26 27 30
8 8 8 8 8 8 8 9 9 10 12 15 18 22 25 29 33 36 38 39 39 36 32 26 23 17 11 10 11 11 12 13 15 16 17 18 19 21 22 24 27 31 32
5 6 6 7 8 8 9 10 12 14 18 21 24 28 32 35 36 37 36 33 28 22 19 16 10 9 10 9 9 11 13 15 17 18 18 19 21 23 25 27 30 34 34
4 5 6 7 8 10 12 15 18 21 23 26 30 33 36 37 36 33 29 23 18 14 10 7 7 7 7 9 11 12 15 16 18 18 19 21 23 24 27 30 33 36 37
4 5 7 9 11 13 15 18 20 23 27 30 34 36 36 36 34 28 19 13 11 9 5 5 5 6 8 9 11 14 16 17 17 18 19 21 23 25 28 31 34 35 38
5 7 9 12 14 16 18 20 23 26 30 35 37 37 35 33 28 20 13 10 5 3 4 4 5 7 8 10 13 16 17 19 19 19 19 20 22 25 28 32 36 38 36
6 9 12 14 16 18 20 24 27 30 34 37 37 35 33 28 20 13 10 5 3 2 3 5 6 8 11 13 16 18 20 20 20 19 19 20 22 25 29 34 37 37 38
8 11 13 16 18 20 23 26 30 33 37 37 35 33 30 23 15 11 7 4 3 3 4 6 8 10 13 15 16 18 19 20 21 21 20 21 23 27 31 35 38 40 41
9 12 15 18 21 23 26 29 33 36 37 35 33 30 25 18 13 9 6 5 4 4 6 9 11 14 16 18 19 20 21 22 22 23 22 22 25 29 32 36 41 43 42
11 14 17 20 23 25 28 31 34 36 35 32 30 26 21 16 11 6 5 5 6 7 9 11 13 15 17 19 20 21 23 24 24 25 25 25 27 30 34 38 42 44 44
13 15 18 22 25 28 30 33 36 35 33 31 28 23 18 12 7 5 5 7 8 10 11 13 15 17 19 20 22 23 24 25 26 28 27 28 30 32 35 38 43 45 44
14 17 20 23 26 29 32 35 35 33 31 28 24 19 13 8 6 6 7 8 10 12 14 16 18 19 21 22 24 25 25 26 27 28 29 29 31 33 35 39 42 44 44

GFSGL_700_spd_033.txt.gz
Wind_Speed
42 44 46 45 44 42 39 36 33 32 35 38 36 39 41 42 40 39 44 45 45 39 38 43 47 50 52 49 43 51 42 46 46 46 42 42 40 45 48 48 47 49 49
29 32 38 41 39 37 38 36 30 27 33 38 40 39 40 41 40 40 41 43 42 36 40 44 52 47 55 47 45 50 49 48 47 43 41 40 43 44 46 46 47 48 50
29 32 34 37 37 34 38 36 28 26 31 33 38 40 40 40 38 38 39 37 37 40 43 49 54 51 55 41 45 52 51 45 42 38 41 41 42 43 45 46 48 48 49
27 30 33 33 38 33 28 37 29 28 29 27 31 36 39 40 39 39 38 37 39 43 44 46 53 49 48 40 46 46 43 39 38 40 38 43 44 44 46 48 49 48 45
25 23 21 27 34 41 36 32 25 30 28 25 26 30 33 35 34 36 37 36 42 43 40 46 48 44 43 40 40 37 37 38 42 37 40 44 44 45 47 48 49 47 41
20 17 15 15 14 16 16 22 26 26 24 23 24 24 27 30 33 33 33 37 34 41 41 38 37 35 34 32 34 35 37 35 37 39 41 43 45 45 47 47 46 43 35
14 8 10 13 15 16 17 18 19 20 21 20 21 20 24 26 29 32 20 25 34 32 29 28 28 28 29 33 34 37 36 36 39 41 42 43 46 46 46 45 39 34 29
10 2 7 8 10 13 13 14 17 18 17 16 18 17 24 29 27 14 22 21 21 19 20 23 24 28 31 32 33 36 36 36 40 41 44 45 45 44 42 37 30 27 26
6 5 2 3 6 9 8 10 12 14 14 14 18 16 23 13 9 16 12 11 12 15 21 22 25 25 30 34 36 38 38 39 40 41 43 43 42 38 33 28 26 26 28
8 2 3 2 3 6 10 11 9 13 6 6 6 6 5 6 4 3 7 10 15 18 21 23 27 31 35 36 39 39 40 41 41 41 40 37 33 26 24 24 25 26 30
26 22 19 19 19 18 16 14 16 15 15 12 10 7 5 3 2 6 9 14 16 21 25 28 32 35 37 38 41 43 44 43 40 36 28 22 19 20 21 22 24 27 30
19 19 20 19 18 18 17 15 14 12 10 8 7 4 2 2 5 10 13 16 20 25 29 33 37 39 41 42 42 40 37 33 25 16 12 14 15 17 19 20 23 25 27
15 15 15 15 14 13 13 12 11 9 7 6 4 4 6 8 12 16 19 23 27 31 34 37 39 40 39 36 32 27 21 14 11 12 12 13 14 16 18 18 21 22 22
11 12 12 12 12 11 11 9 8 8 8 8 9 10 13 16 18 22 26 30 34 36 38 38 36 31 26 21 17 13 12 12 12 11 12 13 15 16 19 21 21 23 22
8 8 8 8 8 7 7 8 8 9 10 11 13 15 18 21 25 29 32 35 36 34 31 27 22 19 16 11 9 10 9 9 11 13 14 15 16 17 20 22 23 25 28
5 5 6 6 7 8 8 9 10 11 13 15 17 20 24 27 31 33 34 34 33 29 22 16 13 9 7 8 8 8 9 11 13 15 16 16 16 17 18 20 24 27 29
4 5 6 7 8 9 9 10 11 12 15 17 21 24 28 31 32 33 32 30 23 16 12 9 6 6 5 4 7 9 12 14 15 16 17 18 18 18 19 20 23 27 30
4 5 6 7 8 9 10 12 14 17 20 23 26 30 32 32 33 32 29 23 16 10 8 6 6 5 4 6 8 11 13 15 17 18 19 19 19 18 19 21 25 29 33
5 5 6 8 9 12 13 16 18 21 24 27 30 33 32 33 33 29 22 16 11 8 6 6 6 6 6 7 9 13 15 17 18 19 20 21 20 20 20 23 27 30 35
7 7 7 9 12 15 17 19 21 24 27 30 32 33 32 32 30 25 18 12 9 7 7 6 7 8 7 9 12 15 17 19 20 21 22 23 23 23 24 26 29 33 35
9 8 9 11 13 16 18 21 24 27 29 32 33 33 32 30 26 21 15 10 8 8 7 7 8 9 10 12 14 16 18 20 23 24 24 25 25 26 27 29 32 35 38
10 10 11 13 15 18 21 23 26 29 31 33 33 32 31 28 23 18 13 8 7 7 7 8 9 12 14 15 17 18 19 22 23 24 25 26 27 28 29 31 34 37 39
11 11 12 14 17 20 23 26 28 31 33 32 31 30 28 25 20 15 9 6 6 7 8 10 12 15 17 19 20 21 22 24 25 26 27 27 27 28 30 32 35 37 39
12 13 14 16 18 22 25 28 30 32 33 32 31 28 25 22 17 10 7 6 7 8 11 13 14 16 18 20 22 24 26 27 28 28 29 30 30 30 31 32 35 37 40
14 14 15 17 19 23 26 29 31 32 32 30 28 25 21 17 11 8 8 8 10 12 13 15 17 18 20 21 23 25 26 27 28 29 30 30 31 32 34 35 36 38 41
16 16 16 18 21 25 28 30 32 32 29 28 25 22 18 13 11 10 10 12 13 14 15 17 20 21 22 24 25 26 26 27 28 29 30 32 33 34 34 36 37 40 43

GFSGL_700_spd_036.txt.gz
Wind_Speed
29 33 36 41 46 49 50 46 45 41 39 38 37 39 40 43 47 47 45 44 45 47 47 51 46 43 48 44 46 54 49 55 56 56 53 54 55 57 52 49 51 49 50
23 25 28 29 33 36 39 40 39 38 37 36 36 36 39 43 43 46 47 45 43 42 44 45 48 47 46 46 50 51 58 56 51 50 53 53 53 52 49 47 47 48 46
26 28 28 29 30 32 32 32 32 34 35 35 35 34 34 38 44 44 45 46 44 44 45 43 44 46 50 46 49 52 53 51 46 46 47 51 49 47 45 47 46 46 47
26 25 27 27 28 28 29 31 28 31 35 34 33 30 30 34 37 43 43 43 43 41 39 39 44 42 44 45 53 49 46 45 45 47 45 45 46 46 48 46 46 46 46
26 24 22 20 16 15 22 27 32 36 35 37 39 29 28 31 33 34 38 39 41 37 36 37 41 41 46 51 42 38 40 40 41 41 42 45 46 44 44 46 47 47 46
16 15 11 8 10 11 12 13 14 13 22 18 22 23 28 29 31 28 28 31 34 34 36 37 40 43 42 39 34 32 34 36 39 43 44 43 42 43 44 46 45 46 45
11 9 5 4 7 12 13 13 15 17 17 18 20 23 25 26 23 25 25 25 28 37 39 35 35 30 30 28 28 30 33 39 44 42 40 40 42 43 44 44 42 43 40
5 2 4 4 9 10 12 13 13 12 11 14 18 21 18 20 23 22 29 21 21 30 19 19 19 20 24 27 32 35 34 40 40 40 40 41 42 42 43 44 40 37 30
5 4 2 4 5 8 11 10 10 9 11 15 17 21 16 14 17 13 7 11 14 11 11 15 20 25 29 30 33 36 38 37 38 39 41 42 43 42 40 36 27 23 20
16 13 9 8 8 5 7 8 10 9 8 6 5 1 1 3 3 5 4 3 10 12 17 20 23 26 30 33 36 37 37 37 38 40 40 39 35 30 24 20 19 18 20
20 19 18 17 17 16 15 14 13 12 11 9 8 6 4 1 1 4 5 8 12 16 20 25 27 31 34 35 39 39 38 36 33 29 25 21 18 17 17 18 19 20 21
12 12 12 12 13 13 14 13 12 10 8 6 4 3 3 5 7 9 12 15 18 22 26 29 32 35 38 39 39 35 28 22 17 13 12 13 14 15 17 18 20 21 23
8 8 9 10 10 10 10 9 8 7 6 5 4 5 6 8 11 14 16 19 23 28 32 35 36 36 34 29 22 16 13 10 10 11 11 13 14 16 18 19 21 22 22
5 6 7 8 8 8 7 7 6 6 6 7 9 11 13 15 18 22 25 28 31 32 34 34 33 30 23 17 12 9 9 9 10 11 13 15 17 18 18 19 20 21 20
4 5 5 6 6 6 6 6 7 8 9 11 13 16 19 21 25 28 30 31 32 32 32 30 25 19 13 9 8 9 8 9 11 13 15 16 17 18 19 20 20 20 21
2 3 4 5 5 6 7 8 10 12 14 16 18 21 24 27 29 31 31 32 32 31 27 21 16 12 9 9 8 8 9 10 12 15 17 18 18 19 19 21 21 21 21
4 3 4 5 6 8 10 11 13 14 17 19 21 23 25 29 30 31 32 32 31 28 22 17 12 10 10 9 9 11 13 13 15 17 19 20 20 21 21 22 22 23 24
6 6 6 7 9 11 12 14 15 17 20 22 25 28 30 32 32 33 32 31 28 23 19 15 11 11 10 10 11 13 15 17 17 18 20 22 23 24 23 24 25 27 28
9 9 8 8 11 13 14 16 18 20 23 25 28 30 32 33 33 32 30 29 25 19 16 13 12 11 11 12 13 15 17 20 20 20 21 23 25 26 26 28 29 30 33
12 10 10 10 12 14 16 18 20 23 26 27 29 31 31 32 32 31 28 24 20 17 13 13 13 13 13 14 15 17 19 22 23 23 23 25 27 28 29 30 31 33 34
13 12 11 11 13 15 17 20 23 26 28 30 31 31 31 30 29 28 25 21 18 14 13 13 13 14 15 16 17 19 21 23 25 26 26 28 29 30 32 33 33 34 36
14 12 12 13 15 17 19 22 25 28 30 31 32 31 30 29 27 24 22 19 15 13 13 13 14 16 17 19 20 21 22 25 26 28 29 30 30 31 33 33 34 35 36
15 13 13 14 16 18 20 23 27 29 31 31 31 29 28 26 24 21 17 14 13 12 13 14 16 19 20 21 23 23 23 25 27 29 30 30 30 31 32 34 35 36 37
15 14 15 15 16 18 21 25 28 30 30 30 28 26 25 23 20 17 15 14 13 13 15 17 18 19 21 23 24 25 26 28 29 29 31 31 31 31 33 35 36 37 38
16 16 16 17 17 19 22 25 29 29 30 28 26 24 22 20 18 17 16 15 15 17 19 19 20 21 22 23 25 26 28 29 30 30 31 32 32 33 34 36 37 38 39
17 19 18 18 18 20 23 26 29 28 27 25 23 21 20 19 18 17 17 17 18 20 21 22 23 24 25 26 27 28 28 28 28 29 30 32 33 35 37 39 39 40 41

GFSGL_700_spd_039.txt.gz
Wind_Speed
24 24 25 28 31 36 40 44 47 48 48 48 47 45 45 44 43 43 43 44 49 49 49 48 50 52 52 49 53 55 47 44 43 45 49 54 56 52 54 50 54 54 56
21 22 24 25 27 29 29 30 32 34 37 38 40 41 39 40 41 41 42 42 42 45 47 47 45 46 48 52 53 52 47 40 43 42 47 52 54 52 44 48 48 50 51
19 20 24 27 28 28 28 28 28 28 28 30 33 34 37 38 38 37 36 39 42 41 41 43 44 43 42 44 43 47 52 41 50 45 48 53 49 45 48 48 47 48 47
19 23 25 25 24 25 23 25 26 28 28 29 31 31 35 31 33 36 39 42 39 39 39 37 41 43 42 43 44 46 48 46 43 41 42 41 42 43 44 44 46 47 50
19 23 21 18 20 24 21 18 17 21 21 27 32 34 36 36 37 38 41 34 33 32 35 35 36 40 41 39 44 38 44 43 44 40 37 37 38 41 43 46 48 45 44
18 16 17 15 17 18 14 14 14 16 17 17 15 17 23 26 37 28 29 31 30 31 29 29 33 39 38 34 36 40 41 39 34 33 35 38 40 45 44 43 45 46 45
12 13 12 12 12 12 12 13 14 14 15 16 17 19 19 20 24 28 28 26 25 26 24 29 34 34 35 28 32 33 32 31 32 37 40 39 40 41 43 44 44 45 42
12 9 8 11 11 12 11 12 13 15 16 13 15 17 19 21 21 20 22 27 19 23 22 27 29 29 27 31 28 26 31 33 35 38 40 39 41 41 43 44 41 38 32
9 5 5 8 12 12 9 9 11 11 9 9 13 15 18 18 18 15 12 13 15 15 12 15 16 20 21 24 27 30 33 36 38 38 41 42 40 38 36 31 26 20 14
15 15 15 16 16 15 12 10 7 11 11 11 7 8 10 9 8 5 4 5 8 7 11 15 19 22 25 28 32 35 36 37 40 41 37 32 27 23 18 14 13 12 14
10 12 13 13 14 13 14 14 12 10 9 8 8 8 8 8 8 8 8 10 13 15 17 21 24 29 31 34 36 38 36 36 32 27 22 17 13 13 13 13 14 14 15
7 8 9 9 9 9 9 9 8 7 7 8 8 9 10 11 12 14 16 17 19 21 25 28 31 33 35 36 36 34 30 24 19 14 12 12 12 14 14 15 17 18 18
6 5 5 6 5 6 7 7 7 8 8 9 10 11 13 15 16 17 20 22 25 27 29 30 32 33 33 31 28 24 18 13 10 10 10 12 13 15 17 18 19 20 19
4 4 4 5 6 7 7 8 9 10 11 13 15 16 17 19 22 24 26 27 28 29 31 31 32 30 27 23 19 15 11 10 9 10 12 14 16 18 20 21 21 22 21
5 5 5 5 6 6 8 9 10 11 13 15 17 19 21 22 25 28 29 31 32 32 33 32 30 26 22 18 14 12 11 10 11 11 13 16 18 20 21 23 23 24 24
7 7 7 7 7 7 9 11 13 15 16 18 20 22 24 26 28 29 30 31 32 33 32 30 28 24 19 14 13 13 12 11 12 13 16 18 20 22 23 24 25 26 27
10 8 8 8 8 9 10 12 15 17 19 21 22 24 26 28 30 31 32 33 34 33 32 30 26 22 18 15 14 13 13 13 15 16 18 21 22 24 25 25 26 28 29
12 11 10 10 10 11 12 14 16 19 21 23 25 27 28 30 31 32 34 34 33 32 30 28 24 20 16 16 15 15 16 16 17 19 20 23 25 26 27 28 28 30 31
12 12 12 11 11 13 14 15 17 20 23 25 27 28 30 31 31 32 33 32 31 30 27 24 21 17 16 15 15 17 18 19 21 23 24 25 27 28 28 30 31 31 33
13 13 13 13 13 14 15 17 19 22 25 27 29 30 31 31 31 31 31 29 28 26 24 21 17 17 16 16 18 18 19 22 24 26 27 28 30 31 32 33 34 35 35
14 15 15 15 14 15 16 18 20 23 27 29 30 30 31 30 30 30 28 26 24 23 21 18 16 16 16 17 18 20 22 24 26 28 29 30 32 33 33 35 35 36 37
14 15 17 16 16 15 17 19 21 24 27 30 30 30 29 28 28 26 24 22 21 20 19 18 18 18 18 20 21 22 23 25 27 29 30 31 32 33 33 34 35 36 37
15 16 18 17 16 17 19 20 22 25 28 30 30 29 28 27 25 24 22 21 20 20 19 19 20 22 22 23 24 25 25 26 28 30 32 33 33 33 34 35 36 36 37
16 18 18 17 17 18 20 21 23 25 28 30 29 28 26 25 23 22 22 21 21 21 21 21 22 23 24 24 25 26 27 29 30 31 33 33 33 33 34 35 36 37 38
18 19 18 16 18 21 21 22 24 25 28 29 28 26 24 23 22 21 21 21 22 22 23 23 24 24 25 26 27 29 30 30 31 31 31 31 31 32 35 36 38 39 40
18 20 18 20 21 22 22 23 24 25 27 27 26 25 23 22 21 21 22 23 24 24 24 25 25 26 26 27 29 30 30 29 28 29 31 33 35 37 38 38 39 42 44

GFSGL_700_spd_045.txt.gz
Wind_Speed
22 22 21 22 22 19 18 21 22 24 25 27 29 30 32 33 33 35 38 39 40 39 40 41 44 41 37 42 43 44 33 37 38 43 42 44 43 38 54 37 28 30 38
20 19 18 19 20 19 18 22 24 24 24 25 25 26 27 27 27 27 29 30 30 32 33 34 38 39 37 40 40 46 40 32 36 39 34 36 42 28 33 34 36 33 32
19 19 17 19 20 20 21 22 20 18 19 19 16 16 18 18 20 21 25 27 30 31 33 34 30 35 32 30 32 36 36 34 32 39 34 31 26 22 26 26 28 32 33
20 22 22 22 20 21 20 17 14 13 12 12 14 14 16 17 18 18 20 21 25 30 31 31 32 34 35 36 33 29 30 29 31 31 32 22 22 24 26 31 34 32 28
21 21 18 17 18 18 16 13 10 9 10 12 13 15 17 17 19 20 21 23 23 21 22 28 30 30 31 31 33 25 29 26 26 25 26 24 28 30 28 27 26 28 30
11 13 13 13 14 13 10 10 9 9 11 13 13 15 17 17 20 21 24 23 22 22 21 21 20 22 23 24 24 14 21 23 25 27 27 29 26 27 26 27 31 32 31
9 10 10 8 7 9 10 11 11 10 9 11 12 14 13 15 16 18 18 16 17 18 20 20 19 17 22 22 20 21 25 26 25 25 25 26 26 29 30 31 33 35 36
3 3 2 2 4 5 6 8 8 5 7 9 8 6 5 9 15 18 16 12 10 11 15 14 11 9 9 12 14 16 19 20 21 23 26 27 31 33 34 35 36 34 29
7 6 4 5 6 7 8 10 10 8 8 9 8 7 9 11 13 13 14 13 15 15 16 15 15 15 18 20 21 23 24 26 28 30 31 33 35 36 36 32 26 18 15
3 3 4 7 8 9 10 10 9 8 7 7 6 8 9 11 12 13 14 15 17 18 19 19 19 20 22 23 24 26 27 29 30 31 31 31 31 29 26 19 14 13 13
1 1 4 6 6 6 6 7 6 6 5 5 6 7 9 11 12 13 15 17 19 20 21 21 22 23 24 26 27 28 28 28 28 28 26 24 22 19 16 14 13 14 15
1 1 2 3 3 3 4 4 4 4 4 5 7 9 10 11 13 15 17 19 21 22 23 24 25 25 26 27 27 27 27 25 23 21 19 17 14 14 14 14 15 16 17
2 2 1 1 1 2 3 3 3 5 6 8 9 10 12 14 16 17 19 20 21 23 24 25 25 26 26 26 26 25 24 23 21 19 16 13 13 14 15 15 17 18 19
5 5 4 4 4 4 4 5 5 6 8 9 10 12 13 15 17 19 20 22 23 24 25 26 26 26 26 25 24 23 22 19 17 15 14 14 15 15 16 17 18 20 19
7 7 7 7 6 6 7 7 7 8 9 11 12 14 16 17 19 21 21 22 24 24 26 26 26 25 25 24 23 21 19 17 15 15 15 16 17 18 19 20 22 22 21
9 10 10 9 8 8 9 9 9 10 11 12 14 16 18 20 22 23 23 24 24 25 26 25 24 24 23 23 22 20 18 17 16 16 16 17 19 20 21 23 25 25 24
10 12 11 12 11 11 11 11 11 12 12 14 16 18 20 22 23 24 24 24 24 25 25 24 22 22 22 21 20 19 18 17 17 16 18 20 21 22 23 24 26 27 27
12 13 13 14 13 13 13 13 13 13 14 15 17 19 22 24 24 24 24 24 24 23 23 22 22 21 21 20 19 18 17 17 18 19 20 21 23 24 25 26 27 28 29
19 15 15 15 16 16 15 15 15 15 15 16 18 20 22 24 24 24 23 23 22 22 22 21 21 21 21 21 20 19 19 20 20 20 21 23 25 27 26 27 27 28 30
19 23 20 20 18 18 18 17 17 17 16 17 19 21 23 25 25 24 23 21 21 21 21 22 22 22 23 23 23 22 22 22 23 24 24 25 26 28 28 28 30 31 31
24 23 26 24 22 20 20 19 18 18 18 18 20 22 24 25 25 24 23 22 21 21 21 22 23 24 25 25 25 24 24 24 25 25 26 27 28 29 30 31 31 30 31
23 23 25 25 25 22 20 20 20 19 18 18 22 24 24 25 25 24 23 22 22 22 22 23 24 26 26 26 26 26 25 25 27 27 28 29 29 29 29 28 28 28 30
24 26 26 25 26 25 21 21 21 20 19 23 23 23 24 25 25 24 23 23 23 24 25 25 25 27 29 29 28 28 27 26 27 28 28 28 27 27 27 28 29 31 34
27 26 27 27 29 28 24 20 21 21 21 24 23 23 24 25 26 25 24 24 24 25 26 27 28 28 28 28 28 29 29 29 29 29 29 29 28 27 28 30 33 35 37
27 26 27 29 28 26 21 19 22 22 23 25 23 23 24 25 27 26 25 24 24 25 27 28 30 30 29 28 29 29 29 29 30 31 30 30 29 29 30 33 36 38 39
28 26 27 29 27 25 21 21 22 23 25 22 23 23 24 27 28 26 25 24 25 25 27 30 31 31 30 29 29 29 29 30 31 31 33 33 33 33 36 38 40 42 42

GFSGL_700_spd_048.txt.gz
Wind_Speed
27 26 26 27 25 24 22 22 22 23 23 25 26 27 27 29 28 27 28 29 31 32 34 33 33 33 33 33 35 39 42 43 47 44 45 46 43 37 35 41 31 32 32
26 24 24 24 22 22 20 22 21 22 25 26 27 26 25 24 24 23 23 23 25 27 28 27 29 31 33 33 31 34 39 39 44 46 37 43 30 21 29 25 34 29 26
26 24 24 23 20 20 20 21 22 25 26 23 22 21 20 19 19 19 20 21 24 22 21 25 29 31 31 28 29 31 35 37 37 39 30 32 32 26 18 21 17 22 26
24 24 24 23 24 23 22 21 22 21 19 18 17 16 15 16 18 19 21 21 22 21 22 23 24 24 24 26 29 31 36 35 34 29 31 25 27 19 18 21 24 27 28
19 19 22 22 21 19 20 19 17 16 15 15 14 13 14 14 16 17 20 22 23 23 22 23 24 24 23 24 23 25 20 25 24 29 27 25 26 23 23 26 25 26 27
11 11 12 14 15 15 14 13 12 12 13 14 13 13 12 13 14 17 20 22 21 19 20 20 26 20 21 19 22 25 18 21 23 25 27 33 27 27 26 26 26 26 29
7 8 8 8 9 10 10 11 12 12 13 12 13 12 9 8 4 5 9 10 8 7 8 13 12 10 11 10 12 15 15 19 22 25 25 26 27 26 27 29 29 30 31
2 0 3 3 4 4 5 6 7 6 7 8 7 2 1 2 3 5 7 7 8 9 12 14 14 14 13 15 19 21 21 22 23 25 27 29 31 32 33 33 34 35 35
2 3 4 4 3 3 4 5 4 3 4 4 2 1 1 3 6 7 7 9 11 13 14 16 17 17 18 19 21 23 24 25 27 29 31 32 33 34 35 34 33 32 29
4 3 4 5 5 4 4 4 4 3 2 1 1 2 5 7 8 9 10 11 13 15 16 18 19 20 21 21 23 24 24 25 25 27 28 29 30 31 31 28 25 22 17
5 4 5 4 3 3 3 3 2 1 0 2 4 6 8 9 11 12 13 14 16 18 19 20 21 22 24 25 25 27 27 27 28 27 27 26 26 25 23 20 16 15 15
6 6 5 4 4 4 4 3 2 1 3 5 7 8 10 12 13 15 17 18 20 21 22 22 23 24 26 27 27 27 27 27 26 26 26 24 24 22 19 16 16 16 17
7 7 7 6 6 7 6 4 4 5 7 8 9 10 12 14 16 18 19 20 22 23 24 24 24 25 26 26 26 26 26 26 25 25 24 23 21 20 19 18 18 18 18
9 10 9 7 8 8 7 7 7 8 10 10 11 12 13 15 17 19 21 22 23 23 24 24 25 26 25 25 25 25 24 24 24 23 21 21 20 19 20 20 20 22 21
11 11 11 10 10 9 10 10 11 11 11 12 13 14 15 16 18 20 22 23 24 24 24 24 25 25 24 24 23 23 23 23 22 22 21 21 20 20 21 22 23 24 24
12 12 12 12 12 12 12 13 14 14 13 14 14 15 17 18 20 22 24 24 24 24 23 24 24 23 22 22 22 22 22 22 21 20 20 20 21 22 23 24 26 27 27
14 12 13 14 15 14 15 15 15 16 15 15 16 16 18 20 22 24 25 25 24 24 23 23 22 22 22 21 22 23 23 23 22 22 21 22 23 23 24 25 27 29 29
13 13 12 14 16 16 17 18 17 18 17 17 17 18 19 21 22 24 25 25 25 23 22 22 22 22 22 23 23 23 24 24 23 23 23 24 25 25 26 27 28 29 30
19 18 18 16 17 18 19 20 20 20 19 19 19 19 20 22 24 25 25 25 24 23 22 22 22 23 23 24 24 25 25 25 25 25 25 26 27 28 27 28 29 29 32
21 23 21 18 21 23 23 22 22 22 21 21 20 20 21 23 25 26 25 25 24 24 23 23 23 23 24 25 26 27 27 27 27 27 27 27 27 29 29 30 30 31 31
29 29 25 24 23 26 27 26 24 23 23 23 22 21 21 24 27 27 26 25 24 24 24 24 25 25 26 26 27 28 28 28 29 29 28 28 29 29 30 31 30 30 30
28 28 25 26 27 27 28 28 28 24 24 24 24 23 23 27 27 27 27 26 25 25 24 24 26 27 27 28 29 30 30 29 29 29 28 29 29 29 30 30 30 31 31
32 31 30 25 29 30 29 29 30 27 25 24 25 24 25 27 27 27 27 28 27 26 26 25 26 27 29 30 31 31 30 30 29 29 29 29 29 30 30 30 31 32 33
32 34 31 32 31 30 30 31 32 31 26 24 25 26 25 27 27 27 28 29 28 27 27 27 27 28 29 30 31 33 33 32 31 31 32 32 31 31 33 33 33 34 35
28 30 32 33 31 31 32 31 30 28 26 23 26 27 27 27 27 28 30 31 28 27 28 28 29 30 31 31 32 31 31 31 32 33 33 32 32 32 33 34 34 35 37
30 31 31 32 32 32 30 27 27 28 25 24 27 29 29 28 29 32 33 30 28 27 27 28 29 32 32 31 31 30 31 32 33 32 33 34 34 33 34 35 37 39 41

GFSGL_700_spd_051.txt.gz
Wind_Speed
28 29 30 30 28 28 27 26 27 27 26 25 25 24 25 26 27 27 27 28 28 28 27 26 29 31 30 31 32 32 32 34 35 35 36 36 39 39 38 39 42 35 27
27 27 29 29 27 26 24 24 24 24 24 24 25 26 27 26 26 26 24 23 23 23 23 25 27 26 25 27 29 29 29 33 36 36 35 34 36 34 26 29 34 25 26
26 26 28 28 26 25 23 21 22 23 24 25 26 25 23 22 22 21 21 21 22 22 24 24 24 25 24 26 25 25 28 31 34 35 34 31 28 27 26 26 24 26 21
26 27 27 27 26 25 24 24 24 23 23 23 20 19 18 18 19 20 21 21 22 23 24 24 24 25 26 25 25 26 28 29 32 22 20 20 17 24 24 24 22 21 22
25 24 24 25 25 25 24 23 21 20 19 16 15 15 16 17 18 18 19 20 22 24 24 22 22 24 24 24 23 19 23 25 21 20 22 23 21 25 27 29 25 26 29
19 19 18 19 18 18 18 17 16 15 13 13 14 14 14 14 15 15 14 12 12 10 9 9 11 11 9 13 10 10 14 17 18 18 21 23 25 28 27 27 26 27 30
14 15 15 14 14 13 13 12 11 11 13 13 12 11 11 11 9 6 6 5 6 4 7 10 10 11 12 12 14 20 22 23 24 24 25 26 27 28 29 30 31 31 32
10 9 9 10 9 9 9 8 8 9 8 7 7 7 5 5 6 6 8 8 8 10 12 14 14 15 16 17 19 21 23 24 25 27 28 29 30 31 33 34 35 35 35
10 7 5 5 4 4 4 5 5 5 4 4 4 4 4 5 7 8 9 11 13 15 17 18 18 18 19 20 21 23 24 26 26 27 28 29 30 31 32 32 33 34 33
7 7 4 4 5 6 5 4 5 5 4 5 5 5 5 7 8 10 11 13 15 17 19 20 21 21 22 22 24 25 26 26 27 28 28 28 28 29 31 30 30 29 28
7 5 5 6 6 5 4 4 5 5 6 5 6 7 9 10 10 12 14 16 18 20 22 23 24 24 24 25 25 27 26 26 27 27 27 27 27 28 28 27 26 23 21
8 6 7 8 8 7 7 7 7 7 6 7 8 10 11 12 14 15 17 18 20 21 23 24 24 25 25 26 26 26 26 25 25 25 25 26 26 26 26 25 23 22 20
9 8 9 10 10 10 11 9 9 8 8 10 10 12 13 14 16 17 19 20 22 23 24 24 25 25 25 26 26 25 24 24 23 24 25 25 25 25 25 23 22 20 20
10 11 12 12 12 12 12 12 10 10 12 13 12 13 15 16 18 19 20 23 24 25 25 24 24 24 24 24 24 24 23 23 23 24 25 25 25 24 23 22 22 23 21
13 13 14 15 14 14 14 14 13 14 15 15 15 15 17 18 19 20 22 23 24 25 25 25 24 24 24 24 23 23 23 23 23 24 25 25 25 24 23 23 24 24 24
16 16 16 16 16 15 15 15 16 17 17 17 17 17 18 19 20 21 23 24 25 25 25 24 24 24 24 23 23 24 24 24 25 26 26 26 26 25 24 25 26 26 26
14 17 18 18 17 17 17 18 18 19 19 19 19 19 19 21 21 22 24 24 26 26 25 24 24 24 24 24 24 24 25 26 27 27 28 28 28 27 26 26 27 29 28
15 16 15 17 17 19 19 20 19 20 20 21 21 22 22 22 23 23 24 26 27 26 26 25 25 24 25 25 26 26 27 28 29 29 29 29 29 29 28 27 29 30 31
24 20 21 23 23 19 19 21 21 22 22 23 23 24 24 24 25 24 25 27 27 27 26 26 25 26 26 26 27 27 27 29 30 31 30 30 30 31 29 29 29 31 33
31 29 28 27 24 23 22 23 25 27 26 26 25 26 26 26 26 26 26 28 28 27 27 26 26 26 27 27 27 28 29 31 31 32 31 31 31 31 30 30 31 31 32
34 36 37 37 28 29 28 27 26 28 29 29 29 28 28 27 27 27 27 28 28 27 27 28 28 28 28 28 28 28 29 30 32 33 32 31 32 31 32 32 32 32 33
34 34 38 35 36 34 32 32 30 31 31 31 31 30 29 28 27 27 27 28 28 28 28 29 30 30 29 29 29 30 31 31 32 33 32 31 31 32 33 33 34 34 34
33 33 35 35 35 32 33 32 31 32 32 32 32 33 31 27 27 27 28 29 29 29 29 31 29 29 30 30 31 32 32 31 32 32 32 32 31 32 34 35 35 35 35
30 32 33 30 35 36 31 32 34 33 32 32 33 33 31 27 29 29 29 30 33 35 35 32 28 29 29 29 31 33 34 34 33 33 33 33 32 32 34 34 34 34 34
32 32 30 30 30 32 35 35 35 33 32 30 30 31 31 29 26 29 32 35 36 33 32 29 27 30 30 29 31 33 33 34 34 33 33 33 33 33 33 34 34 36 36
28 29 30 32 34 33 32 32 32 31 28 25 27 30 31 28 27 32 35 34 32 31 29 27 28 31 30 31 33 33 34 33 33 34 35 36 36 36 38 40 40 40 40

GFSGL_700_spd_054.txt.gz
Wind_Speed
28 29 31 31 32 32 32 31 30 30 28 27 26 25 24 23 23 25 26 27 28 29 30 28 27 26 25 27 25 26 28 30 30 29 30 32 32 31 31 29 31 27 25
27 27 29 30 30 31 30 29 28 26 25 24 23 23 23 24 25 24 23 23 22 22 23 21 22 24 25 24 24 25 27 27 26 26 29 33 31 30 25 22 22 25 23
26 26 27 29 28 28 28 27 26 25 23 23 24 23 23 22 20 19 18 18 18 19 20 22 24 24 25 24 25 25 25 25 26 30 31 26 19 22 19 20 20 22 23
25 27 27 27 28 28 27 26 25 24 24 23 22 21 19 16 15 15 16 17 18 19 21 23 25 26 26 26 26 24 24 22 20 20 21 21 20 20 20 22 22 24 25
23 25 26 26 26 26 25 25 24 23 22 20 18 17 14 14 14 14 15 16 17 18 19 19 17 16 18 18 16 16 14 12 16 20 21 22 23 21 20 21 22 23 23
21 21 22 22 22 21 20 20 20 19 18 16 14 13 13 12 12 12 12 9 9 9 8 6 8 11 13 13 13 14 16 19 22 23 24 24 25 25 25 26 26 26 28
19 18 18 18 17 17 16 15 15 15 13 13 13 12 11 11 9 6 6 7 8 9 9 10 13 14 16 17 19 20 20 21 23 24 24 25 26 26 27 28 28 29 29
17 15 13 13 13 13 13 13 12 13 13 10 9 9 8 5 5 7 8 9 10 11 12 13 15 16 18 19 21 22 22 23 24 25 26 26 26 27 27 27 28 29 29
14 13 12 9 8 8 9 10 10 9 8 8 6 5 5 6 7 8 10 11 12 14 15 17 18 19 20 21 22 23 24 24 24 24 25 26 26 27 26 26 27 28 28
12 11 8 7 7 6 6 6 7 8 8 6 6 6 7 7 8 10 12 13 15 17 19 20 20 21 22 21 23 23 24 25 25 25 24 25 24 25 26 26 26 26 27
11 10 8 7 6 6 7 7 7 7 6 7 7 8 9 10 10 11 14 17 18 19 21 22 23 23 23 22 22 23 24 25 24 24 25 24 24 25 25 26 27 27 26
11 10 9 8 8 8 7 8 7 6 7 8 9 10 11 12 11 13 14 17 20 21 22 23 24 24 23 23 23 24 24 24 24 24 23 24 25 25 26 26 26 25 24
12 12 11 10 10 9 8 10 9 9 10 11 12 12 13 12 13 16 16 17 19 21 23 24 24 23 23 23 23 23 24 24 24 23 24 24 25 25 25 25 25 23 23
14 13 13 12 11 10 11 12 12 12 13 14 14 15 14 15 16 18 19 19 19 21 23 23 23 23 22 22 23 23 23 23 23 24 25 25 25 25 25 25 24 24 22
15 15 15 14 13 13 13 14 14 15 16 15 16 16 16 17 18 19 20 21 21 21 23 24 24 24 23 22 22 22 23 24 25 25 25 26 27 26 26 26 26 24 23
14 16 16 16 15 15 16 17 17 18 17 18 18 18 18 19 20 21 22 22 22 22 23 24 24 24 24 23 23 24 25 25 26 26 26 27 28 28 27 27 28 28 26
14 15 16 16 17 19 19 19 20 20 20 20 20 21 21 21 21 22 23 23 23 24 25 26 25 25 24 24 24 25 27 27 27 27 28 29 29 29 29 28 29 30 29
16 15 15 17 18 20 20 21 21 21 21 22 23 23 23 23 24 24 25 25 25 25 27 27 26 25 25 25 26 26 27 28 29 29 30 30 31 31 29 29 30 30 31
26 27 24 21 22 22 23 23 21 22 22 24 24 25 26 26 27 27 27 26 26 27 27 27 26 26 26 27 28 28 28 28 30 31 31 32 32 33 31 31 31 31 32
27 28 29 28 30 29 28 27 25 24 25 26 27 29 29 29 29 30 29 27 27 27 27 28 28 27 27 28 29 29 29 29 30 32 32 32 33 33 32 32 32 32 32
29 29 31 33 35 35 36 33 29 31 32 29 27 29 31 31 32 31 30 29 27 28 28 28 29 30 30 32 29 29 29 29 31 33 33 33 34 33 33 34 34 34 34
23 26 31 34 36 32 32 36 37 37 36 36 32 29 31 31 34 33 34 31 29 29 30 32 35 36 34 33 29 29 29 30 32 34 34 34 33 33 34 34 34 34 34
27 28 29 34 33 33 36 34 34 35 34 33 32 32 34 33 33 34 33 32 29 33 32 33 34 32 33 31 28 29 30 31 33 34 34 33 32 33 33 33 33 33 34
32 33 33 33 32 31 33 30 31 33 34 33 33 35 34 31 30 32 34 32 31 30 29 33 32 31 29 28 28 30 31 32 34 35 35 35 33 33 34 34 33 34 35
23 30 34 33 31 32 30 30 30 31 32 34 35 32 29 29 30 31 31 31 29 26 29 32 32 30 29 28 28 29 30 33 35 36 36 35 34 34 34 35 35 36 37
23 22 25 30 30 29 30 31 32 32 31 30 29 29 27 25 25 26 27 25 25 26 28 29 29 30 29 28 30 30 32 34 36 37 37 37 36 36 37 38 38 40 39

GFSGL_700_spd_057.txt.gz
Wind_Speed
30 29 30 30 31 31 31 31 31 32 31 30 28 26 25 24 23 22 22 23 24 24 24 24 25 25 24 22 22 25 25 24 24 25 23 22 23 24 22 19 20 19 21
25 27 29 30 30 31 31 30 30 30 29 27 25 23 22 22 22 22 23 21 20 20 20 20 20 20 21 22 23 24 25 25 24 23 23 25 26 20 19 20 17 17 19
24 25 27 28 29 30 30 30 30 30 28 26 23 22 22 21 21 20 17 16 15 16 17 17 18 19 21 22 23 24 25 24 23 21 17 16 14 15 16 18 16 19 20
22 23 24 27 28 29 29 29 29 29 27 25 23 23 20 19 16 14 13 13 14 15 16 17 18 18 18 17 18 19 18 17 15 12 15 18 18 19 19 19 18 19 19
21 21 22 24 25 26 27 26 26 25 25 23 22 21 18 14 12 12 12 12 12 11 10 9 8 7 8 10 11 11 10 10 14 17 19 20 20 19 19 20 20 20 21
21 21 21 22 22 22 23 22 22 22 22 21 19 16 13 12 11 10 10 7 4 4 5 5 8 8 11 12 13 14 15 16 17 19 20 21 20 20 21 22 22 22 23
20 20 19 20 20 19 18 17 17 17 16 16 14 12 11 10 10 8 5 4 5 6 7 9 11 13 14 15 16 17 17 18 19 20 22 23 23 22 22 22 23 23 23
19 18 17 17 15 13 14 14 13 14 14 13 11 11 10 9 8 7 6 5 6 8 11 13 14 15 17 18 20 20 20 21 21 22 23 23 23 22 23 23 23 23 23
18 17 17 16 13 10 8 10 11 12 11 10 10 9 8 8 7 5 6 8 9 10 12 14 16 18 19 20 21 21 21 22 22 22 22 22 22 22 22 23 23 23 23
17 15 14 13 10 9 6 6 7 8 8 8 8 8 8 6 6 7 9 10 12 13 14 14 16 18 19 20 22 22 22 21 22 21 21 22 22 22 22 22 23 24 24
16 14 12 9 8 7 5 5 6 7 7 6 8 8 7 7 7 10 11 12 14 14 15 16 18 18 19 19 20 21 21 21 21 21 21 22 22 23 23 23 24 24 25
15 14 12 11 10 9 7 7 6 7 8 9 9 9 9 8 11 11 13 14 15 15 15 17 19 20 20 19 19 20 20 20 20 20 21 21 22 23 23 23 24 25 26
16 14 13 12 11 10 9 9 10 10 10 11 12 11 11 11 12 13 14 14 15 16 16 17 18 20 21 21 20 20 20 20 20 21 21 22 23 24 24 25 25 25 26
17 16 15 14 13 12 12 12 12 13 13 13 14 14 13 14 14 15 15 16 16 17 17 17 18 20 22 22 21 21 20 20 20 21 22 23 24 25 26 26 27 28 27
18 16 16 16 15 15 15 15 15 14 15 15 16 16 16 16 16 17 17 18 18 18 18 19 20 22 23 22 22 22 21 21 21 22 23 24 25 26 27 28 28 29 28
19 16 17 17 17 17 17 17 17 17 18 17 17 17 17 18 18 19 19 20 19 20 20 20 21 23 24 23 23 23 22 22 23 23 24 25 26 26 27 28 29 30 29
20 16 16 17 17 18 19 19 19 20 19 19 19 19 20 19 20 21 22 22 22 22 22 22 23 24 25 24 23 23 24 24 25 25 25 26 27 27 28 28 30 31 29
22 15 14 16 17 18 18 20 21 20 19 21 21 21 21 22 22 23 24 24 25 24 24 24 25 25 26 26 25 25 26 26 27 26 26 27 28 28 28 30 31 31 30
17 20 21 22 21 20 20 19 20 21 21 22 22 22 24 24 24 25 26 26 27 27 26 26 26 27 28 27 27 26 27 29 29 28 28 28 29 30 30 32 31 31 31
21 23 24 25 25 25 26 26 27 27 26 26 25 26 27 26 27 28 29 29 29 29 28 28 31 30 29 29 30 31 31 30 28 28 28 28 30 31 32 33 32 31 31
20 22 24 25 25 26 28 28 29 30 32 33 30 32 33 31 29 29 29 30 31 30 30 32 32 32 31 30 31 29 28 28 28 28 28 29 31 32 34 34 32 32 32
20 19 20 21 23 26 30 33 35 34 31 29 31 36 36 35 33 32 31 31 31 31 33 31 33 31 28 30 30 29 26 26 27 28 28 30 32 33 34 34 33 33 33
22 23 24 26 26 28 28 31 32 32 31 33 33 32 34 32 31 34 32 31 30 32 32 32 30 26 28 29 30 28 26 26 27 28 29 31 32 34 34 33 33 33 34
23 25 26 28 29 29 29 30 31 30 31 31 31 32 32 33 33 30 31 31 31 28 28 29 25 25 26 29 29 28 27 27 28 29 31 32 32 33 33 33 33 34 34
21 24 25 25 23 28 32 34 33 32 31 29 30 30 31 30 29 30 30 28 24 25 26 26 26 26 27 27 28 27 28 29 30 31 32 33 33 32 33 34 34 35 35
21 24 24 24 23 23 25 28 30 30 30 31 30 31 29 28 28 26 22 21 24 24 24 25 25 27 27 28 28 27 28 30 32 33 35 35 34 32 33 34 34 35 36

GFSGL_700_spd_060.txt.gz
Wind_Speed
41 41 39 38 36 33 32 32 34 34 34 33 33 32 31 29 28 27 25 24 23 24 24 23 22 22 23 22 22 22 23 24 23 23 22 21 21 21 22 18 17 19 18
37 36 34 32 32 32 32 31 31 32 33 33 31 31 29 27 26 25 24 24 24 23 21 20 20 20 20 20 21 23 23 23 24 23 21 21 17 15 12 11 14 15 16
31 31 30 29 30 31 32 32 32 32 32 32 31 29 27 26 25 25 24 23 21 19 18 18 18 18 19 20 21 22 22 22 21 19 16 13 13 15 15 16 17 17 18
26 27 28 29 29 29 30 32 33 33 33 32 31 28 27 26 25 23 21 18 16 15 15 15 16 16 16 13 10 9 10 10 10 9 9 14 16 17 18 19 19 20 20
23 25 26 27 28 27 28 29 30 32 32 31 29 26 26 25 23 19 16 15 14 13 12 10 9 6 6 6 9 10 11 12 12 14 16 18 18 18 19 20 21 22 22
23 25 26 26 27 28 28 28 28 28 29 28 26 25 24 21 19 17 15 13 12 9 7 7 7 7 8 9 11 13 15 15 16 17 19 20 20 21 21 22 23 23 23
22 23 24 26 26 26 26 26 26 26 24 24 23 22 20 18 17 14 13 11 10 9 8 9 10 10 11 12 14 16 17 18 19 20 21 22 22 23 23 23 23 23 23
22 23 24 25 24 24 23 22 22 22 20 19 18 17 17 15 13 13 12 11 9 9 11 11 11 13 14 16 17 18 17 18 20 20 21 22 22 22 23 23 23 23 22
22 23 23 23 23 22 21 19 18 18 16 15 16 15 14 13 13 13 11 8 9 11 11 11 14 16 16 17 18 19 19 19 20 20 20 21 21 21 22 22 23 23 22
23 23 21 21 20 19 16 16 15 15 13 14 13 13 13 14 12 10 9 10 11 11 11 13 15 16 17 19 19 20 20 20 20 20 20 20 20 20 21 22 23 23 23
24 23 21 18 16 15 14 13 11 12 13 13 14 14 13 12 11 10 11 12 12 11 12 14 15 16 16 19 20 20 20 20 20 20 20 20 20 20 21 21 22 23 24
24 21 20 18 16 15 14 13 11 12 13 13 13 13 13 12 12 12 13 13 13 12 13 14 16 16 17 18 19 20 20 20 20 20 21 21 21 21 22 23 23 24 26
28 26 18 19 17 16 15 14 13 13 13 13 14 13 12 13 13 13 14 15 14 14 15 15 17 18 18 18 20 21 21 21 21 21 21 21 22 22 23 24 24 25 26
34 22 19 19 18 17 16 15 15 15 15 16 15 14 14 14 14 15 16 16 16 17 16 17 18 19 19 20 21 22 22 22 22 22 22 22 23 23 24 25 26 26 27
24 21 20 18 17 18 17 17 17 17 17 17 17 16 16 17 17 17 18 18 18 18 18 19 19 21 21 22 23 23 22 23 23 24 24 24 24 25 26 26 27 27 28
29 28 25 22 20 20 20 19 19 19 18 19 18 19 19 19 19 20 20 20 20 20 20 21 21 23 23 24 24 24 24 24 24 24 25 25 26 26 27 27 28 28 29
24 26 28 24 23 21 21 20 21 21 21 21 20 21 21 22 21 21 23 22 22 22 22 23 24 25 25 26 26 26 26 25 25 25 26 26 27 27 28 28 29 29 30
11 20 24 25 21 23 23 23 24 24 22 22 23 24 24 24 24 24 25 24 24 25 25 25 26 27 27 27 27 30 28 28 28 28 29 29 28 27 27 28 29 30 31
15 12 19 20 16 16 18 19 21 21 21 22 23 24 26 27 28 27 26 26 27 27 27 27 29 29 29 30 33 31 29 30 32 32 30 28 28 28 27 29 30 31 32
18 17 20 22 22 21 21 21 22 24 24 26 27 26 28 28 28 28 27 28 28 29 30 30 31 30 31 32 35 30 30 31 32 30 29 29 29 29 29 30 31 31 31
21 21 22 22 23 25 25 24 26 26 27 26 26 26 29 30 32 34 34 32 31 32 31 31 32 32 32 34 32 30 29 30 31 30 28 29 30 30 31 31 32 33 33
24 24 24 21 22 25 27 30 31 31 31 32 32 32 33 33 31 32 33 32 35 35 34 33 34 33 32 31 30 29 29 29 30 29 29 30 31 31 32 33 34 33 33
25 25 24 24 24 25 27 26 29 31 32 31 31 32 34 35 34 35 33 33 33 32 34 34 32 31 31 30 28 28 28 29 29 30 31 31 31 32 33 34 35 34 33
22 24 25 27 27 28 28 28 31 32 33 32 32 33 33 34 34 33 34 33 32 33 33 30 29 29 29 28 28 28 28 28 29 30 31 32 32 32 34 35 34 33 33
17 19 21 24 26 27 28 28 27 28 33 36 37 35 34 33 33 32 32 32 32 31 27 27 27 28 27 26 27 28 28 30 30 30 32 33 32 32 34 35 33 33 34
19 20 21 23 25 28 28 26 25 25 27 29 31 32 32 32 32 32 31 30 27 24 25 26 26 26 25 25 27 28 29 30 30 32 33 33 32 32 33 33 32 34 35

GFSGL_700_spd_063.txt.gz
Wind_Speed
47 41 40 39 40 41 44 43 41 39 37 37 37 37 36 34 33 33 31 29 28 27 27 26 26 26 26 25 25 24 23 23 24 23 23 22 21 20 19 19 18 16 15
42 41 41 41 41 41 41 38 37 37 36 36 36 36 35 33 32 32 29 28 27 27 27 26 26 24 22 21 21 20 20 22 24 26 24 21 19 16 11 11 12 15 16
37 37 37 38 37 36 36 34 35 35 36 36 36 35 34 33 32 31 29 28 27 27 26 23 22 21 20 20 19 18 18 18 18 18 16 15 12 12 14 15 17 18 18
30 31 32 32 32 32 32 33 33 34 35 36 37 36 34 33 31 31 29 28 26 25 22 20 19 19 19 18 15 11 9 10 10 9 8 11 13 15 17 18 19 20 20
25 26 27 28 29 29 31 32 33 34 35 35 35 35 34 31 29 28 27 26 23 21 19 19 17 15 12 9 9 11 12 13 14 14 15 15 17 18 19 20 21 22 22
23 24 26 27 28 29 30 31 33 34 35 35 34 33 31 28 27 25 23 22 21 18 17 14 11 10 10 10 11 14 14 16 17 18 19 20 21 20 21 22 22 23 23
23 24 25 26 28 29 30 31 31 33 33 33 33 30 27 25 24 23 20 19 18 16 14 12 11 11 11 12 14 15 18 19 19 20 21 23 24 22 22 22 22 22 22
22 23 24 26 26 27 30 30 30 30 30 29 29 25 23 22 20 20 18 17 16 15 13 12 11 11 12 14 16 17 18 19 21 21 21 23 23 23 23 23 22 22 22
26 26 26 26 27 26 28 28 28 28 28 26 25 21 19 19 18 18 17 15 14 14 13 12 12 13 14 15 16 18 19 20 21 22 22 23 23 23 22 22 22 22 22
25 26 26 26 26 26 26 26 25 24 23 21 20 18 18 17 17 16 16 15 14 13 13 12 13 14 15 16 16 17 19 19 19 20 21 22 22 22 22 22 21 21 21
28 28 28 28 26 25 23 22 20 20 19 19 18 17 18 17 16 16 15 14 13 13 13 13 14 15 16 16 16 16 18 18 20 21 21 21 22 22 22 22 21 21 21
30 29 30 29 26 22 22 19 18 17 16 16 16 16 16 16 16 16 15 14 14 14 14 15 16 16 17 16 16 17 19 21 21 22 22 22 22 23 22 23 22 22 22
32 32 33 30 29 25 19 20 18 16 14 15 15 16 16 16 16 15 15 16 16 15 15 17 18 18 17 17 18 18 20 21 23 22 22 22 23 23 23 24 24 24 24
34 35 32 31 32 22 19 20 18 17 17 16 16 16 16 16 16 17 18 18 17 17 18 19 19 19 18 19 19 20 21 22 23 23 23 24 24 24 24 24 25 25 25
33 33 33 32 30 23 21 19 19 19 19 19 19 19 18 18 20 20 20 19 19 20 20 21 21 20 20 22 21 22 23 23 23 23 24 25 25 25 25 26 27 27 27
31 36 34 29 29 27 22 22 21 20 21 21 21 20 21 21 22 22 22 22 22 22 22 22 23 23 23 23 23 24 25 25 25 25 26 26 26 26 27 27 28 28 27
17 14 20 27 26 28 24 24 24 25 25 24 23 23 23 24 24 24 25 25 25 25 24 24 25 26 25 26 27 27 27 27 28 29 28 28 29 30 30 30 30 29 28
19 18 15 16 22 23 30 27 26 26 25 24 25 26 27 26 25 26 27 28 27 28 29 30 28 29 29 29 29 29 30 31 31 32 31 31 31 30 29 30 30 30 30
19 18 17 14 14 15 17 20 21 21 23 24 24 25 27 29 29 29 29 30 33 32 30 29 29 30 31 32 31 31 31 33 34 33 32 31 31 30 29 29 30 30 31
22 20 19 18 16 17 18 17 18 16 17 18 19 21 24 25 26 27 28 28 28 29 29 29 30 31 32 32 33 33 33 34 36 33 32 31 30 30 29 29 30 30 31
25 24 23 22 21 21 22 23 25 25 23 25 24 25 27 28 27 28 28 30 33 34 34 33 34 35 35 35 35 34 33 34 33 33 31 31 30 29 29 30 30 31 32
27 27 27 25 24 23 23 25 26 27 27 27 29 30 33 33 32 33 35 34 35 36 35 35 36 34 35 36 35 32 31 31 31 31 30 30 30 29 30 30 31 32 33
29 30 29 28 27 25 27 26 26 27 27 27 28 30 33 35 34 34 33 34 36 36 37 37 35 34 35 32 31 30 30 29 29 30 29 29 30 30 30 31 32 33 33
24 25 27 27 28 26 28 29 29 30 31 31 33 35 36 36 35 34 34 34 34 35 36 35 35 32 29 30 30 29 27 27 28 28 29 30 30 30 31 32 32 33 33
17 18 19 21 24 26 28 30 31 32 32 32 30 30 31 33 35 35 36 35 35 34 33 32 29 28 28 28 27 26 25 26 27 29 30 31 30 31 32 32 32 33 33
18 18 18 19 21 23 26 28 30 31 29 27 27 28 27 28 30 31 33 33 33 31 28 26 26 26 25 26 24 24 25 26 28 30 32 31 31 31 31 32 32 33 33

GFSGL_700_spd_066.txt.gz
Wind_Speed
46 46 42 47 42 38 41 41 42 42 43 43 42 40 39 38 38 38 35 34 33 32 30 29 28 27 25 25 25 24 23 23 24 23 22 23 22 23 21 21 20 17 13
35 38 41 46 43 43 42 41 42 43 42 40 39 39 39 38 37 37 36 35 33 32 30 28 27 27 26 25 23 21 20 20 21 21 22 23 21 19 18 15 13 14 15
33 33 36 40 41 39 39 40 40 38 36 36 36 35 36 37 38 37 36 34 33 31 28 28 28 25 23 21 20 20 19 19 18 14 13 14 13 13 11 14 16 16 17
28 30 31 32 33 34 36 36 34 33 33 34 33 34 35 36 36 36 36 34 32 30 27 26 26 22 20 19 18 17 15 11 11 11 11 11 12 14 15 18 18 19 20
24 24 25 27 28 29 29 30 30 31 31 33 34 34 35 36 34 33 34 32 30 28 26 22 20 19 19 16 12 10 10 11 13 13 14 15 16 16 19 20 19 20 22
19 21 22 23 24 26 27 29 30 31 32 33 34 35 35 35 33 31 30 29 26 25 23 20 18 16 13 12 11 11 12 13 14 16 16 17 18 18 20 21 20 21 22
20 21 22 23 24 25 27 28 29 30 31 31 33 34 34 33 30 29 27 24 23 21 19 17 14 13 13 12 12 13 13 15 17 17 17 19 19 20 20 19 20 20 21
23 23 22 22 23 24 26 28 30 30 30 30 32 32 31 29 27 25 24 20 19 18 17 16 15 13 13 14 15 15 15 16 17 18 18 19 20 20 20 20 19 20 20
25 25 25 26 25 26 28 29 29 30 30 29 29 28 26 25 23 21 19 18 19 17 16 16 15 15 14 16 16 15 15 16 18 19 18 18 20 20 19 19 20 20 20
28 27 27 26 26 26 27 28 28 28 28 26 26 23 19 19 18 19 18 17 17 16 16 16 15 15 15 15 15 15 15 17 18 18 17 19 20 20 19 20 19 19 20
29 29 28 28 29 30 29 29 27 26 24 21 22 20 18 16 17 17 16 16 17 16 16 15 15 15 14 14 15 16 16 17 18 17 18 19 19 20 20 20 20 20 20
29 31 29 31 31 31 31 29 27 25 19 20 21 18 15 16 16 16 16 16 16 15 15 16 15 15 15 16 16 17 18 18 18 18 19 19 19 20 21 22 21 22 22
28 30 33 33 33 34 31 29 28 22 18 20 19 16 14 14 15 16 16 17 17 17 17 17 16 17 17 17 17 18 20 20 19 19 19 19 19 20 20 22 22 23 23
30 33 35 36 37 36 33 31 32 22 18 19 16 15 15 16 16 17 18 18 18 19 19 18 18 19 19 18 19 20 21 21 21 21 20 21 20 21 22 23 24 24 24
29 32 34 38 38 32 30 31 29 21 19 20 20 19 18 18 20 19 20 20 21 21 20 20 20 21 21 21 21 22 23 23 24 23 23 23 22 23 24 25 26 26 25
22 28 26 24 29 34 33 27 28 29 22 21 20 19 19 20 21 21 22 22 23 23 22 22 23 24 24 23 23 23 25 26 26 26 26 25 26 25 26 27 28 29 29
20 20 22 19 17 21 27 26 24 29 26 22 19 18 21 23 23 23 24 25 25 25 24 26 26 27 26 28 30 27 28 27 28 28 27 28 29 30 30 29 29 29 27
23 21 20 19 18 17 17 19 18 27 26 25 24 23 24 25 25 26 27 29 28 29 32 34 31 34 36 33 31 29 30 30 30 30 29 30 31 31 30 29 30 29 28
25 23 22 20 18 16 13 13 13 16 28 26 26 28 31 30 29 29 28 26 26 25 27 27 30 30 29 30 30 30 31 32 33 32 31 32 33 31 30 30 29 28 28
27 26 25 23 21 18 15 13 12 11 10 11 12 14 17 18 19 20 21 23 25 26 27 29 31 31 31 33 35 35 35 36 36 34 34 32 31 30 29 29 29 27 28
29 29 27 26 25 23 20 19 19 18 18 18 19 19 21 23 25 26 24 24 27 28 29 30 31 31 32 36 37 35 36 38 36 36 32 31 30 28 29 29 28 29 29
31 31 30 27 27 26 25 21 21 20 20 22 21 21 23 26 29 30 30 28 29 30 29 31 33 34 35 36 35 36 36 32 33 32 31 29 28 28 29 28 29 29 30
31 32 30 29 28 27 27 27 23 23 23 24 24 25 25 27 29 30 31 33 34 32 32 33 32 34 34 34 34 34 31 29 32 31 27 27 27 28 28 29 30 30 31
28 30 28 27 27 27 27 27 24 25 26 25 26 28 30 31 31 32 33 34 34 32 31 35 35 34 33 31 30 30 30 28 27 26 26 25 26 27 29 30 30 31 31
23 24 23 22 22 22 22 24 24 26 28 30 31 32 32 31 30 30 29 29 30 31 32 33 33 31 30 29 28 27 25 25 25 24 25 26 26 27 30 31 31 32 30
23 21 19 18 18 18 20 23 25 27 29 30 29 28 26 25 25 24 24 25 27 28 28 28 27 26 25 24 23 23 23 23 25 26 26 26 27 28 30 31 31 31 30

GFSGL_700_spd_069.txt.gz
Wind_Speed
41 40 38 43 43 42 41 46 46 41 33 32 37 43 44 45 41 39 37 37 37 36 35 33 33 31 30 28 26 25 24 21 22 24 26 25 24 23 22 22 21 18 16
34 39 42 40 40 41 41 42 42 41 40 42 43 43 43 40 38 36 35 35 35 34 33 32 31 30 28 27 26 25 23 21 21 22 21 23 23 21 17 16 16 13 15
30 34 33 32 33 36 37 37 36 38 40 41 42 41 37 36 35 35 35 34 34 34 33 31 30 28 27 26 25 23 21 20 20 19 19 16 14 12 10 9 10 13 16
26 28 31 32 32 32 33 33 35 37 38 37 35 34 35 34 34 34 35 35 35 33 32 30 29 28 27 25 23 21 20 20 18 15 13 12 11 12 13 14 14 16 16
23 23 24 26 26 27 28 29 31 32 32 32 32 33 33 33 33 34 35 34 34 32 30 27 26 25 25 22 20 19 17 14 13 13 13 13 13 16 16 17 17 18 18
18 19 19 20 21 22 24 25 27 28 29 31 32 32 32 32 33 33 33 33 32 30 29 24 23 22 20 19 17 15 13 14 14 14 14 16 16 18 19 17 19 18 18
19 19 19 20 20 21 22 23 25 26 27 29 30 31 31 31 32 32 32 31 29 26 25 23 22 19 18 17 16 15 14 14 14 16 16 16 17 18 18 18 18 17 17
22 21 20 20 20 21 21 22 24 26 27 28 29 30 30 31 30 30 29 27 25 24 23 21 21 17 17 16 16 15 15 15 16 16 16 17 17 17 17 18 17 16 16
25 24 22 22 22 23 23 24 24 25 26 28 29 29 29 29 27 26 24 23 21 19 18 18 17 16 17 15 15 16 16 16 15 15 16 16 16 16 17 18 17 17 16
26 27 27 25 26 25 25 25 26 27 28 28 28 27 25 24 22 21 19 18 16 15 15 16 16 16 16 14 15 17 15 15 15 15 15 16 16 17 18 18 18 17 17
28 28 27 27 27 27 27 28 28 28 28 27 27 25 20 20 21 18 17 16 15 15 15 15 16 15 15 15 16 15 15 15 15 15 16 16 17 18 18 18 17 18 18
26 28 27 27 27 29 30 29 29 29 29 27 26 24 25 24 21 18 16 15 16 15 16 16 15 15 16 16 16 16 16 16 16 16 15 16 17 19 19 18 18 19 20
20 25 28 29 30 31 32 32 32 32 31 29 27 25 22 20 18 16 15 15 15 15 16 16 16 16 17 17 18 17 18 18 18 18 16 16 18 19 20 19 20 21 22
21 22 25 29 32 33 35 35 34 34 34 28 29 30 21 16 14 14 15 15 16 17 16 16 17 18 19 19 20 20 19 20 20 19 18 18 20 21 20 20 22 23 24
22 23 26 30 32 33 34 37 36 33 29 28 22 22 18 17 18 18 17 17 17 18 18 18 19 20 21 21 22 21 21 22 23 21 21 22 23 23 24 24 24 24 24
22 22 21 21 23 24 25 26 29 29 28 22 23 21 23 21 20 20 20 20 20 20 19 19 21 21 22 23 22 25 26 27 29 29 24 26 26 26 26 27 26 26 27
22 21 21 21 22 22 21 20 22 25 28 27 30 26 24 23 23 22 22 22 22 21 18 19 23 29 34 37 36 33 36 36 34 31 27 27 28 29 29 30 30 28 27
26 26 24 22 21 20 20 22 21 22 22 20 26 25 26 26 24 24 23 24 23 24 24 26 27 29 34 36 32 33 33 31 32 31 29 30 31 32 32 32 32 30 28
30 27 31 24 22 22 22 21 18 17 18 18 25 29 25 26 27 27 29 29 29 29 29 28 28 27 27 27 28 28 28 30 32 34 34 35 35 34 34 35 32 31 29
33 31 30 26 24 24 23 21 18 15 11 10 12 23 27 25 24 24 23 21 21 21 22 22 23 24 25 27 26 29 30 32 32 33 36 36 34 35 35 32 32 29 29
37 32 34 29 26 26 26 24 21 19 16 13 12 13 15 16 17 19 21 22 23 22 24 27 29 29 30 30 30 32 31 31 33 34 33 31 31 30 31 31 30 28 29
36 34 32 33 29 28 28 27 25 23 22 22 21 19 21 21 21 23 24 25 26 27 26 27 27 28 28 29 30 32 32 32 33 32 31 31 29 28 30 30 29 28 28
30 33 33 33 31 28 28 28 27 26 23 22 21 22 23 25 25 24 24 26 27 28 30 30 29 30 32 31 32 32 32 32 31 31 31 27 26 28 28 28 28 28 28
34 32 33 34 31 28 27 29 29 27 26 23 23 25 24 22 24 26 30 31 29 29 29 29 30 32 32 33 33 33 32 30 29 28 27 26 25 24 25 26 27 27 28
28 25 24 21 22 22 23 24 25 24 23 25 24 25 25 28 32 34 33 29 26 26 25 26 28 29 31 32 32 30 29 27 26 25 25 23 23 24 26 27 27 28 28
33 27 21 20 19 20 21 21 21 22 24 25 27 29 32 33 31 28 23 21 20 20 21 23 23 23 23 23 23 23 21 22 22 23 22 22 24 26 28 28 28 29 29

GFSGL_700_spd_072.txt.gz
Wind_Speed
29 29 33 35 37 38 39 39 38 37 39 37 40 38 36 37 38 42 45 46 42 38 36 35 35 34 32 31 30 30 29 27 28 28 29 22 23 26 23 23 24 23 19
25 28 31 35 39 39 39 41 39 40 39 39 40 43 42 42 42 45 46 42 39 37 35 34 34 34 31 31 30 29 28 28 28 28 25 24 23 21 22 21 19 17 16
25 27 30 32 36 40 40 41 39 37 39 41 38 37 39 42 44 43 41 38 37 35 35 34 33 33 31 30 29 29 28 27 26 25 23 22 21 18 16 13 11 11 13
28 27 28 30 34 36 35 33 32 33 34 35 35 38 39 39 38 38 37 36 36 36 34 34 33 33 31 30 29 28 27 25 24 23 22 21 17 15 14 14 14 16 16
23 23 24 26 28 30 30 29 29 29 31 32 33 34 34 34 34 35 35 35 35 35 35 34 32 31 29 29 28 26 24 23 23 22 19 17 17 17 17 17 17 18 17
21 20 21 21 22 23 24 24 25 26 27 28 29 30 31 32 32 32 33 34 34 34 34 33 31 28 26 26 25 23 21 19 17 16 16 16 17 18 18 19 19 19 19
23 23 21 20 19 20 21 21 22 22 23 24 26 27 28 29 30 31 32 34 35 34 32 30 28 26 24 22 21 22 18 16 16 16 17 18 18 19 19 18 20 20 19
27 25 23 22 21 21 21 21 21 21 22 23 25 26 28 30 31 31 33 33 33 32 29 25 24 23 22 20 18 19 16 17 16 16 17 17 18 18 18 18 19 19 18
30 26 25 25 24 24 22 23 23 23 24 25 25 27 29 30 30 30 30 29 28 27 23 20 19 19 18 17 17 17 15 16 16 16 16 17 17 17 16 16 17 17 17
26 28 29 30 28 26 26 26 25 26 26 25 26 27 28 29 28 27 24 22 22 21 19 16 15 16 16 15 15 16 15 16 16 16 16 16 16 15 15 16 17 16 16
25 29 34 32 31 31 31 28 28 28 27 27 27 28 28 28 27 25 28 25 20 16 16 14 14 14 13 14 16 16 16 16 15 16 16 16 16 16 16 16 16 16 17
22 25 27 32 32 32 31 31 31 30 30 29 29 29 29 28 27 27 25 21 17 15 16 15 16 15 16 16 17 16 16 16 16 17 16 17 17 17 17 17 17 17 18
23 23 25 29 32 31 32 32 33 32 32 33 32 32 31 28 26 23 22 19 17 16 16 16 16 17 17 17 17 17 17 17 18 18 18 18 19 19 19 19 19 19 21
23 22 22 22 26 31 32 32 33 34 36 36 34 32 30 28 28 25 20 18 18 16 17 16 16 17 17 18 18 18 19 19 19 19 20 19 19 20 20 22 23 21 23
21 21 21 23 25 28 30 33 35 35 37 37 35 33 29 24 20 20 18 18 18 18 18 18 18 19 19 19 20 20 20 20 20 20 20 25 25 28 31 23 27 26 26
23 22 23 24 24 24 23 24 23 25 25 28 28 30 25 22 23 20 19 20 20 20 17 17 21 22 21 21 21 22 22 25 30 34 37 36 35 36 33 27 29 30 29
26 21 22 22 21 22 22 23 23 23 22 23 26 28 24 25 26 25 23 22 22 21 20 23 22 22 23 22 25 30 35 37 36 35 31 31 32 32 32 30 32 32 33
32 33 25 23 25 24 24 23 22 21 23 22 22 26 27 31 30 25 23 24 22 19 19 21 24 30 32 30 29 30 33 29 26 27 29 28 27 29 32 33 34 35 36
34 37 32 31 31 27 27 25 22 22 20 19 19 23 23 28 28 27 27 24 26 32 28 31 32 30 30 29 28 28 26 26 27 28 28 28 29 31 32 34 33 34 35
35 36 36 38 34 30 27 27 23 21 20 17 16 17 20 29 32 31 29 25 26 28 27 23 23 23 24 25 25 25 25 28 29 29 29 31 32 32 31 32 33 32 34
31 37 42 39 36 33 31 28 25 23 22 21 18 16 16 14 14 17 21 20 20 19 21 23 25 25 27 28 27 27 27 27 29 30 31 32 33 33 32 31 32 32 31
30 31 37 42 38 37 34 32 29 26 25 23 23 21 19 17 16 16 18 21 22 23 24 26 27 28 27 28 29 30 29 30 30 32 33 33 33 32 31 31 31 30 29
29 30 30 31 38 37 37 33 33 29 27 27 25 25 26 26 22 19 21 24 26 27 27 28 29 30 30 31 32 32 31 31 33 35 34 33 31 29 29 29 28 27 26
27 27 30 31 27 32 37 32 33 31 29 27 28 27 26 25 24 27 29 24 24 26 31 32 30 29 29 28 29 30 30 32 33 33 31 29 27 27 25 24 23 24 25
30 29 26 26 30 31 32 32 32 32 30 28 27 28 28 27 30 29 25 26 29 35 34 30 27 26 25 25 25 26 27 26 25 24 24 23 22 22 22 22 23 25 26
30 30 27 26 26 27 28 27 27 26 23 22 23 26 28 28 27 27 30 34 32 29 26 23 22 22 21 20 19 18 18 18 18 20 20 20 21 22 23 23 24 26 28

GFSGL_700_spd_075.txt.gz
Wind_Speed
27 29 31 31 30 30 30 32 33 36 33 32 32 34 38 38 34 36 37 39 40 41 43 41 38 36 35 35 34 34 32 32 32 32 30 27 28 28 22 20 24 24 22
21 24 27 29 31 31 33 34 36 36 35 36 37 39 40 36 38 42 43 40 40 43 43 40 37 36 35 34 33 32 31 31 30 30 30 26 27 26 25 23 23 23 20
23 25 25 26 28 30 32 34 37 37 39 41 42 40 36 36 40 38 39 40 42 41 39 38 37 36 35 35 34 32 30 30 30 30 30 27 27 24 22 22 20 18 15
30 28 29 29 29 31 33 33 35 37 38 38 36 34 35 36 37 38 38 37 37 37 36 37 36 36 35 35 34 32 30 29 29 29 28 27 25 22 22 19 15 15 14
28 30 30 30 30 29 30 31 32 33 33 33 32 32 32 34 34 34 33 34 35 35 35 36 36 35 35 34 33 31 30 28 27 27 26 25 23 21 18 16 17 17 17
29 27 29 28 26 26 28 28 27 27 27 27 28 28 28 28 29 30 30 31 32 33 33 34 35 36 35 33 30 28 27 27 25 23 23 22 18 17 16 17 18 18 18
30 29 28 29 25 23 24 24 24 25 24 24 24 24 24 25 26 28 29 30 32 33 34 35 35 34 32 30 27 25 24 22 22 18 17 16 16 16 17 18 19 19 19
30 30 29 29 26 24 24 22 23 24 24 23 23 23 23 24 25 27 29 30 31 32 33 32 31 29 27 24 22 20 19 17 17 16 16 15 15 17 18 19 18 19 18
28 30 30 29 30 28 26 25 25 25 25 25 24 25 25 26 27 27 28 30 30 28 26 27 25 23 21 20 18 16 15 14 14 14 15 16 15 18 17 17 17 18 19
28 29 30 32 33 32 30 30 29 27 28 27 27 27 27 27 28 29 28 28 27 26 28 27 22 19 16 15 12 13 13 13 14 13 20 19 17 18 17 18 18 19 19
26 29 32 35 35 34 35 34 32 31 30 30 29 29 28 28 28 28 28 28 26 27 25 22 19 16 13 13 12 12 11 12 17 19 17 17 17 17 17 18 19 19 19
26 27 31 33 33 35 37 36 36 36 35 33 33 31 31 31 31 31 30 29 26 23 21 19 17 16 14 14 14 15 19 19 18 18 17 17 17 17 18 18 19 19 19
28 27 30 31 30 32 34 36 37 37 36 35 35 35 34 34 33 32 30 27 24 23 20 19 17 16 15 14 18 17 16 17 17 17 17 18 18 18 18 18 20 20 19
28 29 29 31 31 30 32 34 35 35 35 37 38 35 36 37 34 32 30 29 25 21 20 19 18 17 17 17 18 18 18 18 18 18 18 18 19 19 19 23 29 29 28
29 29 28 29 31 31 29 27 30 32 34 35 36 39 38 38 36 35 31 26 22 21 22 20 19 18 17 18 18 18 17 18 19 20 21 22 23 25 32 37 35 31 31
28 27 27 29 28 28 29 29 29 30 32 32 31 30 29 31 30 31 26 23 22 22 21 20 20 18 18 19 18 20 23 21 21 23 25 29 34 37 34 31 30 31 31
31 31 29 30 30 27 28 28 27 27 26 27 27 27 26 26 27 29 26 24 24 24 20 19 19 20 22 23 25 25 22 23 27 31 30 27 27 26 26 26 26 27 29
35 35 32 35 31 28 27 27 25 24 24 22 22 24 24 23 26 27 27 28 28 25 21 21 24 25 26 25 24 27 33 30 27 28 28 26 26 26 25 27 28 27 29
34 36 36 40 36 33 30 29 27 26 25 24 23 21 21 21 23 27 29 30 29 24 25 25 25 25 27 31 33 31 28 28 26 26 25 25 26 26 28 29 30 30 30
33 35 36 38 38 38 33 33 31 33 28 26 25 21 21 18 19 22 25 28 32 31 30 29 30 32 30 27 25 25 25 24 24 26 27 28 29 29 29 31 32 32 32
35 34 36 38 39 37 36 36 38 31 26 27 26 24 23 19 16 16 18 24 27 26 29 29 23 21 22 23 25 26 29 28 26 26 27 29 31 30 31 31 32 32 32
36 34 34 36 38 39 40 39 34 33 32 29 28 27 26 24 17 15 14 13 15 17 18 20 22 25 26 26 27 27 27 28 28 28 30 32 32 32 33 33 32 32 30
32 33 33 34 35 35 36 37 37 36 36 33 31 30 30 28 26 23 21 20 21 22 22 23 25 27 27 26 29 31 31 30 30 31 32 31 32 32 31 30 30 29 27
29 29 30 31 32 32 32 30 35 35 35 34 33 32 31 31 28 28 26 25 23 24 26 25 24 26 27 31 31 30 28 27 28 29 30 30 28 28 27 26 25 25 24
27 27 28 29 30 28 30 30 29 30 32 32 31 31 30 31 31 29 27 26 26 24 23 25 27 30 34 31 27 25 25 26 26 25 25 24 23 24 24 24 24 24 24
25 25 26 28 30 29 28 27 31 29 30 29 29 29 29 29 31 32 29 27 28 29 28 30 33 33 27 23 23 23 22 21 21 20 20 21 22 23 24 25 25 25 26

GFSGL_700_spd_078.txt.gz
Wind_Speed
28 29 29 29 28 28 28 29 27 27 25 23 25 27 27 28 31 33 33 36 36 35 38 39 38 39 38 35 32 32 33 34 34 34 33 30 28 25 24 25 26 26 21
21 23 25 26 26 27 29 30 30 30 31 30 31 32 31 30 36 37 37 37 36 38 39 38 39 37 35 35 34 33 32 33 33 33 33 31 27 26 24 24 25 25 26
25 25 24 24 25 27 29 30 31 32 33 34 35 35 35 36 38 40 36 35 37 36 37 37 36 35 33 33 33 34 33 32 32 32 32 30 29 28 25 26 23 23 22
32 31 28 30 30 30 31 31 32 33 35 37 39 40 40 40 38 36 35 35 35 35 34 34 33 33 33 33 34 33 33 33 32 32 31 30 28 27 24 23 21 21 17
28 30 32 33 31 30 30 32 32 33 34 35 35 35 35 34 34 33 32 31 31 31 31 31 32 32 32 32 33 33 33 32 32 31 30 28 27 25 23 21 20 17 16
25 26 29 30 31 29 28 28 29 30 31 31 31 31 31 30 30 29 28 27 28 29 29 30 31 32 33 33 33 32 32 30 29 28 26 24 23 24 23 17 17 16 16
25 26 27 28 29 29 29 28 26 26 27 27 27 27 26 26 25 25 25 25 25 26 29 30 31 32 33 33 32 30 28 27 25 23 22 21 17 13 16 15 16 17 18
23 24 27 29 28 29 29 28 26 24 25 25 25 25 23 24 23 24 24 26 27 28 28 29 29 28 26 28 28 26 24 22 20 18 16 14 15 11 16 17 17 17 18
27 25 25 28 30 30 29 29 29 29 28 27 27 25 25 25 25 25 25 27 28 28 28 27 26 27 28 26 23 21 19 17 14 13 13 13 13 12 15 17 17 16 17
30 28 26 26 29 32 32 32 33 32 31 30 29 28 27 27 27 27 26 27 27 28 28 28 28 29 25 22 19 16 13 11 10 9 13 10 11 17 16 15 15 14 17
32 30 28 26 27 30 32 35 36 35 34 33 32 30 29 29 29 29 27 29 29 30 30 29 27 24 20 17 15 13 12 12 12 10 11 13 14 15 19 15 13 17 16
32 30 30 29 27 29 32 33 35 37 37 37 36 34 33 32 31 31 31 32 31 31 31 27 23 21 17 14 14 11 12 12 12 13 14 16 18 15 14 15 17 16 16
33 32 31 30 28 29 30 31 33 34 37 38 38 37 36 35 34 34 35 32 33 32 29 27 25 21 17 16 14 15 15 14 15 16 16 14 15 14 19 20 17 17 16
30 33 32 30 29 29 32 33 33 33 33 35 36 36 35 35 36 37 36 36 35 33 30 29 24 21 19 18 17 18 18 17 17 15 15 14 15 17 18 19 19 21 28
29 31 32 30 27 29 30 31 32 32 32 32 33 34 34 35 37 38 38 39 40 36 31 27 23 22 20 19 19 19 18 16 16 14 15 16 20 23 24 24 25 30 35
30 30 31 29 27 29 30 29 29 30 30 29 29 31 33 34 35 35 32 34 30 29 26 22 22 23 21 20 20 19 17 17 18 17 20 19 24 25 30 33 32 29 28
37 33 31 32 32 36 33 31 30 29 30 29 29 29 29 30 31 30 30 29 28 29 24 21 22 22 22 22 21 19 19 21 20 21 22 26 32 28 24 24 22 21 21
39 37 34 31 33 32 34 29 32 29 27 26 27 26 25 25 24 23 25 26 26 26 24 20 22 23 23 23 23 22 22 23 22 25 31 28 25 23 23 23 22 22 23
39 38 37 34 33 35 40 32 33 31 31 26 25 24 23 24 22 22 23 23 24 25 24 26 26 26 25 25 25 26 25 27 31 27 25 24 24 22 24 26 26 25 25
37 37 37 36 33 34 37 38 35 32 30 30 28 23 24 27 24 20 19 20 23 24 25 28 30 28 27 28 27 28 32 29 24 23 22 24 26 27 26 26 26 27 27
34 35 36 36 36 33 34 38 37 33 31 32 30 26 27 29 27 22 20 19 19 20 22 27 31 32 33 32 30 25 22 22 23 24 26 25 26 27 27 27 29 29 30
32 31 33 35 34 34 33 34 35 38 35 34 31 30 28 28 27 23 20 17 16 15 17 20 22 22 23 24 23 22 23 23 24 25 25 27 28 28 29 29 30 31 31
29 28 30 32 32 32 32 32 33 35 38 38 32 31 31 29 27 25 22 20 17 16 15 15 17 19 20 20 22 24 25 25 27 30 30 30 30 29 29 29 30 30 28
26 25 27 29 30 30 29 29 29 30 33 38 39 40 36 33 29 26 26 24 24 22 21 21 21 19 21 23 24 25 26 29 30 28 26 26 27 28 29 29 28 26 25
24 23 24 26 28 29 27 25 25 25 28 28 38 34 32 30 29 26 26 26 26 27 24 22 21 22 22 23 25 27 31 31 26 25 25 25 26 26 25 25 24 25 25
21 21 21 22 24 27 26 24 22 22 25 24 26 29 29 27 25 25 26 28 28 25 24 23 25 26 26 26 29 33 27 23 23 22 22 22 23 23 24 24 25 25 26

GFSGL_700_spd_081.txt.gz
Wind_Speed
21 23 25 26 27 29 30 30 28 28 28 26 23 21 20 20 20 20 23 24 27 27 30 32 31 33 35 34 35 34 32 31 31 31 31 31 30 30 28 26 24 26 23
18 19 20 21 22 24 25 27 27 28 27 27 27 27 26 26 26 27 27 28 31 32 33 32 32 35 35 35 34 32 31 30 30 30 30 31 31 30 28 25 23 22 26
22 22 22 23 24 22 21 23 25 27 28 29 30 31 31 33 33 33 33 33 34 35 33 32 33 34 34 32 32 31 31 31 31 31 30 30 30 30 28 26 25 26 25
28 30 30 30 29 27 26 28 27 27 28 29 30 32 34 35 36 36 36 37 37 33 32 33 33 32 31 30 30 30 31 31 31 31 31 30 29 28 27 26 25 24 22
26 27 29 30 31 31 31 30 30 30 31 33 32 33 35 36 37 38 37 34 33 32 31 30 30 29 28 29 30 31 32 32 32 32 32 30 29 27 26 24 23 22 21
23 25 26 27 28 30 30 30 30 30 30 32 34 35 35 35 35 34 32 31 30 28 27 28 27 27 29 30 32 33 33 33 32 31 30 29 26 24 23 22 20 20 17
23 24 25 26 28 28 29 30 30 29 29 30 31 32 31 32 31 29 27 26 25 25 25 26 26 28 29 30 31 30 29 29 28 27 25 24 22 20 18 16 14 13 12
26 26 26 25 25 27 28 28 28 28 28 28 28 28 28 27 27 25 24 25 25 25 25 25 26 26 27 27 27 29 29 27 23 21 19 18 16 14 13 12 12 12 13
29 28 28 28 27 27 28 27 28 29 29 28 28 27 27 26 26 25 25 25 26 25 25 25 26 26 26 28 28 28 26 23 19 16 14 13 11 10 10 11 10 14 13
33 32 31 30 29 28 27 28 29 29 30 31 30 28 28 29 28 27 27 27 27 26 25 25 27 27 27 28 27 24 20 17 13 11 9 8 9 9 10 8 9 12 11
31 32 31 31 30 30 29 29 30 30 32 32 32 31 32 32 31 31 29 29 28 27 28 28 28 28 27 26 24 19 16 14 13 13 13 13 13 12 12 12 15 15 11
30 30 29 30 29 28 29 30 31 31 31 31 32 34 34 34 34 34 32 30 29 29 30 31 29 28 26 24 22 17 16 15 14 14 13 14 14 13 14 13 12 11 12
28 27 29 29 30 29 28 29 30 31 30 30 31 33 34 36 36 36 35 33 32 32 32 31 29 27 26 24 21 18 18 18 16 15 16 17 16 16 13 13 14 15 14
25 25 25 27 28 29 28 29 31 33 32 30 31 32 33 36 36 36 36 36 34 34 34 32 31 28 26 25 22 21 20 19 17 15 16 17 15 13 11 13 14 15 16
32 29 27 27 26 29 29 25 30 31 33 34 33 33 33 33 33 36 35 33 35 35 35 35 35 33 27 24 24 23 23 21 20 18 17 17 15 15 15 17 19 21 22
41 39 36 32 28 28 30 28 29 29 30 31 31 30 28 29 32 33 33 33 35 36 32 30 26 25 25 25 25 25 23 22 20 18 17 18 18 18 18 20 24 27 27
44 42 41 38 34 30 30 30 32 30 27 29 28 29 29 29 28 29 30 30 30 30 28 25 25 26 26 26 26 25 23 23 21 19 21 21 21 22 24 28 26 22 21
37 39 40 39 37 34 32 31 34 31 31 33 32 31 29 27 26 27 26 26 25 26 24 23 24 24 27 25 25 26 25 24 21 21 20 22 23 27 28 25 22 20 20
43 40 31 35 38 38 35 33 30 39 30 28 31 32 28 25 24 24 23 20 19 21 20 21 21 26 29 27 28 26 25 23 22 21 24 28 31 26 23 20 21 22 23
36 40 31 28 34 36 37 35 34 34 38 37 27 28 32 27 25 23 20 18 17 17 18 19 21 28 32 30 29 29 28 29 25 24 30 31 24 21 21 23 24 23 23
36 33 32 26 32 33 35 36 33 35 35 34 32 26 30 28 25 23 21 18 18 18 18 20 24 27 30 34 33 35 34 24 27 30 24 21 21 23 23 23 25 26 27
35 30 28 27 31 32 32 34 34 34 34 34 32 27 29 27 24 21 22 20 20 19 17 19 22 24 25 28 30 28 25 25 24 20 20 22 23 24 25 26 26 28 29
32 28 26 28 31 30 29 31 32 32 32 33 35 35 29 28 27 25 23 20 21 19 17 14 13 16 18 19 19 18 19 20 21 21 23 24 26 29 30 29 28 28 29
28 27 27 29 28 27 26 27 29 29 29 29 32 34 35 33 29 27 26 23 22 23 21 18 16 16 16 16 17 17 19 20 22 23 26 27 29 27 24 25 27 28 28
26 25 25 25 24 24 23 25 27 28 27 26 26 30 34 35 36 31 29 28 25 24 22 23 21 19 19 20 20 19 20 22 23 26 30 31 26 24 24 25 25 25 25
26 23 22 21 22 22 20 21 24 24 22 22 24 24 24 30 31 28 28 27 26 26 24 22 22 22 22 22 21 21 23 24 26 31 28 24 23 23 22 22 22 23 24

GFSGL_700_spd_084.txt.gz
Wind_Speed
15 18 20 23 24 25 25 26 27 28 29 28 28 27 25 24 23 21 17 16 18 18 20 23 25 27 29 30 31 33 33 34 34 33 32 30 30 29 28 28 27 26 27
14 17 20 23 26 28 28 28 28 28 28 29 29 29 28 25 25 26 23 22 21 23 25 27 29 30 31 31 32 32 32 32 32 32 31 31 31 31 30 30 28 28 26
17 19 21 21 22 23 23 23 24 25 26 27 29 29 30 29 30 28 29 28 28 29 29 29 32 32 31 30 31 31 30 31 31 31 31 30 31 31 31 31 30 28 27
21 22 23 25 27 28 28 28 28 29 28 28 28 29 30 31 32 31 31 34 33 33 33 34 34 32 31 30 28 28 28 29 30 31 31 32 32 32 31 30 29 28 27
26 27 28 28 29 30 31 33 33 33 31 31 31 31 32 33 33 33 34 35 35 36 37 34 31 30 28 26 25 25 27 30 32 34 34 34 33 32 31 29 28 26 25
26 26 27 28 29 31 32 33 33 33 33 32 32 31 32 33 34 34 34 34 35 34 32 30 28 26 25 24 25 27 30 31 32 33 34 33 31 29 27 25 24 22 22
28 28 27 26 26 28 29 30 32 33 33 32 32 32 31 31 32 32 32 31 31 30 28 26 24 25 25 25 26 26 28 29 29 30 31 29 26 25 23 21 20 18 15
29 30 30 29 28 28 29 30 30 31 32 32 32 32 32 31 31 30 29 29 28 28 26 25 25 26 26 26 26 26 27 28 30 29 29 26 23 20 17 15 13 12 11
31 32 33 33 32 32 30 30 31 31 32 31 31 32 31 32 31 29 29 29 29 28 27 26 26 26 26 25 27 27 28 28 27 25 25 22 18 15 14 12 12 11 10
29 30 31 33 35 35 35 33 32 32 32 33 33 32 33 33 32 31 30 30 29 29 29 28 27 26 26 27 26 26 27 26 24 23 19 17 15 13 12 10 10 9 8
32 32 31 30 31 33 35 36 34 34 33 33 34 33 34 34 33 33 32 32 32 33 30 28 27 26 27 26 26 25 25 24 21 19 16 15 14 14 13 13 12 11 12
32 31 30 31 32 31 32 34 34 34 34 34 34 34 34 35 35 35 35 34 35 33 31 29 28 28 27 27 26 24 23 22 20 18 18 17 15 13 13 13 13 16 14
31 30 29 28 27 30 30 31 33 34 35 34 33 34 34 35 36 37 37 36 37 35 34 31 31 29 29 29 27 24 23 22 21 19 18 19 18 16 16 14 14 14 13
38 36 34 33 30 27 27 28 30 32 34 35 34 33 33 33 36 36 35 37 38 37 35 35 33 32 32 31 28 25 23 23 23 21 21 20 20 17 16 16 17 16 15
41 40 40 38 37 35 32 28 29 28 31 33 35 37 39 38 35 36 38 37 37 34 38 36 34 34 34 33 31 30 26 25 25 23 21 20 20 18 18 18 18 17 17
41 40 40 42 41 39 39 35 32 30 28 32 35 37 40 39 39 38 36 36 35 34 37 34 35 35 37 33 29 30 28 27 27 25 24 22 21 20 19 20 20 19 20
35 37 37 35 37 38 41 41 38 34 32 32 33 32 34 36 35 33 31 30 33 37 35 33 33 31 30 28 27 29 28 28 29 27 24 23 22 22 21 21 23 24 27
35 37 40 39 35 32 35 38 41 39 36 32 37 33 39 31 31 31 32 33 32 32 29 30 28 28 27 27 28 29 31 32 27 26 25 25 24 24 22 22 24 29 27
35 35 36 39 41 35 30 34 37 40 39 38 36 34 30 31 34 33 33 33 29 27 25 25 25 24 25 27 29 31 33 30 28 28 27 27 26 24 24 27 28 26 23
34 33 33 35 38 38 28 30 34 37 40 39 37 34 32 28 37 38 34 31 28 23 22 19 20 22 25 27 29 31 31 29 28 29 28 27 27 28 28 28 25 23 24
34 33 33 35 37 35 30 27 34 33 36 40 39 32 33 37 31 36 36 31 27 21 20 18 19 22 25 27 29 32 30 29 29 30 29 31 32 27 27 25 24 25 24
31 31 32 35 33 31 30 29 32 33 33 37 36 36 31 34 31 32 34 31 26 23 21 19 18 19 23 26 27 30 31 33 36 36 39 34 24 24 23 24 25 26 27
31 31 32 32 30 30 30 30 30 31 31 33 35 34 33 31 31 27 31 26 22 21 21 19 18 16 16 18 22 23 24 28 28 23 23 22 24 24 23 23 26 29 31
30 31 31 30 29 29 30 29 28 28 29 30 32 31 34 33 28 28 28 26 23 20 20 20 18 16 14 13 14 17 19 20 19 18 20 22 24 24 24 26 30 28 27
29 31 29 29 29 27 25 25 25 25 26 28 28 31 28 35 37 30 26 25 24 24 20 21 23 21 19 18 17 17 17 16 17 20 22 23 24 25 27 30 27 26 26
29 28 29 28 27 25 23 22 22 22 23 26 27 28 28 25 33 35 32 29 29 27 25 23 24 24 23 22 19 20 21 19 19 21 23 24 25 28 29 26 25 25 25

GFSGL_700_spd_087.txt.gz
Wind_Speed
11 12 13 16 18 19 21 23 23 23 24 23 24 22 23 22 22 22 22 18 18 18 18 19 19 21 22 24 25 26 28 29 32 33 32 29 29 29 29 29 30 30 30
12 13 14 16 19 21 24 24 25 27 28 29 28 27 27 26 25 24 23 23 23 21 22 23 25 25 27 27 28 29 29 29 31 31 30 30 30 30 29 29 30 30 30
13 14 16 18 19 20 21 23 24 24 25 26 27 28 28 27 27 26 26 27 29 28 27 26 26 26 28 29 30 30 29 29 29 28 30 27 29 30 31 31 31 32 32
15 16 19 22 22 24 26 27 28 28 28 28 27 27 27 28 30 30 30 31 31 32 33 32 31 30 31 32 30 30 29 27 27 27 28 28 30 31 33 33 33 32 30
23 24 24 24 25 28 29 29 30 31 33 33 33 32 32 32 31 32 32 32 34 34 35 35 34 33 32 31 30 28 26 26 26 28 30 29 29 30 31 31 31 30 29
31 30 29 28 28 29 30 31 31 31 31 33 35 36 37 36 34 34 34 35 36 36 36 36 35 33 31 29 28 26 25 25 27 29 29 29 28 28 30 29 28 27 26
31 31 30 29 29 29 29 30 30 31 32 32 33 35 36 37 35 36 36 37 38 38 37 35 33 31 30 27 26 25 25 26 28 29 28 29 30 30 29 27 26 24 22
32 31 32 32 31 31 31 31 31 31 31 32 33 34 36 37 35 35 35 37 37 37 36 33 31 29 28 26 25 26 26 26 28 29 29 28 29 30 26 24 22 20 16
33 33 34 35 34 34 35 34 33 33 32 32 33 33 35 35 34 35 35 34 34 34 33 31 30 28 27 26 27 26 26 26 27 29 29 28 26 24 22 20 17 16 14
30 31 33 34 34 34 34 34 35 35 35 35 35 34 34 35 35 35 34 33 33 32 31 31 29 28 27 27 27 27 26 27 27 27 27 26 22 20 17 17 15 14 14
29 30 33 34 35 36 36 35 34 33 35 36 36 36 35 34 34 35 34 33 32 33 33 30 29 28 28 28 28 28 27 28 26 26 25 23 19 16 14 14 13 13 12
35 34 32 32 33 32 32 32 34 35 34 35 36 37 36 36 35 34 34 33 34 35 33 33 32 31 30 30 30 30 28 27 26 25 24 21 18 17 17 18 17 15 16
40 40 39 38 37 36 35 33 30 30 33 34 36 36 35 33 34 34 34 34 36 37 35 35 35 35 33 32 32 32 30 29 26 25 24 22 20 18 17 17 17 17 17
43 42 42 42 40 39 39 39 37 32 30 33 36 36 35 33 37 37 35 37 38 37 38 38 38 38 37 35 36 34 31 30 27 25 25 23 21 22 20 19 19 18 17
44 42 40 39 40 40 39 40 41 39 35 32 33 33 35 36 36 37 37 36 38 39 36 39 40 41 39 39 38 36 33 33 29 26 26 25 23 23 22 21 19 20 18
39 37 36 34 33 34 35 35 36 42 41 39 36 36 34 36 39 40 42 42 38 37 40 42 43 40 39 39 39 37 36 35 35 31 29 27 25 24 23 21 21 21 20
35 34 34 34 34 35 34 34 34 33 39 43 42 38 37 37 38 40 42 36 36 38 41 41 40 38 39 39 39 37 37 33 31 33 31 29 28 27 24 23 21 21 21
35 35 35 35 36 37 37 35 32 33 34 37 41 42 40 38 39 41 44 44 43 43 41 35 35 36 38 39 36 35 36 32 31 33 30 29 28 27 26 23 22 24 25
35 36 37 36 36 37 37 37 35 32 31 34 37 41 41 39 37 35 37 39 41 39 35 32 33 36 35 35 35 35 34 32 33 32 31 32 29 28 27 26 25 25 26
37 36 36 36 36 36 37 36 35 36 29 32 33 36 40 40 41 35 36 42 42 36 32 33 30 30 31 31 33 33 33 34 33 33 34 32 28 27 27 27 28 27 28
38 37 35 34 34 35 36 36 36 37 30 29 32 31 34 39 39 41 34 33 38 38 33 32 30 27 27 28 30 30 29 30 31 33 30 28 30 30 30 30 29 30 30
37 36 35 34 33 34 34 35 35 34 30 29 31 29 30 35 36 35 37 35 31 37 34 29 27 28 26 26 27 26 27 28 30 32 32 29 30 32 31 30 32 29 25
33 32 33 34 34 33 33 33 33 31 30 28 31 28 28 33 36 36 31 32 31 34 33 32 31 29 24 23 24 24 25 26 28 31 30 31 34 36 35 32 26 23 23
30 32 33 34 32 34 32 32 30 28 28 27 27 26 27 30 32 36 32 31 30 30 29 29 30 28 20 19 19 19 21 24 25 25 28 27 23 22 24 26 23 24 24
25 26 27 29 33 31 31 30 28 26 25 24 25 25 26 27 28 31 30 28 27 28 29 27 28 23 19 17 15 15 17 19 21 21 20 21 21 22 22 22 23 26 27
22 25 27 30 29 30 29 27 24 22 22 22 23 23 23 24 27 26 30 25 24 25 25 23 20 21 20 17 17 17 16 17 19 19 19 18 19 20 21 23 25 27 29

GFSGL_700_spd_090.txt.gz
Wind_Speed
3 5 8 11 13 14 13 16 18 18 20 21 22 24 22 21 21 21 19 21 19 21 23 23 22 19 20 20 20 22 23 25 26 27 27 26 27 26 27 28 27 27 28
4 7 10 13 14 15 16 18 20 21 23 23 24 25 25 25 25 25 25 23 24 26 23 22 21 20 19 22 24 25 26 28 30 28 28 28 27 26 26 26 27 27 27
8 10 12 14 15 16 17 20 22 23 24 25 27 29 29 29 29 28 27 26 25 25 27 26 25 24 24 25 27 27 27 29 30 28 30 28 27 26 26 27 29 30 30
12 14 16 16 17 17 19 22 24 27 28 28 29 30 29 29 29 30 28 28 27 27 29 31 31 29 30 30 29 30 31 30 29 28 28 27 25 27 29 30 30 29 29
20 21 22 22 23 24 25 26 27 30 31 33 35 36 35 33 33 31 30 31 31 31 33 33 35 36 35 35 34 34 33 31 30 27 27 27 26 26 28 28 29 29 27
28 29 29 28 28 29 29 30 31 31 33 35 36 38 38 38 37 35 34 34 34 35 36 38 38 37 37 38 38 36 34 31 28 27 26 26 25 27 28 29 29 29 27
30 29 29 29 29 30 31 32 33 33 33 33 34 35 36 38 36 36 36 36 37 38 38 39 39 39 38 40 38 35 32 29 27 26 26 26 27 28 29 30 29 27 24
31 31 30 29 29 30 31 32 33 35 36 35 33 33 34 34 35 36 37 38 39 39 39 40 41 41 40 38 35 32 30 28 26 26 26 27 28 29 29 28 27 24 22
35 34 34 34 34 33 31 31 32 34 36 37 38 36 35 33 33 34 37 38 38 39 40 40 40 38 37 35 32 30 29 26 26 26 26 28 27 28 28 26 21 21 17
32 31 31 34 35 36 36 35 34 35 34 35 38 39 38 37 35 34 36 37 38 37 38 38 37 34 33 32 30 29 27 25 26 27 27 26 27 27 25 21 18 18 15
27 30 33 36 37 38 38 36 33 32 33 34 34 36 37 39 38 34 34 34 34 34 35 35 34 33 32 32 30 28 28 27 27 26 26 26 26 25 22 19 17 15 13
34 35 36 38 39 40 41 40 38 35 32 31 33 34 34 37 38 36 34 33 32 32 33 33 33 33 32 32 31 31 30 29 28 27 24 24 23 23 20 18 17 16 16
42 42 42 42 41 41 40 41 42 41 38 35 33 32 33 34 36 37 34 33 32 33 34 35 35 34 35 35 33 33 31 30 28 27 24 25 22 23 22 21 19 19 17
45 44 41 40 41 41 41 41 40 39 39 39 38 36 34 33 32 35 35 34 36 34 34 35 35 36 37 36 36 35 32 31 29 28 27 26 23 22 24 23 22 21 20
44 41 39 37 36 35 34 35 36 35 35 37 39 39 37 34 31 30 32 37 38 38 36 38 40 38 38 37 37 36 33 35 33 31 31 27 25 24 24 25 24 23 22
41 39 37 36 33 31 31 29 29 31 30 31 34 38 39 38 33 32 33 38 36 41 43 39 38 39 41 38 36 36 37 37 35 35 33 31 28 28 27 27 26 25 22
37 36 35 33 32 31 30 31 31 26 29 29 30 34 37 39 39 35 36 36 38 42 37 40 38 38 39 38 39 38 37 37 36 37 36 35 34 33 31 29 26 26 23
36 35 34 34 33 32 32 32 33 34 33 27 28 31 33 37 37 38 36 41 39 34 40 36 39 36 35 33 37 37 35 36 36 35 37 34 30 32 32 30 28 26 24
36 35 35 36 35 35 34 35 34 34 34 34 26 27 29 31 35 37 38 38 37 36 37 42 36 34 31 32 34 34 35 34 35 36 36 33 31 32 32 30 30 28 27
35 34 35 35 35 35 34 34 34 33 32 32 31 25 28 28 30 32 38 38 36 34 36 39 35 30 29 30 32 34 35 35 35 34 33 32 32 32 31 32 31 30 27
31 30 31 32 33 33 32 32 33 33 32 31 30 28 25 31 28 28 32 35 37 34 28 32 32 31 31 28 29 30 32 32 31 30 31 32 32 33 36 32 31 30 28
29 28 28 28 28 31 30 29 31 31 30 30 29 28 25 30 28 27 27 33 34 37 32 28 35 35 31 29 29 30 30 29 29 29 30 30 33 35 33 32 29 28 28
22 23 25 27 27 30 29 31 31 31 31 30 29 26 25 28 28 26 26 29 30 32 33 33 31 34 30 30 30 29 29 28 26 27 28 31 32 31 32 28 29 27 28
20 22 24 25 27 28 28 29 31 30 29 29 28 25 24 27 27 25 25 27 31 27 26 29 27 31 31 30 28 26 26 24 25 25 27 29 29 29 34 31 33 34 32
20 20 20 21 24 25 28 30 29 29 28 27 26 23 23 27 25 23 24 25 28 26 25 27 25 29 30 29 26 25 22 21 22 23 25 27 28 27 23 25 26 28 28
23 23 23 24 26 28 29 29 28 27 25 23 21 20 20 22 21 22 22 22 24 23 24 24 24 26 25 24 23 21 19 18 19 19 19 19 19 21 19 18 19 21 22

GFSGL_700_spd_093.txt.gz
Wind_Speed
6 4 3 1 3 5 7 8 13 16 20 21 24 25 26 28 20 21 22 22 26 21 15 20 19 22 27 30 31 30 29 22 19 24 25 25 26 26 26 27 26 27 25
4 2 2 3 5 8 10 13 16 18 20 22 24 24 24 23 25 25 26 27 29 28 26 24 24 26 30 32 27 23 21 23 24 26 28 28 27 27 27 25 26 26 26
3 5 6 9 11 12 14 16 19 20 22 24 26 28 29 30 30 30 31 31 30 29 28 31 30 31 31 29 26 24 26 27 27 28 29 30 29 28 27 25 25 26 28
8 10 12 14 16 18 20 22 24 25 27 28 29 29 30 30 30 30 31 30 32 32 32 31 32 33 31 31 30 29 28 29 30 31 32 31 30 28 27 26 26 28 28
16 18 20 22 23 25 27 28 29 30 32 32 33 33 33 34 34 34 33 32 33 34 34 34 33 35 35 37 35 34 33 33 33 34 34 32 29 28 27 28 28 27 26
26 27 28 29 30 31 32 34 36 37 37 37 38 37 37 37 38 39 39 37 36 36 36 37 36 37 37 39 38 40 39 37 36 36 35 32 30 29 29 28 27 27 28
28 29 30 29 29 30 32 33 35 37 39 40 40 41 40 39 39 39 40 41 42 40 39 39 39 39 39 40 40 40 39 38 39 37 36 33 29 29 29 26 27 27 27
33 34 35 35 35 34 33 33 34 36 38 40 41 42 42 40 39 40 40 41 41 42 41 41 41 40 41 39 39 40 40 40 39 37 34 32 30 28 26 26 27 26 25
38 38 37 36 35 35 35 36 37 38 39 38 40 42 43 43 40 40 41 42 41 41 40 41 42 42 41 41 39 40 43 42 38 35 33 32 29 27 25 25 25 25 24
37 36 35 36 38 39 41 41 40 40 40 41 43 44 44 44 43 43 41 42 43 41 40 40 40 40 42 42 41 41 40 37 35 34 33 30 27 25 24 25 24 23 20
32 34 35 38 40 41 44 46 46 44 42 40 39 40 42 43 42 42 43 43 42 40 39 38 38 38 39 39 37 38 36 37 35 33 31 28 26 24 22 22 22 21 19
35 35 36 39 42 44 46 46 45 46 46 42 41 39 37 37 39 41 41 41 42 40 38 35 34 36 37 37 38 36 37 36 34 33 30 28 26 23 22 21 21 20 17
43 40 37 37 37 38 41 42 42 43 43 43 39 38 38 38 36 35 37 39 39 39 36 33 34 36 35 37 38 37 37 35 33 32 29 27 26 24 22 21 21 21 20
44 42 39 36 35 35 36 36 38 39 39 39 40 37 37 36 37 36 32 31 35 39 39 38 38 37 38 39 39 41 39 35 33 30 30 30 27 24 22 21 21 23 21
42 41 39 36 34 32 31 32 33 34 34 34 34 34 34 35 34 34 33 28 29 35 41 40 43 38 38 38 40 42 39 38 35 33 33 30 28 27 25 23 22 24 23
41 38 36 35 33 31 29 28 27 29 29 30 29 29 29 31 32 31 33 33 33 28 40 45 42 47 44 39 37 37 36 35 33 34 34 33 31 29 27 26 24 24 26
42 38 36 33 32 31 29 29 27 24 27 27 29 29 28 29 30 29 30 34 33 39 31 40 50 42 37 40 44 39 38 37 36 38 38 35 31 31 30 27 27 28 28
42 39 36 33 32 33 30 28 28 28 28 25 25 29 29 29 30 30 29 31 36 36 36 36 31 34 32 35 35 37 35 35 33 30 30 34 34 32 30 29 30 30 29
36 34 32 31 31 32 31 29 28 27 27 27 26 23 26 26 29 28 29 29 33 36 35 33 36 28 30 33 38 33 32 32 31 31 31 32 33 33 32 29 29 31 32
29 27 26 27 27 26 26 27 27 28 28 27 26 24 23 24 26 26 27 27 28 32 34 33 31 27 29 32 29 28 28 31 31 32 32 33 34 35 31 30 30 31 30
25 24 22 22 21 21 24 26 26 28 27 26 25 24 23 24 24 26 25 25 25 28 32 32 28 27 29 28 29 29 31 30 31 32 33 33 32 32 30 31 32 33 32
24 23 21 20 20 22 24 25 24 26 26 28 25 23 23 23 24 23 25 23 23 25 29 31 29 26 23 28 32 29 29 28 27 30 31 31 31 30 32 31 32 32 33
23 22 21 21 22 23 24 24 26 26 27 27 28 26 24 23 24 24 25 23 22 23 27 30 30 27 21 22 31 31 32 28 25 26 27 29 30 31 31 32 33 35 34
23 22 22 22 22 22 22 23 24 24 27 28 27 26 24 24 23 24 24 23 22 22 25 29 26 27 27 27 26 29 31 28 27 25 25 26 26 27 29 31 34 32 34
26 25 25 24 24 24 24 25 27 29 29 28 27 26 23 22 21 22 23 22 21 22 24 26 24 22 23 26 25 28 28 28 26 23 24 25 25 26 27 27 28 27 28
26 25 25 24 24 24 24 24 25 27 26 24 23 20 19 17 18 18 19 20 21 21 22 25 20 18 23 23 25 27 27 25 21 21 23 22 22 22 21 20 23 25 25

GFSGL_700_spd_096.txt.gz
Wind_Speed
6 6 5 6 7 2 1 0 3 6 8 11 14 16 20 22 29 36 31 32 35 30 33 26 24 25 25 27 16 12 20 24 22 26 27 26 24 24 25 26 26 27 27
9 4 3 4 5 4 6 9 11 13 14 17 20 22 21 20 21 25 25 23 25 27 28 28 27 23 26 25 24 29 34 33 30 31 31 27 24 25 26 28 28 28 28
2 0 3 5 6 9 11 13 15 16 18 20 23 25 25 25 26 27 27 29 30 31 32 31 30 31 31 33 31 34 34 36 34 32 28 27 26 27 28 29 28 28 28
7 10 12 13 14 16 17 19 20 22 24 26 27 28 28 28 30 32 34 35 36 36 36 37 37 36 40 40 41 35 36 30 28 29 33 28 27 28 30 29 30 30 28
16 18 20 22 24 26 27 28 29 30 30 31 32 33 32 34 36 37 37 37 38 38 39 39 40 40 41 38 41 36 36 35 34 35 35 34 30 30 30 31 31 29 29
24 25 27 28 29 30 32 34 36 38 39 39 39 39 38 39 39 40 41 42 41 42 41 40 40 41 42 41 38 38 37 38 39 38 38 36 33 31 32 32 31 30 28
28 29 29 30 33 34 34 35 37 38 40 42 42 43 43 44 43 43 42 42 43 44 44 44 42 42 42 43 42 40 43 44 51 46 41 43 30 30 34 32 31 29 27
33 35 37 38 38 39 40 41 41 41 41 42 45 46 47 46 45 44 44 46 43 42 44 44 46 45 45 42 46 44 46 43 49 42 38 42 35 32 33 32 29 28 27
38 39 41 41 41 41 41 43 45 46 47 47 47 48 50 51 49 48 46 46 46 45 42 42 44 46 47 47 43 41 41 44 38 38 38 36 35 35 33 30 28 28 27
39 40 41 43 44 44 45 47 47 49 50 52 53 52 51 53 52 51 50 50 49 47 46 44 42 43 45 47 42 41 42 43 40 40 38 35 34 34 30 29 29 27 27
41 42 42 42 43 45 47 49 52 54 55 55 55 53 51 49 48 46 43 45 48 49 48 46 44 41 42 44 45 50 49 41 44 43 42 38 34 31 29 28 27 26 25
42 42 42 42 43 46 48 48 49 51 53 56 56 54 49 45 43 44 44 41 41 44 47 47 43 39 38 41 43 41 43 44 44 41 37 34 31 29 29 28 26 25 24
49 49 47 43 40 39 43 44 46 46 47 47 48 49 47 43 41 40 41 42 40 38 41 43 41 37 39 39 40 38 41 43 40 38 34 32 30 32 31 28 25 24 23
51 51 50 49 46 42 39 40 40 40 42 42 43 43 41 40 37 36 39 38 38 37 34 35 37 40 40 39 43 42 41 41 37 36 34 34 36 34 30 28 26 24 24
52 52 50 48 46 42 38 38 38 36 35 35 34 36 36 34 31 32 36 37 37 36 33 33 35 41 39 43 39 41 42 42 39 39 38 38 38 34 31 29 28 26 23
49 48 46 45 42 40 38 36 33 34 31 31 30 30 30 30 27 27 29 32 35 34 34 35 35 39 48 42 38 44 40 41 41 41 41 41 41 36 33 32 30 27 25
38 37 36 36 35 35 34 35 35 28 30 28 28 28 29 28 27 26 27 29 29 33 36 36 38 29 39 46 42 37 37 41 44 40 41 41 42 41 39 36 34 31 28
33 33 33 32 31 30 30 31 32 30 28 27 26 28 28 29 29 26 27 29 28 28 33 37 38 40 27 29 37 39 33 36 34 35 35 35 32 34 36 36 35 34 32
31 31 30 28 26 25 25 26 25 23 25 26 26 24 25 26 28 26 27 29 28 27 28 32 37 35 33 32 22 28 38 38 39 39 35 29 30 34 37 40 38 34 33
30 29 28 27 26 24 22 20 18 23 29 27 24 24 24 25 26 23 25 27 28 27 25 28 32 34 32 27 29 24 27 33 28 33 33 32 31 30 29 29 34 34 33
32 30 28 27 25 24 23 22 24 27 28 26 24 23 24 26 25 23 23 25 26 25 24 25 28 31 31 27 25 25 25 26 27 29 30 30 30 30 29 31 33 35 35
33 33 30 28 26 24 23 23 24 26 26 28 29 27 26 26 26 25 23 22 23 24 23 23 23 25 28 27 24 24 25 25 29 28 30 29 30 31 31 30 30 33 34
32 33 32 29 28 27 26 25 25 25 25 25 26 25 26 27 26 25 23 23 23 22 22 20 20 22 26 27 23 21 25 28 26 24 25 25 26 29 29 29 29 33 34
31 30 30 29 28 27 27 27 26 26 27 27 28 27 26 25 25 25 23 23 22 20 21 19 20 20 25 29 23 19 22 28 26 27 25 23 23 25 26 29 29 28 31
31 31 30 30 28 27 27 26 26 26 25 26 27 27 25 24 22 22 21 20 20 19 19 18 19 19 25 27 27 21 16 24 26 27 26 23 23 24 26 28 29 29 32
31 32 32 31 28 26 25 25 24 24 25 27 25 22 20 18 17 16 16 15 16 18 18 17 18 20 24 22 24 22 19 24 26 28 26 24 24 25 26 26 27 28 31

GFSGL_700_spd_102.txt.gz
Wind_Speed
15 12 18 15 22 20 19 15 7 14 16 11 15 13 20 23 27 27 31 26 25 29 44 46 51 52 60 56 56 54 54 51 49 50 50 45 44 46 44 43 43 36 26
18 20 6 3 3 7 12 13 6 11 14 16 17 17 14 14 17 17 19 19 21 25 40 42 40 39 43 45 40 43 44 40 42 41 42 39 38 39 39 39 40 29 26
7 6 10 10 10 11 15 18 14 16 18 17 20 21 20 19 21 23 24 25 24 26 23 27 24 30 31 37 33 33 40 35 34 39 36 31 29 31 31 33 26 24 23
11 9 11 13 16 17 19 22 22 22 26 28 27 27 28 28 28 28 27 28 29 31 32 33 32 30 30 31 34 34 32 34 32 34 29 28 25 25 27 30 30 26 25
14 16 18 20 22 23 25 27 27 28 30 33 33 34 35 35 36 36 36 36 35 35 35 36 37 39 40 40 40 39 36 35 36 35 36 38 38 43 43 35 37 36 32
17 19 21 23 26 27 29 30 31 33 35 36 38 39 40 42 41 42 42 42 41 42 42 42 42 41 42 43 44 45 44 42 42 42 48 44 46 37 44 43 45 42 32
20 22 24 25 28 30 32 34 36 37 38 40 41 43 43 45 47 48 49 50 49 48 47 47 48 48 47 46 46 46 45 46 46 42 45 41 46 39 35 39 37 34 37
27 28 30 32 33 35 38 40 42 44 45 47 48 50 52 51 52 52 53 54 54 53 54 53 52 50 49 51 51 50 49 49 48 46 47 45 43 39 38 40 44 45 45
31 33 35 37 38 40 41 42 43 44 44 45 48 51 54 55 57 59 61 61 60 58 56 54 54 54 52 51 52 52 52 52 50 50 50 44 40 42 44 43 48 40 39
36 38 40 41 42 42 43 44 45 46 46 47 47 47 49 52 54 57 59 62 63 61 57 54 53 54 52 51 54 52 52 51 50 50 48 45 46 39 40 39 40 33 34
38 39 40 41 42 42 41 40 40 41 41 40 41 41 43 46 49 51 53 55 58 59 58 55 49 47 47 46 47 52 53 50 49 48 45 49 43 47 45 35 35 31 27
38 38 38 37 36 38 40 40 41 41 43 43 43 40 39 40 43 46 49 50 49 51 52 50 46 39 40 43 43 41 43 48 44 43 46 47 47 45 41 35 41 34 26
37 37 37 37 39 38 40 41 41 40 42 42 41 41 39 37 36 38 42 43 41 42 42 43 41 38 36 39 40 39 40 42 42 44 48 48 48 53 39 43 39 41 38
36 37 39 39 40 40 41 42 42 42 42 41 41 40 39 37 34 33 35 36 33 34 36 37 38 37 34 36 39 39 39 41 42 43 48 42 48 42 54 49 41 44 42
36 38 38 39 40 40 39 39 40 39 41 40 38 38 38 36 33 31 31 32 30 30 31 32 33 33 32 33 35 37 34 41 45 45 41 48 43 47 47 35 39 42 39
36 37 38 39 39 39 39 38 35 37 37 37 36 34 34 35 34 32 31 30 30 29 29 29 28 28 29 30 31 32 34 35 37 43 36 41 41 48 41 41 41 37 38
37 39 39 39 38 39 40 41 41 35 34 33 32 32 31 31 30 31 32 32 31 31 29 27 26 25 25 25 27 31 31 31 34 35 38 37 35 36 39 45 42 40 44
37 40 40 38 38 39 40 40 40 40 37 33 29 27 27 28 27 28 30 30 31 30 29 27 25 23 22 23 26 27 38 24 31 29 34 31 36 37 44 41 50 46 45
37 40 38 36 37 39 39 38 38 37 36 34 32 27 26 30 30 31 28 27 28 30 29 26 24 23 21 22 23 25 31 32 24 30 32 32 29 32 35 40 40 40 44
37 41 38 37 38 38 38 38 38 37 35 34 33 30 27 28 28 27 27 27 29 30 30 28 25 22 20 20 22 22 25 28 29 23 29 31 31 25 26 29 36 37 40
38 38 36 36 37 37 38 38 37 36 34 33 33 30 28 28 28 27 26 25 25 26 27 26 24 23 19 19 20 20 23 24 21 19 21 26 27 23 19 23 28 32 33
39 36 35 36 36 37 37 38 37 36 34 33 32 30 28 27 28 28 28 27 27 27 26 25 23 21 19 18 18 17 22 25 24 25 26 25 27 27 24 24 29 31 30
38 35 35 35 35 37 38 38 37 35 33 32 30 30 28 27 27 26 25 26 26 24 23 23 22 19 17 17 16 17 22 26 25 20 18 19 25 27 24 24 26 28 27
36 34 34 34 35 37 38 37 35 32 31 30 29 28 27 26 25 25 25 25 23 21 20 19 19 17 15 15 15 16 21 26 26 19 17 18 22 22 22 22 23 23 20
33 33 33 33 35 37 37 35 34 32 29 28 27 25 24 22 21 19 19 18 17 16 16 16 15 14 14 13 14 15 20 25 21 18 16 15 19 21 21 21 22 22 20
32 32 32 33 34 35 36 35 33 31 28 26 24 22 20 19 17 16 15 14 13 13 13 12 12 12 12 12 13 14 20 21 15 14 14 15 16 17 18 22 22 20 20

GFSGL_700_spd_105.txt.gz
Wind_Speed
16 17 17 17 18 21 25 17 19 28 27 20 19 23 19 18 24 24 26 29 25 27 19 25 45 43 40 52 54 52 56 56 64 57 57 52 51 53 49 48 40 44 42
17 12 15 21 20 23 29 31 16 17 13 7 14 16 16 16 17 17 16 18 19 14 23 23 25 30 29 49 50 58 63 59 61 58 59 52 46 43 40 43 36 39 39
16 8 4 1 6 9 12 16 14 16 18 20 21 21 22 22 22 23 24 24 23 24 26 23 26 23 24 28 35 37 38 40 41 41 35 39 43 40 37 37 39 40 45
7 9 14 14 14 15 16 18 20 21 23 25 28 28 29 29 29 29 30 29 30 30 30 31 31 31 30 29 29 29 34 34 37 33 38 39 36 34 30 29 34 38 39
11 13 14 16 17 19 20 22 24 26 28 28 30 32 34 35 35 36 36 36 37 37 38 38 38 38 38 38 39 38 34 33 28 37 32 34 35 31 30 24 28 27 29
14 16 18 19 21 23 25 27 28 30 32 33 35 37 38 39 41 43 44 42 43 43 43 44 45 45 46 45 44 43 44 42 42 42 42 40 37 37 34 33 33 39 36
19 20 21 23 25 27 30 32 34 36 38 39 41 43 43 44 46 47 48 49 49 49 49 49 50 49 50 52 52 51 49 48 48 47 47 44 45 40 42 43 36 31 41
22 24 26 28 30 32 34 36 37 38 39 40 41 43 46 47 49 51 53 54 55 54 55 55 54 54 55 55 57 57 57 55 53 51 51 48 45 46 41 44 41 32 36
27 29 30 32 34 35 36 36 36 36 36 37 38 40 41 42 45 47 50 53 55 58 58 57 57 57 55 56 58 59 59 60 58 56 54 54 51 51 45 45 50 47 43
30 32 34 35 36 35 35 35 35 38 37 37 37 38 38 38 38 39 41 45 47 49 53 57 59 60 56 52 54 59 61 57 56 58 57 55 54 53 51 48 44 42 42
34 36 37 37 37 37 36 38 38 38 38 38 38 34 34 35 35 36 37 40 43 45 48 50 52 53 52 49 42 46 51 55 54 53 56 54 49 51 49 47 52 46 43
35 35 34 34 35 36 37 37 37 39 40 39 38 36 35 36 36 38 40 40 40 42 43 44 46 48 47 44 42 38 41 46 49 48 50 52 41 44 52 51 46 47 38
34 33 33 34 35 37 38 38 37 38 39 39 39 39 38 35 34 35 37 37 37 37 38 38 38 38 40 38 37 36 41 46 47 47 43 43 49 40 53 42 52 43 48
34 34 33 34 35 36 37 37 36 37 39 40 39 39 38 37 33 33 32 32 31 32 32 32 33 34 35 35 34 33 39 41 44 41 42 37 38 42 46 48 48 54 51
32 32 33 34 36 35 34 35 36 37 40 42 42 41 39 38 34 32 31 30 29 30 32 32 31 30 31 30 30 30 35 34 36 41 36 41 39 42 39 42 45 45 44
31 32 33 35 36 36 35 33 34 37 37 36 37 39 38 35 33 31 29 27 28 29 30 31 30 29 29 27 25 26 29 29 31 37 36 35 39 35 38 37 39 46 45
31 32 33 36 37 36 36 39 40 33 33 35 35 35 35 34 32 30 29 29 29 29 29 29 29 28 27 25 24 24 25 25 27 31 35 32 33 35 35 37 38 39 41
31 33 34 36 36 35 37 38 40 42 41 37 34 34 32 31 31 29 29 30 30 29 29 29 28 27 25 24 22 22 22 22 24 27 27 30 35 39 32 37 33 37 34
30 32 33 35 34 35 37 38 39 40 41 40 37 34 32 28 28 29 29 29 29 29 29 31 29 28 26 23 21 20 20 20 23 28 20 24 27 31 35 31 33 33 31
29 32 35 34 33 34 36 37 38 39 39 38 36 34 32 29 27 26 25 26 26 27 28 30 27 26 25 22 21 20 18 18 19 18 25 16 22 26 28 29 33 32 34
28 31 34 33 33 35 37 38 39 39 38 36 35 32 30 29 29 28 28 27 27 27 28 29 26 24 23 21 20 18 16 16 17 18 17 28 24 24 29 28 29 30 30
29 31 32 32 33 35 37 39 39 38 36 35 32 30 29 28 28 27 26 25 26 25 26 28 26 23 20 18 18 16 14 14 15 19 15 17 17 17 23 28 28 27 28
29 31 32 32 34 35 36 38 39 38 36 33 31 29 27 27 25 24 24 24 24 25 25 24 22 19 16 16 16 13 12 13 14 22 19 16 18 19 21 25 27 27 27
29 31 31 31 33 34 36 37 39 36 33 30 28 26 25 24 23 21 21 20 20 19 19 18 18 15 13 13 13 11 11 12 16 21 17 18 16 16 20 23 22 21 23
27 30 31 31 32 32 34 36 36 35 32 28 25 24 23 22 21 20 19 18 17 15 14 14 13 11 11 10 10 9 10 11 14 18 14 14 12 13 17 17 18 19 20
26 29 29 29 30 30 32 34 32 30 30 27 24 22 21 21 20 19 18 16 14 12 11 9 8 8 8 6 7 7 8 10 12 13 11 9 9 11 13 16 19 19 19

GFSGL_700_spd_108.txt.gz
Wind_Speed
12 13 13 15 15 21 22 23 23 23 24 28 26 25 27 21 26 30 29 28 32 31 27 30 35 24 24 40 39 37 37 42 51 52 53 53 50 49 52 55 51 46 50
11 18 14 22 25 13 17 23 28 32 32 30 29 34 25 19 19 21 26 23 27 29 21 25 27 31 31 30 26 25 41 41 45 40 53 51 55 57 58 61 63 60 49
7 7 9 11 10 8 6 6 9 12 16 16 16 19 21 25 25 26 26 28 29 28 28 29 29 27 26 24 26 27 30 30 32 38 38 42 48 56 61 48 47 45 46
7 6 9 12 13 14 13 15 17 19 21 22 23 26 28 30 31 32 33 33 34 34 34 33 34 33 33 34 33 33 31 30 32 39 37 37 34 34 29 34 39 40 38
9 10 12 14 15 17 18 20 21 23 24 26 27 30 31 33 36 36 37 38 38 38 39 40 40 41 41 41 40 38 40 42 42 40 29 33 34 37 33 30 31 33 35
13 15 16 17 19 21 23 24 26 27 29 31 33 34 36 38 41 43 44 45 44 44 44 45 45 46 47 48 48 49 47 46 45 45 46 42 35 34 34 30 33 32 32
18 19 20 21 22 24 25 27 29 31 33 34 36 37 38 39 41 42 43 45 46 46 47 48 48 50 51 52 53 54 54 54 53 49 50 49 46 45 32 40 38 35 38
19 21 23 24 26 29 30 32 33 33 34 34 35 37 38 40 42 44 46 47 47 46 47 47 48 48 48 52 55 57 58 58 57 56 56 53 52 50 49 43 39 40 42
23 26 27 28 29 31 31 32 33 32 34 35 37 38 41 41 42 44 45 46 47 47 47 47 49 50 49 49 51 54 57 60 60 60 60 60 58 53 52 49 51 42 49
27 28 29 30 30 31 31 32 33 33 34 36 36 37 37 37 37 38 39 41 42 43 44 45 46 48 51 53 55 56 57 52 55 58 61 62 61 60 55 58 47 51 56
28 29 30 31 32 33 33 34 35 36 37 37 35 34 35 37 36 37 39 40 41 41 41 41 43 45 47 50 51 55 57 57 55 52 55 59 61 62 59 57 59 57 57
29 30 32 33 34 33 33 34 36 37 36 35 35 34 35 35 35 36 36 35 36 39 38 38 37 36 37 40 44 46 47 49 52 51 48 50 58 57 57 56 54 62 62
29 30 31 33 34 34 35 35 36 36 36 36 38 38 37 35 35 35 36 37 36 36 35 35 34 34 34 34 36 38 40 41 41 44 47 48 49 53 53 51 48 51 58
29 30 31 31 32 33 35 36 35 34 35 37 38 40 40 39 37 35 34 34 34 34 32 31 31 31 30 32 34 35 36 39 39 41 44 47 47 48 48 47 48 44 53
29 30 30 31 32 32 33 33 33 34 36 38 39 41 42 42 38 36 34 33 31 31 32 30 30 30 30 31 31 32 32 34 35 35 35 36 41 39 41 43 46 51 47
29 30 30 32 33 33 34 30 32 34 34 35 36 39 41 42 42 38 35 33 30 30 32 32 30 31 31 30 30 29 28 30 31 31 30 32 27 33 32 45 41 43 51
30 30 30 32 33 34 34 34 32 26 32 36 38 39 39 41 40 38 35 33 32 32 32 32 33 32 30 29 29 28 27 27 27 26 26 23 26 32 36 34 33 46 36
31 31 31 32 33 34 33 34 34 36 38 35 34 37 38 37 36 34 33 33 33 31 31 31 31 31 30 29 28 27 26 25 23 22 21 25 17 26 36 30 31 29 34
30 30 31 32 33 34 33 33 34 37 40 41 41 38 36 34 32 30 30 30 32 31 30 30 30 29 29 27 27 26 25 24 21 19 19 18 19 20 24 29 29 32 32
28 29 30 31 32 32 32 33 35 37 39 41 41 39 35 33 31 29 28 28 29 30 30 30 30 29 27 26 26 24 24 22 20 18 20 19 24 14 16 19 27 33 28
26 28 30 30 32 31 31 32 34 36 39 41 39 35 32 32 30 29 29 28 27 27 27 27 26 25 24 23 23 22 22 19 18 16 18 15 17 21 22 17 19 27 29
25 27 29 29 32 31 31 32 33 36 38 40 38 33 29 28 27 27 26 24 23 23 24 25 25 24 22 20 19 19 19 17 16 14 17 16 13 13 14 15 16 22 26
26 27 29 29 31 30 30 30 32 34 36 38 37 32 28 26 25 24 24 22 21 19 19 19 19 16 15 16 16 17 16 15 14 13 17 17 13 13 13 15 15 16 23
26 27 28 27 29 29 29 29 31 33 34 34 35 31 27 25 24 23 22 21 20 18 17 16 14 12 12 13 14 14 14 12 12 12 15 18 12 12 13 14 15 16 19
26 27 27 26 28 28 27 28 30 32 32 32 31 29 26 23 22 22 21 20 18 16 15 13 11 9 9 10 11 11 9 9 8 9 11 11 12 12 10 11 12 15 17
26 26 25 25 26 26 25 26 29 30 31 30 29 26 25 23 22 21 20 19 17 15 13 10 8 7 7 8 8 6 6 5 5 7 9 9 8 6 5 9 13 14 17

GFSGL_700_spd_111.txt.gz
Wind_Speed
12 10 12 14 10 16 16 20 17 16 18 21 22 26 30 29 28 35 42 37 40 39 38 39 34 41 45 47 39 33 29 44 37 41 44 43 42 41 43 55 61 56 60
8 12 15 17 17 20 21 20 24 24 25 30 32 32 35 39 29 45 36 33 33 35 34 36 30 38 40 35 37 44 37 30 35 39 32 36 39 40 43 49 49 51 61
8 8 9 10 10 14 16 16 14 14 14 15 19 23 25 24 24 26 26 27 27 29 33 32 31 33 32 32 33 34 34 33 31 29 32 36 34 35 45 39 35 41 51
9 9 8 10 12 13 14 14 18 19 20 22 24 26 27 30 32 32 33 34 35 36 37 39 39 40 39 40 39 37 37 35 29 30 31 31 32 33 32 33 36 37 34
13 14 15 16 17 18 19 19 20 21 23 24 26 28 30 32 34 35 36 37 38 39 40 42 43 44 45 46 46 45 43 43 40 41 41 42 40 35 34 33 34 36 35
17 18 18 19 20 21 21 22 22 23 25 26 28 29 30 31 33 35 37 37 38 40 42 43 44 45 47 48 50 50 50 50 49 48 47 48 49 47 41 37 36 35 33
20 21 21 23 24 24 24 25 26 26 27 27 28 29 30 32 34 35 37 38 40 41 42 43 43 43 44 47 50 51 52 55 56 55 55 53 53 50 47 47 45 38 33
23 24 25 26 26 26 26 27 27 28 28 29 30 32 32 34 36 38 40 40 40 40 41 41 42 41 42 44 44 46 49 52 55 56 59 59 58 55 53 52 52 48 49
25 26 27 27 26 27 27 27 28 29 31 32 34 36 37 39 41 42 42 42 42 42 42 43 43 42 42 43 46 47 46 46 46 50 56 60 61 60 57 53 54 56 49
27 28 28 27 27 27 29 30 30 32 33 34 35 37 38 37 38 38 40 42 42 43 42 43 44 46 47 48 49 50 52 51 50 49 48 50 55 57 58 58 56 56 58
31 32 31 29 27 28 29 30 31 31 32 33 34 35 35 36 36 38 38 40 40 41 41 41 42 42 43 44 46 48 49 51 54 55 53 51 49 51 55 55 57 57 58
32 32 30 29 29 30 31 32 33 34 35 35 35 33 33 34 35 36 36 37 38 41 40 39 40 39 40 40 40 41 43 46 46 48 50 51 51 49 48 51 53 58 59
32 31 30 30 31 31 31 32 33 36 37 35 35 35 33 32 32 34 35 36 37 38 39 39 38 36 34 33 33 35 36 39 41 44 44 44 46 50 47 46 50 55 60
29 28 29 30 31 32 33 33 33 35 35 34 34 34 34 35 35 37 38 38 38 38 39 38 36 34 32 32 31 28 30 33 36 39 40 40 38 39 44 46 44 50 55
28 29 29 30 30 30 31 33 34 33 34 34 33 36 40 41 40 40 40 39 37 35 36 37 36 34 33 32 30 31 30 30 32 34 36 37 36 36 36 38 39 41 46
27 29 30 30 30 30 32 32 33 32 31 32 35 39 41 42 43 43 40 37 35 33 34 34 33 33 33 32 31 30 30 30 30 31 33 34 33 32 32 29 27 33 32
29 29 29 30 31 32 32 33 30 27 28 31 35 37 40 43 43 41 39 37 35 34 35 33 33 33 33 32 30 29 29 29 28 28 29 28 27 27 26 26 31 30 31
29 28 30 30 31 31 32 33 32 29 29 32 33 38 41 42 41 37 35 35 33 32 34 34 32 31 31 30 29 28 28 28 27 27 26 25 24 23 26 26 23 25 32
28 29 29 30 30 31 32 32 32 32 33 35 36 37 40 40 34 30 31 31 31 32 32 33 32 32 31 30 29 29 29 27 26 25 23 21 21 19 25 24 17 21 30
28 28 29 29 29 31 31 31 31 31 33 36 38 40 40 40 32 29 28 28 30 30 30 30 30 29 27 26 25 26 26 25 23 22 21 20 20 20 19 24 13 15 24
27 28 27 28 28 30 29 30 30 31 33 36 37 36 37 38 33 30 29 28 29 29 28 27 26 25 24 23 24 24 24 22 20 19 18 17 18 19 18 21 16 14 17
28 27 27 27 28 28 28 29 29 31 33 35 35 34 33 35 31 29 28 28 27 27 26 25 22 20 19 19 19 20 19 18 17 17 16 15 16 17 15 14 12 13 13
27 27 26 27 29 27 27 27 27 30 32 33 34 33 32 31 30 28 27 26 25 25 23 22 20 16 16 16 17 17 16 15 15 14 13 13 14 16 14 11 11 11 9
26 26 26 27 28 26 26 26 26 28 31 32 32 31 31 29 28 28 27 26 25 23 22 20 17 16 15 15 14 14 13 13 12 11 12 12 14 14 12 12 11 9 7
26 25 25 26 27 24 24 24 25 27 29 30 30 30 29 28 26 25 25 25 24 22 20 19 17 15 14 12 12 12 10 9 10 10 8 7 12 12 13 12 9 8 9
26 25 25 26 25 23 23 22 23 25 27 27 27 27 27 26 25 24 23 22 22 20 20 19 16 14 12 10 9 8 9 9 8 2 3 4 10 11 9 7 6 8 10

GFSGL_700_spd_114.txt.gz
Wind_Speed
12 10 11 11 13 13 14 13 17 16 18 17 20 19 22 23 21 27 25 30 33 34 39 39 39 36 39 38 39 40 43 48 42 43 39 36 35 32 29 34 41 43 42
11 14 12 12 14 13 13 16 19 23 23 24 26 27 29 28 34 33 35 40 34 33 40 38 41 42 41 41 46 43 41 37 42 45 49 38 37 36 37 36 37 34 33
11 11 11 10 11 11 11 12 14 16 16 17 20 19 21 23 25 25 26 28 29 30 33 32 32 31 32 31 35 30 32 36 34 37 42 44 37 23 22 28 26 30 33
15 15 16 16 17 17 17 18 19 20 21 21 23 24 26 28 30 30 31 31 32 36 36 35 37 37 38 41 42 42 43 42 41 41 38 37 40 33 33 31 35 31 36
17 17 18 19 19 19 20 21 22 23 23 24 24 26 28 29 31 31 31 31 34 35 37 37 38 40 42 43 45 45 45 46 45 46 46 44 40 38 38 35 35 35 35
22 22 23 23 22 22 23 23 22 22 23 24 24 24 25 26 27 28 29 30 32 33 34 34 36 38 40 41 42 43 45 47 49 50 50 49 48 47 46 48 46 44 41
25 26 26 26 27 27 27 25 23 22 22 22 23 24 25 27 28 30 31 32 33 33 34 35 35 36 37 41 38 40 41 44 47 49 50 51 52 52 53 51 50 52 52
27 28 29 30 30 31 30 28 26 25 26 26 26 27 28 29 30 32 33 34 33 33 33 33 34 34 34 37 37 38 38 38 41 45 49 50 51 52 52 54 55 56 55
29 29 30 30 31 30 28 27 27 27 28 28 29 29 30 31 33 33 32 32 33 33 34 36 38 39 37 36 39 40 41 39 40 40 42 45 47 49 50 53 53 55 58
30 30 30 30 30 29 27 27 27 28 29 30 30 31 32 34 35 36 37 38 39 39 37 36 37 38 41 41 43 44 44 42 42 40 39 41 43 43 44 47 49 54 55
30 30 31 32 31 28 27 28 28 29 30 30 31 32 33 33 32 33 34 34 35 35 35 35 37 38 39 41 41 42 44 44 44 43 43 41 39 40 42 43 46 50 51
29 30 31 31 29 29 29 30 30 31 31 31 31 30 29 29 30 30 32 34 37 39 39 38 38 38 38 38 39 39 39 40 42 42 41 39 40 39 39 40 41 44 49
28 29 29 27 27 28 29 30 31 32 31 31 31 29 27 26 28 33 35 36 37 39 39 40 39 37 36 35 34 35 36 37 38 39 39 39 38 38 39 40 40 40 44
28 27 25 26 28 29 29 29 29 30 31 32 30 29 28 30 32 33 35 38 38 38 38 38 37 37 35 34 32 31 33 33 34 35 37 36 35 36 35 35 38 40 41
24 25 28 29 28 28 28 29 29 30 32 32 30 30 33 33 33 37 40 42 41 38 37 36 35 34 33 32 32 33 30 29 32 33 34 34 33 33 32 32 33 34 38
27 28 29 28 27 29 29 27 28 30 31 30 30 33 34 36 38 40 40 41 37 33 34 34 32 31 31 31 30 30 28 29 29 31 31 32 32 32 30 29 30 30 32
27 27 27 27 29 29 29 29 29 28 29 29 29 31 33 35 37 37 39 38 33 32 32 31 32 31 31 30 30 29 28 28 28 29 30 30 31 30 28 28 28 27 23
26 26 27 28 28 29 29 29 30 29 27 25 27 30 33 36 36 36 38 36 32 30 31 32 33 33 32 30 29 28 28 27 27 28 27 28 28 28 27 27 24 25 28
26 27 26 28 28 28 29 29 30 27 26 27 28 30 33 33 33 33 34 32 31 30 30 30 31 30 28 27 26 26 25 25 24 25 25 25 26 26 25 24 21 21 23
27 26 26 27 28 26 27 30 28 27 27 27 29 32 34 34 32 31 31 30 29 29 29 29 29 27 26 25 24 24 24 24 24 24 24 24 25 24 22 20 19 21 24
27 26 27 28 27 27 26 28 26 26 27 27 29 32 34 34 32 30 31 28 27 28 28 28 27 26 25 25 24 23 23 22 21 21 22 22 21 19 17 16 20 22 28
28 27 27 27 28 28 27 27 25 25 27 27 29 31 32 30 30 28 28 27 26 26 27 27 26 24 23 23 22 20 19 18 19 20 19 19 17 15 14 15 17 19 17
28 27 27 26 26 27 28 25 24 25 25 26 29 30 30 28 28 27 26 26 25 26 26 27 25 23 21 20 19 18 17 16 17 17 16 14 12 13 13 14 16 16 13
28 27 27 26 25 26 28 23 22 23 24 25 27 28 27 26 26 26 26 25 25 24 25 25 24 22 20 19 18 18 17 16 15 13 14 12 10 10 13 14 17 16 12
26 26 27 25 25 25 27 22 21 22 22 24 25 26 25 24 24 24 25 25 25 25 24 23 22 21 19 18 18 17 15 14 14 14 12 9 7 9 12 15 15 13 8
25 26 27 24 24 25 25 20 20 20 20 22 24 25 24 23 22 23 23 24 25 25 24 23 22 20 18 17 17 17 15 14 13 9 5 5 9 12 14 12 10 9 7

GFSGL_700_spd_117.txt.gz
Wind_Speed
16 16 15 18 16 17 15 12 10 15 15 15 15 15 19 17 20 22 23 23 26 26 28 32 32 40 33 39 41 43 48 42 48 44 39 39 44 47 40 40 44 37 42
16 17 18 18 18 18 16 16 17 18 18 18 20 23 23 25 25 25 30 31 32 32 34 37 35 36 41 44 50 44 53 44 54 49 47 44 44 38 46 43 38 37 35
17 18 19 19 19 19 20 20 21 22 23 22 20 20 21 23 24 24 26 27 28 28 29 33 32 31 36 36 36 39 39 38 49 43 38 44 35 38 32 38 45 45 45
20 21 21 22 22 22 22 22 23 23 23 24 24 24 24 26 26 27 28 29 30 31 33 34 35 37 41 40 40 39 40 40 38 36 43 37 41 39 40 36 38 31 28
21 20 21 21 21 22 23 24 24 24 23 23 23 24 24 25 25 25 24 25 27 28 30 31 33 35 36 38 37 36 39 41 42 44 46 47 46 44 46 42 41 36 34
22 22 23 24 25 26 26 26 25 24 24 24 24 24 24 25 25 25 26 26 28 29 30 31 32 33 36 36 37 37 39 40 41 42 44 46 46 47 48 47 46 43 44
23 23 25 26 26 27 27 27 27 25 23 22 22 23 24 24 24 26 27 29 29 30 30 30 30 31 33 35 34 34 36 37 40 41 41 42 44 44 47 46 49 50 50
24 25 26 27 27 27 28 28 27 25 24 24 24 25 26 28 28 27 27 28 29 30 30 31 31 30 32 33 33 33 34 34 37 39 40 41 43 42 44 46 47 50 52
25 27 27 27 28 28 29 28 26 25 25 26 26 27 28 29 29 30 30 28 27 27 27 29 30 29 30 31 33 32 32 31 35 37 38 40 40 41 43 47 45 48 50
26 27 28 28 29 30 29 27 26 26 26 28 28 29 30 29 29 29 30 30 28 26 25 27 29 31 32 34 37 39 39 36 37 36 34 34 35 36 38 42 46 49 50
26 27 27 28 29 28 27 27 27 28 29 29 28 29 29 29 28 28 28 29 31 32 32 32 33 34 36 36 36 38 38 39 41 41 39 36 35 35 36 38 41 44 48
25 25 26 27 26 25 28 30 31 30 30 30 29 29 30 28 27 26 28 30 30 32 33 35 36 36 36 36 36 37 37 38 38 38 38 36 35 34 34 34 36 39 43
23 23 24 23 25 28 30 30 29 30 30 31 31 29 26 24 25 28 27 28 31 35 37 39 37 35 34 34 34 35 37 37 37 38 38 36 34 33 33 34 34 35 39
21 22 22 25 28 30 30 29 31 32 31 32 32 30 26 23 25 27 28 31 33 35 37 37 34 31 29 31 32 32 32 34 35 36 36 35 34 33 33 33 34 34 36
18 21 25 27 27 27 28 31 31 31 32 31 31 29 26 25 27 30 33 35 37 37 40 36 32 29 28 28 29 30 30 31 32 33 34 34 32 31 31 31 33 33 35
19 23 25 24 25 26 27 27 30 30 30 31 30 28 27 29 31 34 36 36 34 36 36 32 30 29 30 30 30 30 30 29 29 31 31 31 31 30 31 30 31 31 32
20 22 24 25 26 26 28 29 26 25 29 29 27 27 29 30 33 34 34 32 32 34 32 30 30 30 30 31 31 29 29 29 30 30 30 30 31 31 31 29 30 30 30
20 23 24 25 24 26 27 28 29 27 28 25 25 26 28 30 32 33 33 32 31 29 30 29 29 29 29 29 29 29 28 28 27 26 26 27 29 30 30 29 28 28 27
21 23 25 25 25 27 27 26 27 28 29 25 25 25 27 29 30 30 30 30 30 28 28 28 28 28 27 27 27 26 26 25 24 24 25 26 26 28 27 27 27 24 24
22 24 25 26 26 26 27 26 26 28 27 25 25 26 27 28 28 26 28 27 27 27 27 27 27 27 27 27 26 25 23 21 21 22 23 24 24 25 26 24 23 22 19
22 24 25 27 26 26 26 26 26 28 24 24 24 25 27 29 28 27 27 25 25 26 27 27 25 25 26 25 25 24 23 21 21 22 23 23 23 23 22 22 20 18 17
23 24 26 27 26 26 26 26 26 28 23 24 23 24 26 27 27 25 26 26 25 24 25 25 24 24 24 24 24 24 23 21 21 22 22 21 21 19 19 17 16 15 18
23 23 26 26 26 26 25 26 27 27 22 23 23 24 24 25 25 24 24 25 24 24 25 26 25 23 23 24 24 24 23 21 20 20 19 17 16 17 16 14 13 16 21
22 23 25 25 26 25 24 24 26 24 22 21 22 23 24 24 23 23 23 24 24 24 25 25 25 25 24 23 22 21 20 20 18 17 17 16 14 14 12 12 14 17 21
22 23 24 24 26 24 24 23 24 22 21 21 21 22 22 23 22 22 23 24 24 24 24 24 25 25 24 22 22 21 20 20 19 17 14 11 11 12 13 15 18 19 17
22 22 23 24 25 24 23 23 22 20 20 20 20 20 20 20 22 22 22 22 22 23 24 23 22 22 23 22 20 18 17 19 17 15 10 9 12 17 18 16 14 14 13

GFSGL_700_spd_120.txt.gz
Wind_Speed
16 17 17 18 19 18 19 20 19 20 19 19 18 19 20 20 19 17 19 22 23 24 25 26 27 30 31 35 33 42 43 41 47 43 45 47 47 45 42 39 46 46 44
15 16 17 18 18 19 20 20 20 20 21 20 19 19 17 17 18 21 23 24 26 28 29 30 32 32 38 37 41 42 41 43 48 49 52 46 44 43 41 36 36 44 45
14 16 17 18 18 19 19 20 22 23 24 24 23 21 19 19 20 22 24 25 27 28 30 31 33 34 34 33 34 40 38 39 41 44 48 44 47 52 52 48 44 53 49
17 18 18 19 20 21 22 22 23 24 25 24 24 24 25 23 22 22 23 25 26 28 30 31 33 34 37 38 38 38 39 41 42 43 44 43 41 38 39 39 41 39 43
19 20 21 21 22 22 23 24 26 26 26 24 24 24 24 23 24 24 23 24 25 26 27 28 29 31 33 34 35 35 38 40 40 41 44 43 41 42 43 39 45 41 41
21 21 22 22 23 24 25 26 27 27 27 27 26 25 24 24 23 23 23 25 26 27 28 28 29 30 31 32 33 35 37 37 38 40 39 39 39 42 43 45 47 49 48
22 22 23 23 24 25 25 26 27 28 28 27 27 27 27 26 26 26 27 28 28 28 29 30 29 31 32 32 32 32 33 35 37 38 37 37 38 39 41 42 44 48 47
23 23 23 24 24 25 25 26 26 25 24 25 25 26 27 28 28 29 30 30 31 32 32 32 30 29 30 31 32 31 30 32 35 37 38 37 39 38 41 42 41 44 45
22 23 24 24 25 24 24 24 24 23 24 25 26 28 29 30 31 31 31 30 29 29 29 28 29 29 30 31 32 32 31 30 34 36 37 37 39 40 40 42 42 45 45
23 23 24 24 24 24 25 24 23 24 26 27 28 29 30 30 30 31 33 32 29 27 26 27 27 27 29 31 34 36 35 33 34 35 35 36 36 37 40 42 43 44 45
23 23 24 24 23 24 24 24 25 27 27 27 29 30 30 32 32 32 31 30 29 28 25 25 28 31 32 33 34 36 37 37 39 40 39 37 34 35 35 37 39 42 43
22 23 24 22 23 23 24 27 28 28 26 28 29 30 32 32 32 30 28 27 28 28 29 31 33 34 36 37 36 35 35 35 36 36 38 38 37 35 34 33 35 38 40
21 22 21 21 22 25 27 28 28 28 28 28 28 30 29 31 30 28 27 28 29 32 34 34 34 35 37 37 36 34 33 32 33 34 35 35 35 33 34 33 34 35 38
21 20 20 21 25 26 26 27 28 28 29 29 30 29 29 29 27 26 27 28 31 32 33 32 32 35 34 32 31 31 31 32 33 34 35 36 36 35 34 33 35 33 37
20 19 20 22 24 25 27 28 28 28 28 29 29 29 31 27 24 26 28 31 33 34 34 34 34 32 30 30 29 29 30 32 34 35 37 38 37 36 35 33 33 33 35
19 19 21 22 23 25 26 27 29 28 29 30 30 31 30 27 26 28 30 33 33 32 32 31 30 31 30 30 30 30 31 30 31 32 34 34 35 34 33 32 32 33 34
20 20 22 23 24 26 26 26 27 28 28 29 30 31 28 27 28 29 32 31 29 29 27 26 26 27 28 28 29 29 29 29 28 29 30 30 31 30 30 30 29 31 31
21 22 23 23 25 26 27 26 26 26 26 25 29 29 26 26 28 30 32 29 27 26 26 24 23 24 24 25 26 26 26 25 25 25 26 26 26 28 28 27 28 29 29
22 23 23 24 25 26 27 27 26 27 28 26 27 25 25 25 28 30 31 29 28 25 24 24 25 26 25 25 25 25 24 23 24 23 22 23 24 26 26 26 26 26 27
23 23 24 25 26 27 28 26 26 27 28 27 27 24 23 24 26 27 28 26 26 25 25 25 24 26 27 27 27 27 26 24 24 23 23 23 23 24 24 24 25 25 25
25 24 25 25 26 27 28 26 25 27 27 28 26 23 23 24 26 27 26 25 25 25 25 25 25 25 25 25 25 25 24 23 24 24 24 23 23 23 23 23 23 22 20
26 26 25 25 26 28 27 26 25 26 26 27 23 21 22 24 25 26 25 24 23 24 27 27 26 25 25 25 25 24 23 21 22 22 21 21 21 20 20 19 18 17 15
26 26 25 25 26 27 27 25 24 26 25 26 22 20 20 22 23 24 24 24 23 24 26 27 27 26 25 25 24 24 23 21 20 20 20 18 18 18 18 17 15 14 15
26 26 25 25 26 26 26 24 24 25 25 25 21 19 18 20 21 22 23 23 22 22 24 24 25 25 25 24 23 22 21 20 21 20 20 18 15 13 13 13 15 17 19
25 26 25 25 25 26 26 24 23 24 24 23 20 18 18 19 19 21 22 22 21 21 21 21 22 23 22 21 21 21 21 21 20 19 17 16 14 14 17 20 21 21 20
24 26 25 25 25 25 25 23 22 23 23 21 19 18 16 17 17 18 20 20 20 20 20 20 20 20 19 19 21 24 23 20 19 19 18 14 15 19 21 19 16 16 18

GFSGL_700_spd_123.txt.gz
Wind_Speed
15 14 15 17 18 20 21 22 22 23 24 25 27 24 21 20 20 18 17 16 18 20 22 22 24 25 27 27 28 31 33 36 39 42 43 44 40 39 43 44 44 44 50
18 17 16 17 18 19 20 21 21 23 24 24 24 25 26 23 22 23 23 21 22 22 21 22 25 26 27 29 31 34 38 38 41 42 40 40 40 45 50 46 47 42 46
20 20 18 18 19 19 20 21 22 22 23 24 25 25 24 23 22 22 24 26 27 25 25 26 28 30 30 31 32 34 36 38 38 39 40 40 39 40 42 45 52 50 51
21 21 20 20 20 22 23 24 24 24 25 25 23 22 22 23 24 24 24 25 25 25 26 26 27 27 28 29 30 31 34 36 38 40 42 43 43 43 42 41 40 42 39
22 21 22 22 22 23 24 25 25 26 26 27 27 26 23 22 21 22 23 23 24 26 27 27 28 29 29 29 30 32 33 34 36 37 39 41 40 41 43 43 44 42 43
23 22 23 23 23 24 25 26 26 26 26 26 26 25 25 25 25 24 24 25 26 26 26 28 29 30 30 31 32 33 35 36 36 37 38 39 39 39 40 40 42 42 43
22 23 23 23 24 25 25 25 25 25 26 25 24 24 24 26 28 30 29 29 29 30 30 30 31 31 32 32 32 33 33 34 36 38 37 37 38 38 39 39 39 42 41
21 23 23 23 24 24 24 24 24 24 24 23 24 26 28 28 28 28 30 32 32 32 33 32 32 31 31 32 33 33 33 32 34 36 37 35 37 35 38 39 38 41 40
23 23 23 23 23 23 24 23 24 24 23 24 26 27 27 28 29 29 30 30 31 33 32 31 29 30 30 30 30 30 31 30 33 36 37 37 36 37 38 41 39 42 42
24 23 22 23 23 23 24 24 23 23 26 28 29 27 28 27 28 30 31 30 30 29 28 28 29 27 28 31 33 33 33 32 34 36 38 37 36 37 38 41 43 44 44
24 22 22 22 22 23 23 23 25 27 29 29 29 29 30 29 30 30 30 31 30 27 26 27 27 30 32 34 35 36 37 38 38 38 39 39 34 33 34 36 39 42 45
23 22 22 22 22 22 22 24 27 28 28 28 28 30 30 30 30 29 30 29 27 26 26 28 31 33 34 34 35 37 38 39 38 37 37 36 35 34 32 32 33 36 38
23 22 22 22 22 21 23 26 27 27 27 28 28 30 30 30 30 31 29 26 27 29 31 33 32 32 33 34 34 33 33 33 34 34 34 34 36 36 35 34 34 34 37
23 23 23 23 21 22 24 26 27 28 27 27 29 30 29 28 30 29 25 25 27 29 32 31 30 30 29 29 29 29 30 31 32 34 35 36 37 37 37 36 37 35 37
23 23 24 23 22 23 25 26 27 28 28 29 29 30 30 27 29 26 24 25 28 32 34 31 30 27 27 27 26 27 28 30 32 34 34 34 35 35 35 35 36 35 36
24 24 24 23 23 24 25 27 28 29 29 29 30 31 30 30 28 25 25 27 29 33 33 32 30 29 28 27 26 25 25 26 29 30 30 31 31 32 32 30 31 31 31
24 24 26 24 24 25 26 27 28 30 30 30 30 31 30 30 27 25 25 27 30 31 31 31 29 28 28 28 27 25 23 23 24 25 27 27 28 28 28 26 25 27 27
22 26 26 26 26 26 26 27 27 28 29 29 31 32 30 30 27 26 26 28 29 29 30 30 29 29 28 28 27 26 25 24 24 25 24 25 25 25 24 24 24 26 26
22 26 27 27 29 27 27 27 27 28 27 27 28 30 30 28 25 25 26 28 28 25 25 25 26 27 27 28 27 27 27 26 26 25 24 24 24 24 23 23 23 23 25
21 25 27 29 30 27 28 27 28 28 26 27 27 27 28 24 22 23 25 26 26 25 24 25 26 27 28 28 27 26 26 25 25 26 25 25 25 25 24 23 23 23 23
27 23 29 29 29 28 28 28 28 28 26 27 27 27 27 21 20 21 23 25 25 24 24 25 26 26 26 25 25 25 25 24 24 25 24 23 23 22 22 22 21 20 20
34 24 27 29 30 28 28 27 28 27 25 26 26 27 25 20 20 20 22 23 24 24 24 23 24 25 25 25 25 25 25 24 24 24 23 23 22 22 22 21 21 20 20
36 36 26 29 29 28 28 27 27 26 25 25 24 25 22 19 19 20 21 22 21 20 21 23 24 23 24 24 24 25 26 25 24 24 24 22 21 21 19 17 17 17 18
33 34 32 26 28 27 27 26 26 25 24 24 23 23 19 18 18 19 20 20 20 20 21 22 23 24 24 24 24 24 25 26 25 23 22 22 20 18 17 17 18 22 23
34 35 36 29 27 26 27 26 25 25 24 23 22 22 18 17 17 17 19 19 19 19 20 21 23 24 24 24 25 26 27 26 27 26 24 21 19 18 19 22 24 24 21
33 34 32 32 26 25 26 25 25 24 23 23 22 20 17 17 16 15 17 18 17 19 19 19 21 24 24 24 24 24 25 24 24 23 23 20 18 19 21 21 20 21 20